[[{"header":{"parameterUnit":"m.s-1","parameterCategory":1,"la1":30.6,"la2":28.766,"lo1":-90.7593,"lo2":-88.6598,"dy":0.0162,"dx":0.0183,"nx":116,"ny":114,"refTime":"2023-04-01T06:00:00:Z","depth":0,"parameterNumber":2,"parameterNumberName":"U-component_of_WINDS"},"data":[0.0,0.0,0.0,0.0,0.0,0.0,0.0,0.0,0.0,0.0,0.0,0.0,0.0,0.0,0.0,0.0,0.0,0.0,0.0,0.0,0.0,0.0,0.0,0.0,0.0,0.0,0.0,0.0,0.0,0.0,0.0,0.0,0.0,0.0,0.0,0.0,0.0,0.0,0.0,0.0,0.0,0.0,0.0,0.0,0.0,0.0,0.0,0.0,0.0,0.0,0.0,0.0,0.0,0.0,0.0,0.0,0.0,0.0,0.0,0.0,0.0,0.0,0.0,0.0,0.0,0.0,0.0,0.0,0.0,0.0,0.0,0.0,0.0,0.0,0.0,0.0,0.0,0.0,0.0,0.0,0.0,0.0,0.0,0.0,0.0,0.0,0.0,0.0,0.0,0.0,0.0,0.0,0.0,0.0,0.0,0.0,0.0,0.0,0.0,0.0,0.0,0.0,0.0,0.0,0.0,0.0,0.0,0.0,0.0,0.0,0.0,0.0,0.0,0.0,0.0,0.0,0.0,0.0,0.0,0.0,0.0,0.0,0.0,0.0,0.0,0.0,0.0,0.0,0.0,0.0,0.0,0.0,0.0,0.0,0.0,0.0,0.0,0.0,0.0,0.0,0.0,0.0,0.0,0.0,0.0,0.0,0.0,0.0,0.0,0.0,0.0,0.0,0.0,0.0,0.0,0.0,0.0,0.0,0.0,0.0,0.0,0.0,0.0,0.0,0.0,0.0,0.0,0.0,0.0,0.0,0.0,0.0,0.0,0.0,0.0,0.0,0.0,0.0,0.0,0.0,0.0,0.0,0.0,0.0,0.0,0.0,0.0,0.0,0.0,0.0,0.0,0.0,0.0,0.0,0.0,0.0,0.0,0.0,0.0,0.0,0.0,0.0,0.0,0.0,0.0,0.0,0.0,0.0,0.0,0.0,0.0,0.0,0.0,0.0,0.0,0.0,0.0,0.0,0.0,0.0,0.0,0.0,0.0,0.0,0.0,0.0,0.0,0.0,0.0,0.0,0.0,0.0,0.0,0.0,0.0,0.0,0.0,0.0,0.0,0.0,0.0,0.0,0.0,0.0,0.0,0.0,0.0,0.0,0.0,0.0,0.0,0.0,0.0,0.0,0.0,0.0,0.0,0.0,0.0,0.0,0.0,0.0,0.0,0.0,0.0,0.0,0.0,0.0,0.0,0.0,0.0,0.0,0.0,0.0,0.0,0.0,0.0,0.0,0.0,0.0,0.0,0.0,0.0,0.0,0.0,0.0,0.0,0.0,0.0,0.0,0.0,0.0,0.0,0.0,0.0,0.0,0.0,0.0,0.0,0.0,0.0,0.0,0.0,0.0,0.0,0.0,0.0,0.0,0.0,0.0,0.0,0.0,0.0,0.0,0.0,0.0,0.0,0.0,0.0,0.0,0.0,0.0,0.0,0.0,0.0,0.0,0.0,0.0,0.0,0.0,0.0,0.0,0.0,0.0,0.0,0.0,0.0,0.0,0.0,0.0,0.0,0.0,0.0,0.0,0.0,0.0,0.0,0.0,0.0,0.0,0.0,0.0,0.0,0.0,0.0,0.0,0.0,0.0,0.0,0.0,0.0,0.0,0.0,0.0,0.0,0.0,0.0,0.0,0.0,0.0,0.0,0.0,0.0,0.0,0.0,0.0,0.0,0.0,0.0,0.0,0.0,0.0,0.0,0.0,0.0,0.0,0.0,0.0,0.0,0.0,0.0,0.0,0.0,0.0,0.0,0.0,0.0,0.0,0.0,0.0,0.0,0.0,0.0,0.0,0.0,0.0,0.0,0.0,0.0,0.0,0.0,0.0,0.0,0.0,0.0,0.0,0.0,0.0,0.0,0.0,0.0,0.0,0.0,0.0,0.0,0.0,0.0,0.0,0.0,0.0,0.0,0.0,0.0,0.0,0.0,0.0,0.0,0.0,0.0,0.0,0.0,0.0,0.0,0.0,0.0,0.0,0.0,0.0,0.0,0.0,0.0,0.0,0.0,0.0,0.0,0.0,0.0,0.0,0.0,0.0,0.0,0.0,0.0,0.0,0.0,0.0,0.0,0.0,0.0,0.0,0.0,0.0,0.0,0.0,0.0,0.0,0.0,0.0,0.0,0.0,0.0,0.0,0.0,0.0,0.0,0.0,0.0,0.0,0.0,0.0,0.0,0.0,0.0,0.0,0.0,0.0,0.0,0.0,0.0,0.0,0.0,0.0,0.0,0.0,0.0,0.0,0.0,0.0,0.0,0.0,0.0,0.0,0.0,0.0,0.0,0.0,0.0,0.0,0.0,0.0,0.0,0.0,0.0,0.0,0.0,0.0,0.0,0.0,0.0,0.0,0.0,0.0,0.0,0.0,0.0,0.0,0.0,0.0,0.0,0.0,0.0,0.0,0.0,0.0,0.0,0.0,0.0,0.0,0.0,0.0,0.0,0.0,0.0,0.0,0.0,0.0,0.0,0.0,0.0,0.0,0.0,0.0,0.0,0.0,0.0,0.0,0.0,0.0,0.0,0.0,0.0,0.0,0.0,0.0,0.0,0.0,0.0,0.0,0.0,0.0,0.0,0.0,0.0,0.0,0.0,0.0,0.0,0.0,0.0,0.0,0.0,0.0,0.0,0.0,0.0,0.0,0.0,0.0,0.0,0.0,0.0,0.0,0.0,0.0,0.0,0.0,0.0,0.0,0.0,0.0,0.0,0.0,0.0,0.0,0.0,0.0,0.0,0.0,0.0,0.0,0.0,0.0,0.0,0.0,0.0,0.0,0.0,0.0,0.0,0.0,0.0,0.0,0.0,0.0,0.0,0.0,0.0,0.0,0.0,0.0,0.0,0.0,0.0,0.0,0.0,0.0,0.0,0.0,0.0,0.0,0.0,0.0,0.0,0.0,0.0,0.0,0.0,0.0,0.0,0.0,0.0,0.0,0.0,0.0,0.0,0.0,0.0,0.0,0.0,0.0,0.0,0.0,0.0,0.0,0.0,0.0,0.0,0.0,0.0,0.0,0.0,0.0,0.0,0.0,0.0,0.0,0.0,0.0,0.0,0.0,0.0,0.0,0.0,0.0,0.0,0.0,0.0,0.0,0.0,0.0,0.0,0.0,0.0,0.0,0.0,0.0,0.0,0.0,0.0,0.0,0.0,0.0,0.0,0.0,0.0,0.0,0.0,0.0,0.0,0.0,0.0,0.0,0.0,0.0,0.0,0.0,0.0,0.0,0.0,0.0,0.0,0.0,0.0,0.0,0.0,0.0,0.0,0.0,0.0,0.0,0.0,0.0,0.0,0.0,0.0,0.0,0.0,0.0,0.0,0.0,0.0,0.0,0.0,0.0,0.0,0.0,0.0,0.0,0.0,0.0,0.0,0.0,0.0,0.0,0.0,0.0,0.0,0.0,0.0,0.0,0.0,0.0,0.0,0.0,0.0,0.0,0.0,0.0,0.0,0.0,0.0,0.0,0.0,0.0,0.0,0.0,0.0,0.0,0.0,0.0,0.0,0.0,0.0,0.0,0.0,0.0,0.0,0.0,0.0,0.0,0.0,0.0,0.0,0.0,0.0,0.0,0.0,0.0,0.0,0.0,0.0,0.0,0.0,0.0,0.0,0.0,0.0,0.0,0.0,0.0,0.0,0.0,0.0,0.0,0.0,0.0,0.0,0.0,0.0,0.0,0.0,0.0,0.0,0.0,0.0,0.0,0.0,0.0,0.0,0.0,0.0,0.0,0.0,0.0,0.0,0.0,0.0,0.0,0.0,0.0,0.0,0.0,0.0,0.0,0.0,0.0,0.0,0.0,0.0,0.0,0.0,0.0,0.0,0.0,0.0,0.0,0.0,0.0,0.0,0.0,0.0,0.0,0.0,0.0,0.0,0.0,0.0,0.0,0.0,0.0,0.0,0.0,0.0,0.0,0.0,0.0,0.0,0.0,0.0,0.0,0.0,0.0,0.0,0.0,0.0,0.0,0.0,0.0,0.0,0.0,0.0,0.0,0.0,0.0,0.0,0.0,0.0,0.0,0.0,0.0,0.0,0.0,0.0,0.0,0.0,0.0,0.0,0.0,0.0,0.0,0.0,0.0,0.0,0.0,0.0,0.0,0.0,0.0,0.0,0.0,0.0,0.0,0.0,0.0,0.0,0.0,0.0,0.0,0.0,0.0,0.0,0.0,0.0,0.0,0.0,0.0,0.0,0.0,0.0,0.0,0.0,0.0,0.0,0.0,0.0,0.0,0.0,0.0,0.0,0.0,0.0,0.0,0.0,0.0,0.0,0.0,0.0,0.0,0.0,0.0,0.0,0.0,0.0,0.0,0.0,0.0,0.0,0.0,0.0,0.0,0.0,0.0,0.0,0.0,0.0,0.0,0.0,0.0,0.0,0.0,0.0,0.0,0.0,0.0,0.0,0.0,0.0,0.0,0.0,0.0,0.0,0.0,0.0,0.0,0.0,0.0,0.0,0.0,0.0,0.0,0.0,0.0,0.0,0.0,0.0,0.0,0.0,0.0,0.0,0.0,0.0,0.0,0.0,0.0,0.0,0.0,0.0,0.0,0.0,0.0,0.0,0.0,0.0,0.0,0.0,0.0,0.0,0.0,0.0,0.0,0.0,0.0,0.0,0.0,0.0,0.0,0.0,0.0,0.0,0.0,0.0,0.0,0.0,0.0,0.0,0.0,0.0,0.0,0.0,0.0,0.0,0.0,0.0,0.0,0.0,0.0,0.0,0.0,0.0,0.0,0.0,0.0,0.0,0.0,0.0,0.0,0.0,0.0,0.0,0.0,0.0,0.0,0.0,0.0,0.0,0.0,0.0,0.0,0.0,0.0,0.0,0.0,0.0,0.0,0.0,0.0,0.0,0.0,0.0,0.0,0.0,0.0,0.0,0.0,0.0,0.0,0.0,0.0,0.0,0.0,0.0,0.0,0.0,0.0,0.0,0.0,0.0,0.0,0.0,0.0,0.0,0.0,0.0,0.0,0.0,0.0,0.0,0.0,0.0,0.0,0.0,0.0,0.0,0.0,0.0,0.0,0.0,0.0,0.0,0.0,0.0,0.0,0.0,0.0,0.0,0.0,0.0,0.0,0.0,0.0,0.0,0.0,0.0,0.0,0.0,0.0,0.0,0.0,0.0,0.0,0.0,0.0,0.0,0.0,0.0,0.0,0.0,0.0,0.0,0.0,0.0,0.0,0.0,0.0,0.0,0.0,0.0,0.0,0.0,0.0,0.0,0.0,0.0,0.0,0.0,0.0,0.0,0.0,0.0,0.0,0.0,0.0,0.0,0.0,0.0,0.0,0.0,0.0,0.0,0.0,0.0,0.0,0.0,0.0,0.0,0.0,0.0,0.0,0.0,0.0,0.0,0.0,0.0,0.0,0.0,0.0,0.0,0.0,0.0,0.0,0.0,0.0,0.0,0.0,0.0,0.0,0.0,0.0,0.0,0.0,0.0,0.0,0.0,0.0,0.0,0.0,0.0,0.0,0.0,0.0,0.0,0.0,0.0,0.0,0.0,0.0,0.0,0.0,0.0,0.0,0.0,0.0,0.0,0.0,0.0,0.0,0.0,0.0,0.0,0.0,0.0,0.0,0.0,0.0,0.0,0.0,0.0,0.0,0.0,0.0,0.0,0.0,0.0,0.0,0.0,0.0,0.0,0.0,0.0,0.0,0.0,0.0,0.0,0.0,0.0,0.0,0.0,0.0,0.0,0.0,0.0,0.0,0.0,0.0,0.0,0.0,0.0,0.0,0.0,0.0,0.0,0.0,0.0,0.0,0.0,0.0,0.0,0.0,0.0,0.0,0.0,0.0,0.0,0.0,0.0,0.0,0.0,0.0,0.0,0.0,0.0,0.0,0.0,0.0,0.0,0.0,0.0,0.0,0.0,0.0,0.0,0.0,0.0,0.0,0.0,0.0,0.0,0.0,0.0,0.0,0.0,0.0,0.0,0.0,0.0,0.0,0.0,0.0,0.0,0.0,0.0,0.0,0.0,0.0,0.0,0.0,0.0,0.0,0.0,0.0,0.0,0.0,0.0,0.0,0.0,0.0,0.0,0.0,0.0,0.0,0.0,0.0,0.0,0.0,0.0,0.0,0.0,0.0,0.0,0.0,-6.4692,-6.4115,0.0,0.0,0.0,0.0,0.0,0.0,0.0,0.0,0.0,0.0,0.0,0.0,0.0,0.0,0.0,0.0,0.0,0.0,0.0,0.0,0.0,0.0,0.0,0.0,0.0,0.0,0.0,0.0,0.0,0.0,0.0,0.0,0.0,0.0,0.0,0.0,0.0,0.0,-6.3014,-6.278,-6.278,-6.278,-6.278,-6.278,0.0,0.0,0.0,0.0,0.0,0.0,0.0,0.0,0.0,0.0,0.0,0.0,0.0,0.0,0.0,0.0,0.0,0.0,0.0,0.0,0.0,0.0,0.0,0.0,0.0,0.0,0.0,0.0,0.0,0.0,0.0,0.0,0.0,0.0,0.0,0.0,0.0,0.0,0.0,0.0,0.0,0.0,0.0,0.0,0.0,0.0,0.0,0.0,0.0,0.0,0.0,0.0,0.0,0.0,0.0,0.0,0.0,0.0,0.0,0.0,0.0,0.0,0.0,0.0,0.0,0.0,0.0,0.0,0.0,0.0,-6.5044,-6.4897,0.0,0.0,0.0,0.0,0.0,0.0,0.0,0.0,0.0,0.0,0.0,0.0,0.0,0.0,0.0,0.0,0.0,0.0,0.0,0.0,0.0,0.0,0.0,0.0,-6.5413,-6.5413,-6.5413,-6.5413,0.0,0.0,0.0,0.0,0.0,0.0,0.0,-6.3739,-6.3308,-6.2929,-6.283,-6.278,-6.278,-6.278,-6.278,-6.278,-6.278,0.0,0.0,0.0,0.0,0.0,0.0,0.0,0.0,0.0,0.0,0.0,0.0,0.0,0.0,0.0,0.0,0.0,0.0,0.0,0.0,0.0,0.0,0.0,0.0,0.0,0.0,0.0,0.0,0.0,0.0,0.0,0.0,0.0,0.0,0.0,0.0,0.0,0.0,0.0,0.0,0.0,0.0,0.0,0.0,0.0,0.0,0.0,0.0,0.0,0.0,0.0,0.0,0.0,0.0,0.0,0.0,0.0,0.0,0.0,0.0,0.0,0.0,0.0,-6.5301,-6.5301,-6.5301,-6.5301,-6.5375,-6.5521,-6.5375,-6.5778,-6.6402,-6.5044,0.0,0.0,0.0,0.0,0.0,0.0,0.0,0.0,0.0,0.0,0.0,0.0,0.0,0.0,0.0,0.0,0.0,0.0,0.0,0.0,0.0,-6.5413,-6.5413,-6.5413,-6.5413,-6.5413,0.0,0.0,0.0,0.0,0.0,0.0,-6.4704,-6.3909,-6.3468,-6.34,-6.299,-6.278,-6.278,-6.278,-6.278,-6.278,-6.278,-6.278,-6.278,0.0,0.0,0.0,0.0,0.0,0.0,0.0,0.0,0.0,0.0,0.0,0.0,0.0,0.0,0.0,0.0,0.0,0.0,0.0,0.0,0.0,0.0,0.0,0.0,0.0,0.0,0.0,0.0,0.0,0.0,0.0,0.0,0.0,0.0,0.0,0.0,0.0,0.0,0.0,0.0,0.0,-6.4383,-6.5191,0.0,0.0,0.0,0.0,0.0,0.0,0.0,0.0,0.0,0.0,0.0,0.0,0.0,-6.4494,-6.5301,-6.4604,-6.4604,-6.5301,-6.5301,-6.5301,-6.5301,-6.5301,-6.5705,-6.6292,-6.5595,0.0,-6.6476,-6.6256,0.0,0.0,0.0,0.0,0.0,0.0,0.0,0.0,0.0,0.0,0.0,0.0,0.0,0.0,0.0,0.0,0.0,0.0,0.0,0.0,0.0,-6.5413,-6.5413,-6.5413,-6.5413,-6.5413,-6.5413,-6.5413,0.0,0.0,0.0,-6.4686,-6.4426,-6.3803,-6.3354,-6.311,-6.2904,-6.278,-6.278,-6.278,-6.278,-6.278,-6.278,-6.278,-6.278,-6.278,0.0,0.0,0.0,0.0,0.0,0.0,0.0,0.0,0.0,0.0,0.0,0.0,0.0,0.0,0.0,0.0,0.0,0.0,0.0,0.0,0.0,0.0,0.0,0.0,0.0,0.0,0.0,0.0,0.0,0.0,0.0,0.0,0.0,0.0,0.0,0.0,0.0,0.0,0.0,-6.4237,-6.5081,-6.5888,-6.5595,-6.5154,0.0,0.0,0.0,0.0,0.0,0.0,0.0,0.0,0.0,-6.5264,-6.453,-6.4494,-6.5301,-6.4971,-6.4971,-6.5301,-6.5301,-6.5301,-6.5301,-6.5301,-6.5742,-6.6476,-6.6145,-6.6439,-6.7136,-6.6696,-6.6512,-6.6439,0.0,0.0,0.0,0.0,-6.4787,-6.4824,0.0,0.0,0.0,0.0,0.0,0.0,0.0,0.0,0.0,0.0,0.0,0.0,-6.5413,-6.5413,-6.5413,-6.5413,-6.5413,-6.5413,-6.5413,-6.5413,0.0,0.0,-6.4845,-6.4557,-6.4096,-6.3587,-6.3158,-6.278,-6.278,-6.278,-6.278,-6.278,-6.278,-6.278,-6.278,-6.278,-6.278,-6.278,-6.278,-6.278,0.0,0.0,0.0,0.0,0.0,0.0,0.0,0.0,0.0,0.0,0.0,0.0,0.0,0.0,0.0,0.0,0.0,0.0,0.0,0.0,0.0,0.0,0.0,0.0,0.0,0.0,0.0,0.0,0.0,0.0,0.0,0.0,0.0,0.0,0.0,0.0,0.0,-6.4787,-6.5595,-6.6402,-6.6145,-6.5852,0.0,0.0,0.0,0.0,0.0,0.0,-6.4971,-6.442,-6.4457,-6.5264,-6.453,-6.4494,-6.5301,-6.5118,-6.5118,-6.5301,-6.5301,-6.5301,-6.5301,-6.5301,-6.5742,-6.6512,-6.6512,-6.6953,-6.7677,-6.7026,-6.6806,-6.6769,-6.6586,-6.6145,-6.5632,-6.5632,-6.5632,-6.5632,0.0,0.0,0.0,0.0,0.0,0.0,0.0,0.0,0.0,0.0,0.0,-6.5413,-6.5413,-6.5413,-6.5413,-6.5413,-6.5413,-6.5413,-6.5413,-6.5413,-6.5413,-6.5345,-6.5002,-6.4557,-6.4096,-6.3285,-6.283,-6.278,-6.278,-6.278,-6.278,-6.278,-6.278,-6.278,-6.278,-6.278,-6.278,-6.278,-6.278,-6.278,-6.278,0.0,0.0,0.0,0.0,0.0,0.0,0.0,0.0,0.0,0.0,0.0,0.0,0.0,0.0,0.0,0.0,0.0,0.0,0.0,0.0,0.0,0.0,0.0,0.0,0.0,0.0,0.0,0.0,0.0,0.0,0.0,0.0,0.0,0.0,0.0,0.0,0.0,0.0,-6.6402,-6.7136,0.0,0.0,0.0,0.0,-6.4163,-6.3392,-6.3282,-6.4127,-6.4127,-6.4457,-6.5264,-6.453,-6.4494,-6.5301,-6.453,-6.453,-6.5301,-6.5301,-6.5301,-6.5301,-6.5301,-6.5742,-6.6512,-6.6512,-6.6953,-6.7687,-6.765,-6.7614,-6.754,-6.6806,-6.6476,-6.6439,-6.6439,-6.6439,-6.6549,0.0,0.0,0.0,0.0,0.0,0.0,0.0,0.0,-6.5413,-6.5413,-6.5413,-6.5413,-6.5413,-6.5413,-6.5413,-6.5413,-6.5413,-6.5413,-6.5413,-6.5413,-6.5283,-6.5035,-6.4575,-6.4033,-6.3285,-6.3238,-6.311,-6.278,-6.278,-6.278,-6.278,-6.278,-6.278,-6.278,-6.278,-6.278,-6.278,-6.278,-6.278,-6.278,-6.278,-6.278,0.0,0.0,0.0,0.0,0.0,0.0,0.0,0.0,0.0,0.0,0.0,0.0,0.0,0.0,0.0,0.0,0.0,0.0,0.0,0.0,0.0,0.0,0.0,0.0,0.0,0.0,0.0,0.0,0.0,0.0,0.0,0.0,0.0,0.0,0.0,0.0,0.0,-6.6402,-6.6733,0.0,-6.6512,-6.6256,-6.5962,-6.5668,-6.5375,-6.5521,-6.6366,-6.5411,-6.5228,-6.6035,-6.5301,-6.5007,-6.5301,-6.5007,-6.5007,-6.5301,-6.5301,-6.5301,-6.5301,-6.5301,-6.5742,-6.6512,-6.6512,-6.6953,-6.7687,-6.7687,-6.7687,-6.765,-6.7357,-6.7247,-6.7247,-6.7247,-6.7247,-6.7283,0.0,0.0,0.0,0.0,0.0,0.0,0.0,0.0,-6.5413,-6.5413,-6.5413,-6.5413,-6.5413,-6.5413,-6.5413,-6.5413,-6.5413,-6.5413,-6.5413,-6.5413,-6.5283,-6.5019,-6.4426,-6.3782,-6.3038,-6.3205,-6.311,-6.278,-6.278,-6.278,-6.278,-6.278,-6.278,-6.278,-6.278,-6.278,-6.278,-6.278,-6.278,-6.278,-6.278,-6.278,-6.278,0.0,0.0,0.0,0.0,0.0,0.0,0.0,0.0,0.0,0.0,0.0,0.0,0.0,0.0,0.0,0.0,0.0,0.0,0.0,0.0,0.0,0.0,0.0,0.0,0.0,0.0,0.0,0.0,0.0,0.0,0.0,0.0,0.0,0.0,-6.5191,-6.5888,-6.6439,-6.6733,-6.688,-6.688,-6.688,-6.688,-6.688,-6.688,-6.7026,-6.7283,-6.6292,-6.5815,-6.6109,-6.5595,-6.5448,-6.5705,-6.5962,-6.6256,-6.6512,-6.6806,-6.6916,-6.6916,-6.6916,-6.721,-6.7724,-6.7724,-6.8017,-6.8495,-6.8495,-6.8495,-6.8458,-6.7907,-6.7687,-6.7687,-6.7687,-6.7687,-6.7687,0.0,0.0,0.0,0.0,0.0,0.0,0.0,-6.5413,-6.5413,-6.5413,-6.5413,-6.5413,-6.5413,-6.5413,-6.5413,-6.5413,-6.5413,-6.5413,-6.5413,-6.5398,-6.536,-6.5345,-6.4557,-6.393,-6.3513,-6.3038,-6.278,-6.278,-6.278,-6.278,-6.278,-6.278,-6.278,-6.278,-6.278,-6.278,-6.278,-6.278,-6.278,-6.278,-6.278,-6.278,-6.278,0.0,0.0,0.0,0.0,0.0,0.0,0.0,0.0,0.0,0.0,0.0,0.0,0.0,0.0,0.0,0.0,0.0,0.0,0.0,0.0,0.0,0.0,0.0,0.0,0.0,0.0,0.0,0.0,0.0,0.0,0.0,0.0,0.0,-6.5228,-6.5999,-6.6512,-6.6512,-6.721,-6.7687,-6.7687,-6.7687,-6.7687,-6.7687,-6.7677,-6.732,-6.6586,-6.6549,-6.6182,-6.5448,-6.5448,-6.5815,-6.6586,-6.7393,-6.8164,-6.8972,-6.9743,-7.011,-7.011,-7.011,-7.011,-7.011,-7.011,-7.011,-7.011,-7.011,-7.011,-6.9926,-6.8348,-6.7724,-6.7724,-6.7714,-6.7687,-6.7687,0.0,0.0,0.0,0.0,0.0,0.0,0.0,-6.5413,-6.5413,-6.5413,-6.5413,-6.5413,-6.5413,-6.5413,-6.5413,-6.5413,-6.5413,-6.5413,-6.5413,-6.5117,-6.481,-6.4483,-6.4215,-6.393,-6.3513,-6.3038,-6.278,-6.278,-6.278,-6.278,-6.278,-6.278,-6.278,-6.278,-6.278,-6.278,-6.278,-6.278,-6.278,-6.278,-6.278,-6.278,-6.278,0.0,0.0,0.0,0.0,0.0,0.0,0.0,0.0,0.0,0.0,0.0,0.0,0.0,0.0,0.0,0.0,0.0,0.0,0.0,0.0,0.0,0.0,0.0,0.0,0.0,0.0,0.0,0.0,0.0,0.0,0.0,-6.5448,-6.5925,-6.6145,-6.6366,-6.6733,-6.7283,-6.7577,-6.7687,-6.7687,-6.7687,-6.7687,-6.7687,-6.7136,-6.699,-6.7357,-6.7357,-6.754,-6.7907,-6.8495,-6.8898,-6.9119,-6.9339,-6.9559,-6.9779,-7.0,-7.011,-7.011,-7.011,-7.011,-7.011,-7.011,-7.011,-7.011,-7.011,-7.011,-7.0,-6.8972,-6.8568,-6.8495,-6.7907,-6.7687,-6.7687,0.0,0.0,0.0,0.0,0.0,0.0,0.0,-6.5413,-6.5413,-6.5413,-6.5413,-6.5413,-6.5413,-6.5413,-6.5413,-6.5413,-6.5413,-6.5314,-6.515,-6.4951,-6.4575,-6.4116,-6.4096,-6.3846,-6.3228,-6.2953,-6.278,-6.278,-6.278,-6.278,-6.278,-6.278,-6.278,-6.278,-6.278,-6.278,-6.278,-6.278,-6.278,-6.278,-6.278,-6.278,-6.278,-6.278,-6.278,-6.278,-6.278,-6.278,-6.2853,-6.3209,0.0,0.0,0.0,0.0,0.0,0.0,0.0,0.0,0.0,0.0,0.0,0.0,0.0,0.0,0.0,0.0,0.0,0.0,0.0,0.0,0.0,0.0,0.0,0.0,-6.5999,-6.6623,-6.6953,-6.699,-6.7173,-6.7614,-6.7687,-6.7687,-6.7687,-6.7687,-6.7834,-6.8164,-6.776,-6.7871,-6.8641,-6.8715,-6.8898,-6.9376,-6.9853,-7.011,-7.011,-7.044,-7.0587,-7.0624,-7.0954,-7.1101,-7.1101,-7.1101,-7.1101,-7.1101,-7.1101,-7.1101,-7.1101,-7.1101,-7.1101,-7.0991,0.0,0.0,0.0,0.0,-6.8715,-6.8715,0.0,0.0,0.0,0.0,0.0,0.0,0.0,-6.5413,-6.5452,-6.5528,-6.5452,-6.5452,-6.5528,-6.5452,-6.5413,-6.5413,-6.5413,-6.5236,-6.481,-6.4792,-6.4575,-6.4116,-6.4096,-6.3761,-6.2965,-6.2855,-6.283,-6.288,-6.283,-6.278,-6.278,-6.278,-6.278,-6.278,-6.278,-6.278,-6.278,-6.278,-6.278,-6.278,-6.278,-6.278,-6.278,-6.278,-6.278,-6.278,-6.278,-6.2853,-6.3062,-6.3833,0.0,0.0,0.0,0.0,0.0,0.0,0.0,0.0,0.0,0.0,0.0,0.0,0.0,0.0,0.0,0.0,0.0,0.0,0.0,0.0,0.0,0.0,0.0,0.0,-6.6109,-6.688,-6.7577,-6.776,-6.7797,-6.7714,-6.776,-6.7834,-6.7834,-6.7907,-6.8274,-6.8972,-6.9045,-6.9339,-7.0073,-7.0183,0.0,0.0,0.0,-7.0367,-7.0367,-7.1101,-7.1439,-7.1439,-7.2275,-7.2642,-7.2642,-7.2716,-7.2789,-7.2789,-7.2789,-7.2789,-7.2753,-7.2679,-7.2569,-7.2349,-7.0844,-7.0183,-7.011,-7.011,-7.011,-7.011,0.0,0.0,0.0,0.0,0.0,0.0,0.0,-6.5413,-6.5643,-6.6369,-6.5834,-6.5681,-6.6369,-6.5834,-6.5413,-6.5413,-6.5413,-6.5236,-6.481,-6.4792,-6.4575,-6.4116,-6.4096,-6.4016,-6.3829,-6.3144,-6.3002,-6.3354,-6.3002,-6.278,-6.278,-6.278,-6.278,-6.278,-6.278,-6.278,-6.278,-6.278,-6.278,-6.278,-6.278,-6.278,-6.278,-6.278,-6.278,-6.278,-6.278,-6.3246,-6.387,-6.4016,-6.453,-6.5118,-6.5264,-6.4751,0.0,0.0,0.0,0.0,0.0,0.0,0.0,0.0,0.0,0.0,0.0,0.0,0.0,0.0,0.0,0.0,0.0,0.0,0.0,-6.6256,-6.6953,-6.7504,-6.7677,-6.8238,-6.8421,-6.776,-6.8274,-6.8678,-6.8678,-6.9265,-6.9706,-6.9853,-6.9853,-6.9926,-7.0073,-7.0734,-7.1064,-7.1064,-7.1688,-7.2055,-7.2055,-7.2202,-7.2275,-7.2275,-7.3083,0.0,-7.3487,-7.4147,-7.4441,-7.4441,-7.4441,-7.4441,-7.4404,-7.3744,-7.3083,-7.2422,-7.1431,-7.066,-7.011,-7.011,-7.011,-7.011,0.0,0.0,0.0,0.0,0.0,0.0,0.0,-6.5413,-6.5566,-6.5987,-6.5681,-6.5566,-6.5987,-6.5643,-6.5413,-6.5413,-6.5236,-6.5085,-6.5085,-6.4934,-6.4575,-6.4116,-6.4096,-6.4033,-6.3803,-6.3121,-6.3014,-6.349,-6.3014,-6.278,-6.278,-6.278,-6.278,-6.278,-6.278,-6.278,-6.278,-6.278,-6.278,-6.278,-6.278,-6.278,-6.278,-6.278,-6.278,-6.278,-6.278,-6.3356,-6.4163,-6.4567,-6.5228,-6.5962,-6.6366,-6.5962,-6.5228,0.0,0.0,0.0,0.0,0.0,0.0,0.0,0.0,0.0,0.0,0.0,0.0,0.0,0.0,-6.5301,-6.5301,0.0,-6.6512,-6.6512,-6.7504,-6.8311,-6.8311,-6.8972,-6.9192,-6.8385,-6.9009,-6.9486,-6.9486,-6.9853,-7.0257,-7.066,-7.0697,-7.0881,-7.1284,-7.1688,-7.1908,-7.1908,-7.2679,-7.3083,-7.3083,-7.3891,-7.4294,-7.4294,-7.4698,-7.4882,-7.4882,-7.4918,-7.4918,-7.4918,-7.4918,-7.4918,-7.4882,-7.4478,-7.4074,-7.367,-7.3266,-7.2386,-7.1284,-7.1284,-7.1284,-7.1284,0.0,0.0,0.0,0.0,0.0,0.0,0.0,-6.5413,-6.5452,-6.5643,-6.549,-6.5452,-6.5643,-6.549,-6.5413,-6.5413,-6.5082,-6.5052,-6.5383,-6.5065,-6.4671,-6.4096,-6.4096,-6.3971,-6.3609,-6.3086,-6.3062,-6.3646,-6.3062,-6.278,-6.278,-6.278,-6.278,-6.278,-6.278,-6.278,-6.278,-6.278,-6.278,-6.278,-6.278,-6.278,-6.2817,-6.2989,-6.2952,-6.2817,-6.2989,-6.3503,-6.4237,-6.5228,-6.5962,-6.6623,-6.743,-6.7136,-6.6366,-6.5742,-6.5411,0.0,0.0,0.0,0.0,0.0,0.0,0.0,0.0,-6.5521,-6.5595,-6.5742,-6.5778,-6.5778,-6.5778,-6.6292,-6.6769,-6.6953,-6.8054,-6.8972,-6.9119,-6.9816,-7.011,-6.9449,-6.9926,-7.033,-7.033,-7.0477,-7.0844,-7.1505,-7.1513,-7.1835,-7.2459,-7.2642,-7.2789,-7.2973,-7.3744,-7.4221,-7.4404,-7.5542,-7.6093,-7.6093,-7.6093,-7.6093,-7.6093,-7.5616,-7.5395,-7.5395,-7.5395,-7.5285,-7.5139,-7.5139,-7.5065,-7.4918,-7.4918,-7.4111,-7.2973,-7.2973,-7.2973,-7.2936,0.0,0.0,0.0,0.0,0.0,0.0,0.0,0.0,-6.5681,-6.6445,-6.5872,-6.5681,-6.6483,-6.5872,-6.5413,-6.5413,-6.5311,-6.5275,-6.5368,-6.5293,-6.4888,-6.4134,-6.4096,-6.4076,-6.4016,-6.3215,-6.3191,-6.4016,-6.3191,-6.278,-6.278,-6.278,-6.278,-6.278,-6.278,-6.278,-6.278,-6.278,-6.278,-6.278,-6.278,-6.278,-6.2853,-6.3649,-6.3466,-6.2915,-6.3686,-6.4016,-6.431,-6.5852,-6.6439,-6.6623,-6.743,-6.7136,-6.6476,-6.6402,-6.5852,-6.5118,-6.431,-6.4163,-6.4237,-6.4237,-6.4714,-6.5375,0.0,-6.6366,-6.6549,-6.7283,-6.743,-6.743,-6.743,-6.7504,-6.7797,-6.8531,-6.8788,-6.9155,-6.9853,-7.066,-7.1138,-7.1064,-7.1109,-7.1174,-7.1174,-7.1835,-7.2275,-7.2349,-7.2386,-7.2422,-7.2496,-7.3193,-7.3891,-7.4625,-7.5432,-7.6166,-7.687,-7.6387,-7.6093,-7.6093,-7.6093,-7.6093,-7.613,-7.6754,-7.7017,-7.7017,-7.7017,-7.6644,-7.5983,-7.5983,-7.5542,-7.4918,-7.4918,-7.4808,-7.4625,-7.4625,-7.4625,-7.4551,0.0,0.0,0.0,0.0,0.0,0.0,0.0,0.0,0.0,0.0,-6.548,-6.5528,-6.591,-6.5605,-6.5413,-6.5413,-6.5586,-6.5838,-6.6147,-6.6289,-6.6141,-6.5561,-6.5561,-6.5436,-6.5157,-6.4094,-6.3872,-6.4448,-6.3331,-6.278,-6.278,-6.278,-6.278,-6.278,-6.278,-6.278,-6.278,-6.278,-6.3099,-6.3576,-6.3576,-6.3833,-6.4284,-6.4677,-6.4567,-6.4237,-6.4127,-6.4383,0.0,-6.5558,-6.6109,-6.6623,-6.743,-6.7136,-6.6512,-6.6512,-6.5925,-6.5338,-6.5448,-6.5154,-6.5007,-6.5962,-6.6109,-6.6219,-6.699,-6.7173,-6.7283,-6.7614,-6.7687,-6.7687,-6.7687,-6.8091,-6.8495,-6.8862,-6.9706,-7.0403,-7.077,-7.1505,-7.2018,-7.2018,-7.2018,-7.2018,-7.2018,-7.2312,-7.2496,-7.2496,-7.2936,-7.3413,-7.3891,-7.4661,-7.5469,-7.6246,-7.6644,-7.6943,-7.7273,-7.7488,-7.7561,-7.7561,-7.7561,-7.7561,-7.7561,-7.7378,-7.7273,-7.7273,-7.7273,-7.709,-7.6827,-7.6827,-7.6607,-7.6283,-7.6283,-7.6283,-7.6173,-7.5249,-7.4918,-7.4845,0.0,0.0,0.0,0.0,0.0,0.0,0.0,0.0,0.0,0.0,-6.5236,-6.5413,-6.5413,-6.5413,-6.5413,-6.5413,-6.5638,-6.6061,-6.6643,-6.6911,-6.6878,-6.6633,-6.6612,-6.64,-6.5882,-6.4918,-6.4635,-6.5028,-6.4009,-6.3477,-6.3477,-6.3477,-6.3477,-6.3477,-6.3477,-6.3477,-6.3477,-6.3477,-6.387,-6.442,-6.442,-6.4787,-6.5338,-6.5558,-6.5485,-6.5228,-6.464,-6.464,-6.5007,-6.5228,-6.5558,-6.5962,-6.6769,-6.6623,-6.6182,-6.6182,-6.5595,-6.5154,-6.5962,-6.5742,-6.5632,-6.7026,-6.71,-6.699,-6.7577,-6.7687,-6.7687,-6.7687,-6.7687,-6.776,-6.7981,-6.8495,-6.9045,-6.9486,-7.055,-7.1366,-7.1615,-7.2129,-7.2496,-7.2496,-7.2496,-7.2606,-7.2826,-7.2642,-7.2606,-7.2826,-7.3597,-7.4368,-7.5212,-7.5983,-7.6827,-7.7635,-7.7671,-7.7781,-7.8002,-7.8405,-7.8589,-7.8589,-7.8369,-7.8259,-7.8222,-7.7567,-7.7273,-7.7273,-7.7273,-7.7273,-7.7273,-7.7273,-7.7273,-7.7273,-7.7273,-7.7273,-7.7163,-7.5989,-7.5549,-7.5512,0.0,0.0,0.0,0.0,0.0,0.0,0.0,0.0,0.0,0.0,0.0,0.0,0.0,-6.5413,-6.5413,-6.5413,-6.5368,-6.5691,-6.6628,-6.6636,-6.6633,-6.6612,-6.6612,-6.64,-6.5882,-6.5483,-6.5446,-6.5882,-6.5446,-6.5228,-6.5228,-6.5228,-6.5228,-6.5228,-6.5228,-6.5228,-6.5228,-6.5228,-6.5264,-6.5264,-6.5264,-6.5301,-6.5411,-6.6182,-6.5999,-6.5301,-6.5264,-6.4787,-6.4237,-6.5044,-6.4787,-6.431,-6.5118,-6.5375,-6.5338,-6.5338,-6.4787,-6.431,-6.5118,-6.5338,-6.5521,-6.6329,-6.71,-6.765,-6.7687,-6.7687,-6.7687,-6.7687,-6.7687,-6.7944,-6.8715,-6.8898,-6.9412,-7.0962,-7.1256,-7.1578,-7.2349,-7.2496,-7.2496,-7.2496,-7.2496,-7.2826,-7.3597,-7.2973,-7.2826,-7.3597,-7.4404,-7.5212,-7.6019,-7.6827,-7.7671,-7.8516,-7.8552,-7.8919,-7.969,-7.8993,-7.8589,-7.8589,-7.7745,-7.7347,-7.7347,-7.731,-7.7273,-7.7273,-7.7273,-7.7273,-7.7273,-7.7273,-7.7273,-7.7273,-7.7273,-7.7273,-7.7273,-7.7237,-7.7237,-7.7127,0.0,0.0,0.0,0.0,0.0,0.0,0.0,0.0,0.0,0.0,0.0,0.0,0.0,0.0,0.0,0.0,-6.5621,-6.5878,-6.6201,-6.7259,-6.7746,-6.7459,-6.7964,-6.8047,-6.7577,-6.6614,-6.615,-6.6294,-6.5636,-6.5301,-6.5301,-6.5301,-6.5301,-6.5301,-6.5301,-6.5301,-6.5301,-6.5301,-6.5632,-6.6109,-6.6109,-6.6109,-6.6145,-6.6402,-6.5999,-6.5228,0.0,-6.431,-6.4127,-6.442,-6.431,-6.4237,-6.5044,-6.4934,-6.4494,-6.4494,-6.4677,-6.5081,-6.5888,-6.6109,-6.6292,-6.71,-6.7504,-6.7687,-6.7687,-6.7687,-6.7687,-6.7687,-6.7687,-6.776,-6.8054,-6.8531,-6.9265,-7.033,-7.0954,-7.1578,-7.2386,-7.2496,-7.2496,-7.2496,-7.2973,-7.3377,-7.367,-7.345,-7.3854,-7.5175,-7.6056,-7.6864,-7.7708,-7.8516,-7.9103,-7.9396,-7.8883,-7.8736,-7.8993,-7.8185,-7.7745,-7.7745,-7.742,-7.7273,-7.7273,-7.7273,-7.7273,-7.7273,-7.7273,-7.7273,-7.7273,-7.7273,-7.7273,-7.7273,-7.7273,-7.7273,-7.7273,-7.7273,-7.7273,-7.7237,0.0,0.0,0.0,0.0,0.0,0.0,0.0,0.0,0.0,0.0,0.0,0.0,0.0,0.0,0.0,0.0,0.0,-6.5666,-6.5968,-6.7011,-6.7562,-6.7422,-6.7926,-6.7972,-6.7503,-6.6577,-6.6072,-6.6072,-6.5852,-6.5742,-6.5742,-6.6035,-6.6145,-6.6145,-6.6145,-6.6145,-6.6145,-6.6145,-6.6292,-6.6512,-6.6512,-6.6329,-6.6072,-6.6072,-6.5558,0.0,-6.4273,-6.3906,-6.3649,-6.3649,-6.3649,-6.3796,-6.4604,-6.453,-6.4163,-6.442,-6.4677,-6.5118,-6.6182,-6.6512,-6.6696,-6.7504,-6.7687,-6.7687,-6.7687,-6.7687,-6.7614,-6.732,-6.7504,-6.7687,-6.7687,-6.8348,-6.9265,-7.0367,-7.0954,-7.1578,-7.2386,-7.2496,-7.2606,-7.2899,-7.3377,-7.4037,-7.4918,-7.4992,-7.5432,-7.646,-7.7304,-7.8148,-7.8993,-7.925,-7.936,-7.936,-7.8589,-7.8148,-7.8148,-7.7567,-7.7273,-7.7273,-7.7273,-7.7273,-7.7273,-7.7273,-7.7273,-7.7273,-7.7273,-7.7273,-7.7273,-7.7273,-7.7273,-7.7273,-7.7273,-7.7273,-7.7273,-7.7273,-7.7273,-7.7273,0.0,0.0,0.0,0.0,0.0,0.0,0.0,0.0,0.0,0.0,0.0,0.0,0.0,0.0,0.0,0.0,0.0,0.0,-6.5856,-6.595,-6.6144,-6.6479,-6.6533,-6.6378,-6.5882,-6.5483,-6.5301,-6.5301,-6.6072,-6.6439,-6.6476,-6.721,-6.7577,-6.7577,-6.7577,-6.7577,-6.7577,-6.7577,-6.7136,-6.6439,-6.6439,-6.5962,-6.5264,-6.5264,-6.4751,-6.4016,-6.4016,-6.3539,-6.2853,-6.2842,-6.2817,-6.3025,-6.387,-6.4163,-6.431,-6.5118,-6.4824,-6.4567,-6.6145,-6.6549,-6.6733,-6.7504,-6.7687,-6.7687,-6.7687,-6.765,-6.7393,-6.6659,-6.71,-6.7614,-6.7614,-6.8311,-6.9412,-7.0962,-7.1256,-7.1578,-7.2386,-7.2532,-7.2826,-7.3597,-7.3817,-7.4771,-7.7053,-7.7384,-7.742,-7.742,-7.8185,-7.8993,-7.969,-7.8993,-7.8589,-7.8516,-7.7745,-7.7273,-7.7273,-7.7273,-7.7273,-7.7273,-7.7273,-7.7273,-7.7273,-7.7273,-7.7273,-7.7273,-7.7273,-7.7273,-7.7273,-7.7273,-7.7273,-7.7273,-7.7273,-7.7273,-7.7273,-7.7273,-7.7273,-7.7273,0.0,0.0,0.0,0.0,0.0,0.0,0.0,0.0,0.0,0.0,0.0,0.0,0.0,0.0,0.0,0.0,0.0,0.0,-6.4594,-6.5463,-6.5766,-6.5225,-6.5837,-6.6104,-6.5966,-6.5545,-6.5301,-6.5301,-6.5521,-6.5632,-6.5632,-6.5815,-6.5925,-6.5925,-6.5925,-6.5925,-6.5925,-6.5925,-6.5778,-6.5632,-6.5632,-6.5118,-6.442,-6.442,-6.387,-6.3135,-6.3135,-6.3429,-6.3686,-6.3025,-6.3246,-6.3906,-6.4751,-6.5007,-6.5154,-6.5962,-6.6035,-6.6109,-6.71,-6.7393,-6.743,-6.7677,-6.7687,-6.7687,-6.7687,-6.7247,-6.6733,-6.6549,-6.6659,-6.6806,-6.6806,-6.7944,-6.9229,-7.0257,-7.0917,-7.1578,-7.2386,-7.301,-7.345,-7.367,-7.5285,-7.6613,-7.7237,-7.8442,-7.914,-7.914,-7.936,-7.9323,-7.8919,-7.8699,-7.8295,-7.7671,-7.742,-7.7273,-7.7273,-7.7273,-7.7273,-7.7273,-7.7273,-7.7273,-7.7273,-7.7273,-7.7273,-7.7273,-7.7273,-7.7273,-7.7273,-7.7273,-7.7273,-7.7273,-7.7273,-7.7273,-7.7273,-7.7273,-7.7273,-7.7273,0.0,0.0,0.0,0.0,0.0,0.0,0.0,0.0,0.0,0.0,0.0,0.0,0.0,0.0,0.0,0.0,0.0,0.0,0.0,-6.4765,-6.489,-6.4204,-6.4628,-6.4888,-6.4888,-6.4439,-6.4174,-6.4174,-6.4604,-6.4787,-6.4787,-6.5154,-6.5301,-6.5301,-6.5301,-6.5301,-6.5301,-6.5301,-6.5118,0.0,0.0,-6.4273,-6.3539,-6.3539,-6.3246,-6.278,-6.278,-6.3356,-6.409,-6.3943,-6.4457,-6.5228,-6.5668,-6.5852,-6.5999,-6.6769,-6.6769,-6.6659,-6.7467,-6.7687,-6.7687,-6.7687,-6.7687,-6.7614,-6.7247,-6.6806,-6.6292,-6.5595,-6.5999,-6.6402,-6.6035,-6.7577,-6.9155,-6.9963,-7.077,-7.1578,-7.2386,-7.3193,-7.3964,-7.4661,-7.6276,-7.7567,-7.8332,-7.925,-7.9653,-7.9286,-7.925,-7.9066,-7.8626,-7.8259,-7.7818,-7.731,-7.7273,-7.7273,-7.7273,-7.7273,-7.7273,-7.7273,-7.7273,-7.7273,-7.7273,-7.7273,-7.7273,-7.7273,-7.7273,-7.7273,-7.7273,-7.7273,-7.7273,-7.7273,-7.7273,-7.7273,-7.7273,-7.7273,-7.7273,-7.7273,0.0,0.0,0.0,0.0,0.0,0.0,0.0,0.0,0.0,0.0,-6.497,0.0,0.0,0.0,0.0,0.0,0.0,0.0,0.0,0.0,0.0,-6.3608,-6.3474,-6.34,-6.34,-6.299,-6.278,-6.278,-6.3576,-6.3906,-6.3943,-6.464,-6.4971,-6.4971,-6.4971,-6.4971,-6.4971,-6.4971,-6.4567,-6.3906,-6.3906,-6.3466,-6.278,0.0,0.0,-6.2842,-6.2952,-6.3539,-6.4383,-6.5191,-6.5925,-6.6512,-6.6623,-6.6659,-6.6806,-6.7504,-6.721,-6.6806,-6.7504,-6.7687,-6.7687,-6.7687,-6.7687,-6.7467,-6.6659,-6.6402,-6.5925,-6.442,-6.5301,-6.6145,-6.5448,-6.7283,-6.9155,-6.9963,-7.077,-7.1578,-7.2386,-7.3266,-7.4404,-7.5909,-7.6937,-7.8112,-7.9653,-7.969,-7.9323,-7.8662,-7.8479,-7.8442,-7.8442,-7.7708,-7.7273,-7.7273,-7.7273,-7.7273,-7.7273,-7.7273,-7.7273,-7.7273,-7.7273,-7.7273,-7.7273,-7.7273,-7.7273,-7.7273,-7.7273,-7.7273,-7.7273,-7.7273,-7.7273,-7.7273,-7.7273,-7.7273,-7.7273,-7.7273,-7.7273,-7.7273,0.0,0.0,0.0,0.0,0.0,0.0,0.0,0.0,0.0,0.0,-6.6015,-6.6541,0.0,0.0,0.0,0.0,0.0,0.0,0.0,0.0,0.0,0.0,-6.3297,-6.2929,-6.2929,-6.283,-6.278,-6.278,-6.2952,-6.3025,-6.3025,-6.3172,-6.322,-6.322,-6.322,-6.322,-6.322,-6.322,-6.3172,-6.3025,-6.3025,-6.2952,-6.278,-6.278,0.0,0.0,-6.3613,-6.4383,-6.5228,-6.6035,-6.6366,-6.6623,-6.7283,-6.7467,-6.7504,-6.765,-6.7577,-6.7504,-6.765,-6.7687,-6.7687,-6.7687,-6.7687,-6.7467,-6.6659,-6.5999,-6.5228,-6.4273,-6.4861,-6.5485,-6.5338,-6.7283,-6.9155,-6.9963,-7.077,-7.1578,-7.2386,-7.378,-7.5028,-7.5983,-7.7451,-7.8736,-7.969,-7.9176,-7.8736,-7.8589,-7.7928,-7.753,-7.753,-7.7384,-7.7273,-7.7273,-7.7273,-7.7273,-7.7273,-7.7273,-7.7273,-7.7273,-7.7273,-7.7273,-7.7273,-7.7273,-7.7273,-7.7273,-7.7273,-7.7273,-7.7273,-7.7273,-7.7273,-7.7273,-7.7273,-7.7273,-7.7273,-7.7273,-7.7273,-7.7273,0.0,0.0,0.0,0.0,0.0,0.0,0.0,-6.71,-6.7163,-6.7208,-6.7158,-6.7135,-6.7184,-6.6975,-6.6839,0.0,0.0,0.0,0.0,0.0,0.0,0.0,0.0,0.0,-6.4127,-6.3686,-6.3466,-6.3466,0.0,-6.278,-6.278,-6.278,-6.278,-6.278,-6.278,-6.278,-6.278,-6.278,-6.278,-6.278,-6.278,-6.278,0.0,0.0,0.0,0.0,0.0,-6.3943,-6.4714,-6.5118,-6.5521,-6.6109,-6.7283,-6.7687,-6.7614,-6.7173,-6.7357,-6.7614,-6.7173,-6.7357,-6.7687,-6.7687,-6.7687,-6.7357,-6.6145,-6.5595,-6.4934,-6.3686,-6.442,-6.5301,-6.5301,-6.7283,-6.9045,-6.9412,-7.0513,-7.1431,-7.1835,-7.3634,-7.5359,-7.6607,-7.7818,-7.8919,-7.969,-7.9066,-7.8405,-7.7965,-7.7561,-7.7273,-7.7273,-7.7273,-7.7273,-7.7273,-7.7273,-7.7273,-7.7273,-7.7273,-7.7273,-7.7273,-7.7273,-7.7273,-7.7273,-7.7273,-7.7273,-7.7273,-7.7273,-7.7273,-7.7273,-7.7273,-7.7273,-7.7273,-7.7273,-7.7273,-7.7273,-7.7273,-7.7273,-7.7273,0.0,0.0,0.0,0.0,0.0,0.0,0.0,-6.7687,-6.781,-6.821,-6.7941,-6.7451,-6.6814,-6.6843,-6.6908,0.0,0.0,0.0,0.0,0.0,0.0,0.0,0.0,0.0,0.0,0.0,0.0,-6.4347,-6.3686,0.0,0.0,0.0,0.0,0.0,-6.2853,-6.278,-6.278,-6.278,-6.278,0.0,0.0,-6.278,0.0,0.0,0.0,0.0,0.0,-6.3356,-6.409,-6.409,-6.464,-6.5521,-6.6769,-6.7173,-6.71,-6.6623,-6.6953,-6.732,-6.688,-6.721,-6.7687,-6.7687,-6.7687,-6.7283,-6.5668,-6.5301,-6.4824,-6.3172,-6.4127,-6.5301,-6.5301,-6.7136,-6.8715,-6.8862,-7.011,-7.1101,-7.1256,-7.3377,-7.5506,-7.709,-7.7928,-7.8699,-7.969,-7.8883,-7.8038,-7.7347,-7.7273,-7.7273,-7.7273,-7.7273,-7.7273,-7.7273,-7.7273,-7.7273,-7.7273,-7.7273,-7.7273,-7.7273,-7.7273,-7.7273,-7.7273,-7.7273,-7.7273,-7.7273,-7.7273,-7.7273,-7.7273,-7.7273,-7.7273,-7.7273,-7.7273,-7.7273,-7.7273,-7.7273,-7.7273,-7.7273,0.0,0.0,0.0,0.0,0.0,0.0,0.0,-6.7687,-6.7714,-6.7767,-6.7741,-6.7667,-6.76,-6.7951,-6.8243,0.0,0.0,0.0,0.0,0.0,0.0,0.0,0.0,0.0,0.0,0.0,0.0,-6.5191,-6.5118,0.0,0.0,0.0,0.0,0.0,0.0,-6.278,-6.278,-6.278,0.0,0.0,0.0,0.0,0.0,0.0,0.0,0.0,0.0,-6.3356,-6.409,-6.409,-6.464,-6.5338,-6.5485,-6.5521,-6.5668,-6.6329,-6.6549,-6.6733,-6.7393,-6.7614,-6.7687,-6.7687,-6.7687,-6.7283,-6.5668,-6.5301,-6.4824,-6.3172,-6.4127,-6.5301,-6.5301,-6.6659,-6.8054,-6.8788,-6.9633,-7.0477,-7.1183,-7.3377,-7.5506,-7.709,-7.7347,-7.8075,-7.9653,-7.8369,-7.7384,-7.731,-7.7273,-7.7273,-7.7273,-7.7273,-7.7273,-7.7273,-7.7273,-7.7273,-7.7273,-7.7273,-7.7273,-7.7273,-7.7273,-7.7273,-7.7273,-7.7273,-7.7273,-7.7273,-7.7273,-7.7273,-7.7273,-7.7273,-7.7273,-7.7273,-7.7273,-7.7273,-7.7273,-7.7273,-7.7273,-7.7273,0.0,0.0,0.0,0.0,0.0,0.0,-6.7687,-6.7687,-6.7687,-6.7687,-6.7687,-6.7687,-6.7687,-6.7863,-6.7993,-6.7993,0.0,0.0,0.0,0.0,0.0,0.0,0.0,0.0,0.0,0.0,-6.6035,-6.6035,-6.5558,0.0,0.0,0.0,0.0,0.0,0.0,-6.4053,-6.3576,-6.3576,0.0,0.0,0.0,0.0,0.0,0.0,0.0,0.0,0.0,0.0,-6.3319,-6.3319,-6.3539,-6.3796,-6.3796,-6.3796,-6.398,-6.4824,-6.5742,-6.6476,-6.6292,-6.6953,-6.7687,-6.7687,-6.7687,-6.7283,-6.5668,-6.5301,-6.4824,-6.3172,-6.3759,-6.4714,-6.5228,-6.6219,-6.7247,-6.8054,-6.9265,-7.022,-7.055,-7.2679,-7.4771,-7.6387,-7.6607,-7.7231,-7.8919,-7.8002,-7.7273,-7.7273,-7.7273,-7.7273,-7.7273,-7.7273,-7.7273,-7.7273,-7.7273,-7.7273,-7.7273,-7.7273,-7.7273,-7.7273,-7.7273,-7.7273,-7.7273,-7.7273,-7.7273,-7.7273,-7.7273,-7.7273,-7.7273,-7.7273,-7.7273,-7.7273,-7.7273,-7.7273,-7.7273,-7.7273,-7.7273,-7.7273,0.0,0.0,0.0,0.0,0.0,-6.7687,-6.7687,-6.7687,-6.7687,-6.7687,-6.7687,-6.7687,-6.7687,-6.7687,-6.7687,-6.7687,-6.7687,0.0,0.0,0.0,0.0,0.0,0.0,0.0,0.0,0.0,-6.6843,-6.6843,-6.6292,-6.5999,0.0,0.0,-6.5668,-6.5632,0.0,0.0,0.0,0.0,0.0,0.0,0.0,0.0,0.0,0.0,0.0,0.0,0.0,0.0,0.0,0.0,0.0,-6.278,-6.278,-6.278,-6.2989,-6.3833,-6.4897,-6.5778,-6.5668,-6.6476,-6.7393,-6.7614,-6.7504,-6.699,-6.5632,-6.5118,-6.453,-6.3099,-6.3503,-6.4347,-6.5154,-6.5962,-6.6769,0.0,0.0,-7.011,-7.011,-7.2165,-7.4294,-7.5909,-7.6093,-7.6754,-7.8442,-7.7818,-7.7273,-7.7273,-7.7273,-7.7273,-7.7273,-7.7273,-7.7273,-7.7273,-7.7273,-7.7273,-7.7273,-7.7273,-7.7273,-7.7273,-7.7273,-7.7273,-7.7273,-7.7273,-7.7273,-7.7273,-7.7273,-7.7273,-7.7273,-7.7273,-7.7273,-7.7273,-7.7273,-7.7273,-7.7273,-7.7273,-7.7273,-7.7273,0.0,0.0,0.0,0.0,0.0,0.0,-6.7687,-6.7687,-6.7687,-6.7687,-6.7687,-6.7687,-6.7687,-6.7687,-6.7687,-6.7687,-6.7687,0.0,0.0,0.0,0.0,0.0,0.0,0.0,0.0,0.0,-6.7687,-6.7687,-6.7677,-6.7677,-6.765,-6.6843,-6.6476,-6.6439,0.0,0.0,0.0,0.0,0.0,0.0,0.0,0.0,0.0,0.0,0.0,0.0,0.0,0.0,0.0,0.0,0.0,0.0,0.0,-6.278,-6.2989,-6.3833,-6.409,-6.4457,-6.6072,-6.6512,-6.6696,-6.7504,-6.71,-6.6292,-6.5485,-6.4677,-6.387,-6.2989,-6.3503,-6.4347,-6.5154,-6.5962,-6.6769,-6.7577,-6.9045,0.0,-7.011,-7.2165,-7.4294,-7.5909,-7.6093,-7.6754,-7.8442,-7.7818,-7.7273,-7.7273,-7.7273,-7.7273,-7.7273,-7.7273,-7.7273,-7.7273,-7.7273,-7.7273,-7.7273,-7.7273,-7.7273,-7.7273,-7.7273,-7.7273,-7.7273,-7.7273,-7.7273,-7.7273,-7.7273,-7.7273,-7.7273,-7.7273,-7.7273,-7.7273,-7.7273,-7.7273,-7.7273,-7.7273,-7.7273,-7.7273,0.0,0.0,0.0,0.0,0.0,0.0,0.0,-6.7687,-6.7687,-6.7687,-6.7687,-6.7687,-6.7687,-6.7687,-6.7687,-6.7687,-6.7687,0.0,0.0,0.0,0.0,0.0,0.0,0.0,0.0,-6.7687,-6.7687,-6.7687,-6.7687,-6.7687,-6.7687,-6.743,-6.732,-6.7283,-6.7026,-6.6623,0.0,0.0,0.0,0.0,0.0,0.0,-6.3686,0.0,0.0,0.0,0.0,0.0,0.0,0.0,0.0,0.0,0.0,0.0,0.0,-6.3135,-6.3613,-6.42,-6.4714,-6.5264,-6.5742,-6.5999,-6.5888,-6.5485,-6.464,-6.4273,-6.3833,-6.2989,-6.3503,-6.4347,-6.5154,-6.5962,-6.6769,-6.7577,-6.9045,-7.011,-7.011,-7.1688,-7.3487,-7.5102,-7.6276,-7.7157,-7.7671,-7.7457,-7.7273,-7.7273,-7.7273,-7.7273,-7.7273,-7.7273,-7.7273,-7.7273,-7.7273,-7.7273,-7.7273,-7.7273,-7.7273,-7.7273,-7.7273,-7.7273,-7.7273,-7.7273,-7.7273,-7.7273,-7.7273,-7.7273,-7.7273,-7.7273,-7.7273,-7.7273,-7.7273,-7.7273,-7.7273,-7.7273,-7.7273,-7.7273,0.0,0.0,0.0,0.0,0.0,0.0,0.0,-6.7687,-6.7687,-6.7687,-6.7687,-6.7687,-6.7687,-6.7687,-6.7687,-6.7687,-6.7687,0.0,0.0,0.0,0.0,0.0,0.0,0.0,-6.7687,-6.7687,-6.7687,-6.7687,-6.7687,-6.7687,-6.7687,-6.7687,-6.7687,-6.7687,-6.7687,-6.7393,0.0,0.0,0.0,0.0,0.0,0.0,-6.453,0.0,0.0,0.0,0.0,0.0,0.0,0.0,0.0,0.0,0.0,0.0,0.0,0.0,-6.3172,-6.3686,-6.4016,-6.4457,-6.4934,-6.5228,-6.5081,-6.4714,-6.42,-6.3833,-6.3466,-6.2915,-6.3503,-6.4347,-6.5154,-6.5962,-6.6769,-6.7577,-6.9045,-7.011,-7.011,-7.1505,-7.312,-7.4735,-7.6319,-7.7273,-7.7273,-7.7273,-7.7273,-7.7273,-7.7273,-7.7273,-7.7273,-7.7273,-7.7273,-7.7273,-7.7273,-7.7273,-7.7273,-7.7273,-7.7273,-7.7273,-7.7273,-7.7273,-7.7273,-7.7273,-7.7273,-7.7273,-7.7273,-7.7273,0.0,-7.7273,-7.7273,-7.7273,-7.7273,-7.7273,-7.7273,-7.7273,-7.7273,-7.7273,0.0,0.0,0.0,0.0,0.0,0.0,0.0,-6.7687,-6.7687,-6.7687,-6.7687,-6.7687,-6.7687,-6.7687,-6.7687,-6.7687,0.0,0.0,0.0,0.0,0.0,0.0,0.0,0.0,-6.7687,-6.7687,-6.7687,-6.7687,-6.7687,-6.7687,-6.7687,-6.7687,-6.7687,-6.7687,-6.7687,-6.7687,-6.7687,-6.7687,-6.7247,-6.6586,-6.6586,-6.6109,0.0,0.0,0.0,0.0,0.0,0.0,0.0,0.0,0.0,0.0,0.0,0.0,0.0,0.0,0.0,0.0,0.0,-6.4016,-6.42,-6.4934,-6.4567,-6.4016,-6.4016,-6.3392,0.0,-6.278,-6.3539,-6.442,-6.5154,-6.5999,-6.6843,-6.765,-6.9082,-7.011,-7.0183,-7.1615,-7.323,-7.4735,-7.6319,-7.7273,-7.7273,-7.7273,-7.7273,-7.7273,-7.7273,-7.7273,-7.7273,-7.7273,-7.7273,-7.7273,-7.7273,-7.7273,-7.7273,-7.7273,-7.7273,-7.7273,-7.7273,-7.7273,-7.7273,-7.7273,-7.7273,-7.7273,-7.7273,-7.7273,-7.7273,-7.7273,-7.7273,-7.7273,-7.7273,-7.7273,-7.7273,-7.7273,-7.7273,-7.7273,0.0,0.0,0.0,0.0,0.0,0.0,0.0,0.0,0.0,0.0,-6.7687,-6.7687,-6.7687,-6.7687,-6.7687,0.0,0.0,0.0,0.0,0.0,0.0,0.0,0.0,0.0,-6.7687,-6.7687,-6.7687,-6.7687,-6.7687,-6.7687,-6.7687,-6.7687,-6.7687,-6.7687,-6.7687,-6.7687,-6.7687,-6.7687,-6.7577,-6.7393,-6.7393,-6.6953,0.0,0.0,0.0,0.0,-6.5007,-6.4897,0.0,0.0,0.0,0.0,0.0,0.0,0.0,0.0,-6.278,-6.2842,-6.3062,0.0,-6.3172,-6.3356,-6.3246,-6.3099,0.0,-6.2952,-6.278,-6.278,-6.398,-6.5081,-6.5264,-6.6476,-6.7687,-6.8495,-6.9449,-7.0293,-7.0954,-7.2936,-7.4478,-7.4882,-7.6319,-7.7273,-7.7273,-7.7273,-7.7273,-7.7273,-7.7273,-7.7273,-7.7273,-7.7273,-7.7273,-7.7273,-7.7273,-7.7273,-7.7273,-7.7273,-7.7273,-7.7273,-7.7273,-7.7273,-7.7273,-7.7273,-7.7273,-7.7273,-7.7273,-7.7273,-7.7273,-7.7273,-7.7273,-7.7273,-7.7273,-7.7273,-7.7273,-7.7273,-7.7273,-7.7273,0.0,0.0,0.0,0.0,0.0,0.0,0.0,0.0,0.0,0.0,0.0,-6.7687,-6.7687,-6.7687,0.0,0.0,0.0,0.0,0.0,0.0,0.0,0.0,0.0,-6.7687,-6.7687,-6.7687,-6.7687,-6.7687,-6.7687,-6.7687,-6.7687,-6.7687,-6.7687,-6.7687,-6.7687,-6.7687,-6.7687,-6.7687,-6.7687,-6.7687,-6.7687,0.0,0.0,0.0,0.0,0.0,-6.5852,-6.5632,0.0,-6.5301,-6.5007,-6.464,0.0,0.0,0.0,0.0,-6.3686,-6.3392,-6.3392,-6.3099,-6.278,-6.278,-6.278,-6.278,-6.278,-6.278,-6.2915,-6.3319,-6.442,-6.5411,-6.5778,-6.6843,-6.7944,-6.8788,-6.9596,-7.0624,-7.2202,-7.3854,-7.5065,-7.5432,-7.654,-7.7273,-7.7273,-7.7273,-7.7273,-7.7273,-7.7273,-7.7273,-7.7273,-7.7273,-7.7273,-7.7273,-7.7273,-7.7273,-7.7273,-7.7273,-7.7273,-7.7273,-7.7273,-7.7273,-7.7273,-7.7273,-7.7273,-7.7273,-7.7273,-7.7273,-7.7273,-7.7273,-7.7273,-7.7273,-7.7273,-7.7273,-7.7273,-7.7273,-7.7273,-7.7273,0.0,0.0,0.0,0.0,0.0,0.0,0.0,0.0,0.0,0.0,0.0,0.0,0.0,0.0,0.0,0.0,0.0,0.0,0.0,0.0,0.0,0.0,-6.7687,-6.7687,-6.7687,-6.7687,-6.7687,-6.7687,-6.7687,-6.7687,-6.7687,-6.7687,-6.7687,-6.7687,-6.7687,-6.7687,-6.7687,-6.7687,-6.7687,-6.7687,-6.7687,0.0,0.0,0.0,0.0,0.0,0.0,0.0,0.0,-6.5668,-6.5595,-6.5485,-6.5485,0.0,0.0,0.0,0.0,0.0,-6.4127,-6.3576,-6.2989,-6.2817,-6.278,-6.278,-6.278,-6.278,-6.3062,-6.3906,-6.4751,-6.5558,-6.6366,-6.7247,-6.8128,-6.8972,-6.9853,-7.1211,-7.3377,-7.4404,-7.5212,-7.6019,-7.6827,-7.7273,-7.7273,-7.7273,-7.7273,-7.7273,-7.7273,-7.7273,-7.7273,-7.7273,-7.7273,-7.7273,-7.7273,-7.7273,-7.7273,-7.7273,-7.7273,-7.7273,-7.7273,-7.7273,-7.7273,-7.7273,-7.7273,-7.7273,-7.7273,-7.7273,-7.7273,-7.7273,-7.7273,-7.7273,-7.7273,-7.7273,-7.7273,-7.7273,-7.7273,-7.7273,0.0,0.0,0.0,0.0,0.0,0.0,0.0,0.0,0.0,0.0,0.0,0.0,0.0,0.0,0.0,0.0,0.0,0.0,0.0,0.0,0.0,-6.7687,-6.7687,-6.7687,-6.7687,-6.7687,-6.7687,-6.7687,-6.7687,-6.7687,-6.7687,-6.7687,-6.7687,-6.7687,-6.7687,-6.7687,-6.7687,-6.7687,-6.7687,-6.7687,-6.7687,0.0,0.0,0.0,0.0,0.0,0.0,0.0,0.0,-6.732,-6.688,-6.6329,-6.6329,0.0,0.0,0.0,0.0,0.0,-6.4273,-6.398,-6.3723,-6.2989,-6.278,-6.278,-6.278,-6.278,-6.3062,-6.3906,-6.4751,-6.5558,-6.6366,-6.7724,-6.8972,-6.9779,-7.1174,-7.2496,-7.356,-7.4404,-7.5212,-7.6019,-7.6827,-7.7273,-7.7273,-7.7273,-7.7273,-7.7273,-7.7273,-7.7273,-7.7273,-7.7273,-7.7273,-7.7273,-7.7273,-7.7273,-7.7273,-7.7273,-7.7273,-7.7273,-7.7273,-7.7273,-7.7273,-7.7273,-7.7273,-7.7273,-7.7273,-7.7273,-7.7273,-7.7273,-7.7273,-7.7273,-7.7273,-7.7273,-7.7273,-7.7273,-7.7273,-7.7273,0.0,0.0,0.0,0.0,0.0,0.0,0.0,0.0,0.0,0.0,0.0,0.0,0.0,0.0,0.0,0.0,0.0,0.0,0.0,0.0,-6.7687,-6.7687,-6.7687,-6.7687,-6.7687,-6.7687,-6.7687,-6.7687,-6.7687,-6.7687,-6.7687,-6.7687,-6.7687,-6.7687,-6.7687,-6.7687,-6.7687,-6.7687,-6.7687,-6.7687,0.0,0.0,0.0,0.0,0.0,0.0,0.0,0.0,0.0,0.0,-6.743,-6.7136,-6.7136,0.0,0.0,0.0,0.0,0.0,-6.4971,-6.442,-6.398,-6.3613,-6.3172,-6.278,-6.278,-6.3172,-6.3723,-6.4567,-6.5411,-6.6329,-6.7577,-6.8421,-6.9302,-7.055,-7.1725,-7.2936,-7.4184,-7.4661,-7.5359,-7.6607,-7.7053,-7.7273,-7.7273,-7.7273,-7.7273,-7.7273,-7.7273,-7.7273,-7.7273,-7.7273,-7.7273,-7.7273,-7.7273,-7.7273,-7.7273,-7.7273,-7.7273,-7.7273,-7.7273,-7.7273,-7.7273,-7.7273,-7.7273,-7.7273,-7.7273,-7.7273,-7.7273,-7.7273,-7.7273,-7.7273,-7.7273,-7.7273,-7.7273,-7.7273,-7.7273,-7.7273,0.0,0.0,0.0,0.0,0.0,0.0,0.0,0.0,0.0,0.0,0.0,0.0,0.0,0.0,0.0,0.0,0.0,0.0,0.0,-6.7687,-6.7687,-6.7687,-6.7687,-6.7687,-6.7687,-6.7687,-6.7687,-6.7687,-6.7687,-6.7687,-6.7687,-6.7687,-6.7687,-6.7687,-6.7687,-6.7687,-6.7687,-6.7687,-6.7687,-6.7687,0.0,0.0,0.0,0.0,0.0,0.0,0.0,0.0,0.0,0.0,0.0,0.0,0.0,0.0,0.0,-6.7687,-6.7247,-6.6549,-6.5595,-6.4861,-6.4273,-6.387,-6.3466,-6.3172,-6.3356,-6.3906,-6.4604,-6.5411,-6.6219,-6.721,-6.8641,-6.9229,-6.9926,-7.1358,-7.2275,-7.3266,-7.4698,-7.5065,-7.5726,-7.7127,-7.7273,-7.7273,-7.7273,-7.7273,-7.7273,-7.7273,-7.7273,-7.7273,-7.7273,-7.7273,-7.7273,-7.7273,-7.7273,-7.7273,-7.7273,-7.7273,-7.7273,-7.7273,-7.7273,-7.7273,-7.7273,-7.7273,-7.7273,-7.7273,-7.7273,-7.7273,-7.7273,-7.7273,-7.7273,-7.7273,-7.7273,-7.7273,-7.7273,-7.7273,-7.7273,-7.7273,0.0,0.0,0.0,0.0,0.0,0.0,0.0,0.0,0.0,0.0,0.0,0.0,0.0,0.0,0.0,0.0,0.0,0.0,0.0,-6.7687,-6.7687,-6.7687,-6.7687,-6.7687,-6.7687,-6.7687,-6.7687,-6.7687,-6.7687,-6.7687,-6.7687,-6.7687,-6.7687,-6.7687,-6.7687,-6.7687,-6.7687,-6.7687,-6.7687,-6.7687,-6.7687,0.0,0.0,0.0,0.0,0.0,0.0,0.0,0.0,0.0,0.0,0.0,0.0,0.0,-6.7687,-6.7687,-6.765,-6.7283,-6.5742,-6.5264,-6.4861,-6.3282,-6.3466,-6.42,-6.4971,-6.5191,-6.5448,-6.6256,-6.7026,-6.7871,-6.8752,-7.0146,-7.1431,-7.2275,-7.3083,-7.3927,-7.4808,-7.5542,-7.635,-7.72,-7.7273,-7.7273,-7.7273,-7.7273,-7.7273,-7.7273,-7.7273,-7.7273,-7.7273,-7.7273,-7.7273,-7.7273,-7.7273,-7.7273,-7.7273,-7.7273,-7.7273,-7.7273,-7.7273,-7.7273,-7.7273,-7.7273,-7.7273,-7.7273,-7.7273,-7.7273,-7.7273,-7.7273,-7.7273,-7.7273,-7.7273,-7.7273,-7.7273,-7.7273,-7.7273,-7.7273,0.0,0.0,0.0,0.0,0.0,0.0,0.0,0.0,0.0,0.0,0.0,0.0,0.0,0.0,0.0,0.0,0.0,0.0,0.0,-6.7687,-6.7687,-6.7687,-6.7687,-6.7687,-6.7687,-6.7687,-6.7687,-6.7687,-6.7687,-6.7687,-6.7687,-6.7687,-6.7687,-6.7687,-6.7687,-6.7687,-6.7687,-6.7687,-6.7687,-6.7687,-6.7687,-6.7687,0.0,0.0,0.0,0.0,0.0,0.0,0.0,0.0,-6.7687,-6.7687,-6.7687,-6.7687,-6.7687,-6.7687,-6.7687,-6.7357,-6.5742,-6.5668,-6.5778,-6.464,-6.4971,-6.5411,-6.4714,-6.5338,-6.6256,-6.7063,-6.7871,-6.8825,-7.0146,-7.1321,-7.2165,-7.2459,-7.3193,-7.3964,-7.4808,-7.5579,-7.6387,-7.72,-7.7273,-7.7273,-7.7273,-7.7273,-7.7273,-7.7273,-7.7273,-7.7273,-7.7273,-7.7273,-7.7273,-7.7273,-7.7273,-7.7273,-7.7273,-7.7273,-7.7273,-7.7273,-7.7273,-7.7273,-7.7273,-7.7273,-7.7273,-7.7273,-7.7273,-7.7273,-7.7273,-7.7273,-7.7273,-7.7273,-7.7273,-7.7273,-7.7273,-7.7273,-7.7273,-7.7273,0.0,0.0,0.0,0.0,0.0,0.0,0.0,0.0,0.0,0.0,0.0,0.0,0.0,0.0,0.0,0.0,0.0,0.0,-6.8495,-6.8458,-6.8348,-6.8091,-6.8091,-6.7944,-6.7714,-6.7687,-6.7687,-6.7687,-6.7687,-6.7687,-6.7687,-6.7687,-6.7687,-6.7687,-6.7687,-6.7687,-6.7687,-6.7687,-6.7687,-6.7687,-6.7687,-6.7687,0.0,0.0,0.0,0.0,0.0,0.0,0.0,0.0,-6.7687,-6.7687,-6.7687,-6.7687,-6.7687,-6.7687,-6.7687,-6.7393,-6.6035,-6.6072,-6.6329,-6.5521,-6.6109,-6.6586,-6.5485,-6.6072,-6.71,-6.7907,-6.8935,-7.0073,-7.1431,-7.2129,-7.2569,-7.2826,-7.356,-7.4368,-7.5175,-7.5983,-7.668,-7.7237,-7.7273,-7.7273,-7.7273,-7.7273,-7.7273,-7.7273,-7.7273,-7.7273,-7.7273,-7.7273,-7.7273,-7.7273,-7.7273,-7.7273,-7.7273,-7.7273,-7.7273,-7.7273,-7.7273,-7.7273,-7.7273,-7.7273,-7.7273,-7.7273,-7.7273,-7.7273,-7.7273,-7.7273,-7.7273,-7.7273,-7.7273,-7.7273,-7.7273,-7.7273,-7.7273,-7.7273,0.0,0.0,0.0,0.0,0.0,0.0,0.0,0.0,0.0,0.0,0.0,0.0,0.0,0.0,0.0,0.0,0.0,0.0,-7.011,-7.011,-6.9743,-6.8972,-6.8898,-6.8531,-6.7724,-6.7687,-6.7687,-6.7687,-6.7687,-6.7687,-6.7687,-6.7687,-6.7687,-6.7687,-6.7687,-6.7687,-6.7687,-6.7687,-6.7687,-6.7687,-6.7687,-6.7687,-6.7687,0.0,0.0,0.0,0.0,0.0,0.0,0.0,-6.7687,-6.7687,-6.7687,-6.7687,-6.7687,-6.7687,-6.7714,-6.7504,-6.6733,-6.6512,-6.6329,-6.5521,-6.6512,-6.7714,-6.7714,-6.7714,-6.7944,-6.8752,-7.0183,-7.1578,-7.2349,-7.2496,-7.2753,-7.356,-7.4368,-7.5175,-7.5983,-7.679,-7.7273,-7.7273,-7.7273,-7.7273,-7.7273,-7.7273,-7.7273,-7.7273,-7.7273,-7.7273,-7.7273,-7.7273,-7.7273,-7.7273,-7.7273,-7.7273,-7.7273,-7.7273,-7.7273,-7.7273,-7.7273,-7.7273,-7.7273,-7.7273,-7.7273,-7.7273,-7.7273,-7.7273,-7.7273,-7.7273,-7.7273,-7.7273,-7.7273,-7.7273,-7.7273,-7.7273,-7.7273,-7.7273,0.0,0.0,0.0,0.0,0.0,0.0,0.0,0.0,0.0,0.0,0.0,0.0,0.0,0.0,0.0,0.0,0.0,0.0,-7.0146,-7.011,-7.0,-6.9743,-6.9192,-6.8788,-6.8568,-6.7981,-6.7687,-6.7687,-6.7687,-6.7687,-6.7687,-6.7687,-6.7687,-6.7687,-6.7687,-6.7687,-6.7687,-6.7687,-6.7687,-6.7687,-6.7687,-6.7687,-6.7687,0.0,0.0,0.0,0.0,0.0,0.0,0.0,0.0,0.0,-6.7687,-6.7687,-6.7687,-6.7687,-6.8091,-6.8238,-6.688,-6.732,-6.7871,-6.6476,-6.7357,-6.8531,-6.8531,-6.8531,-6.8752,-6.9596,-7.1027,-7.2239,-7.2459,-7.2496,-7.2753,-7.356,-7.4368,-7.5175,-7.5983,-7.679,-7.7273,-7.7273,-7.7273,-7.7273,-7.7273,-7.7273,-7.7273,-7.7273,-7.7273,-7.7273,-7.7273,-7.7273,-7.7273,-7.7273,-7.7273,-7.7273,-7.7273,-7.7273,-7.7273,-7.7273,-7.7273,-7.7273,-7.7273,-7.7273,-7.7273,-7.7273,-7.7273,-7.7273,-7.7273,-7.7273,-7.7273,-7.7273,-7.7273,-7.7273,-7.7273,-7.7273,-7.7273,-7.7273,0.0,0.0,0.0,0.0,0.0,0.0,0.0,0.0,0.0,0.0,-7.2496,-7.2496,0.0,0.0,0.0,0.0,0.0,0.0,-7.1101,-7.1064,-7.0917,-7.0587,-7.011,-6.9559,-6.8935,-6.8421,-6.8017,-6.7687,-6.7687,-6.7687,-6.7687,-6.7687,-6.7687,-6.7687,-6.7687,-6.7687,-6.7687,-6.7687,-6.7687,-6.7687,-6.7687,-6.7687,-6.7687,0.0,0.0,0.0,0.0,0.0,0.0,0.0,0.0,0.0,-6.7687,-6.7687,-6.7687,-6.7687,-6.8274,-6.8678,-6.7724,-6.8164,-6.8752,-6.8091,-6.8641,-6.9449,-6.9779,-6.9853,-7.0,-7.0477,-7.1615,-7.2496,-7.2496,-7.2753,-7.323,-7.4037,-7.4845,-7.5652,-7.646,-7.698,-7.7273,-7.7273,-7.7273,-7.7273,-7.7273,-7.7273,-7.7273,-7.7273,-7.7273,-7.7273,-7.7273,-7.7273,-7.7273,-7.7273,-7.7273,-7.7273,-7.7273,-7.7273,-7.7273,-7.7273,-7.7273,-7.7457,-7.7818,-7.7457,-7.7273,-7.731,-7.7671,-7.8002,-7.8295,-7.8295,-7.8295,-7.8295,-7.8295,-7.8295,-7.8295,-7.8295,-7.8295,-7.8295,0.0,0.0,0.0,0.0,0.0,0.0,0.0,0.0,0.0,0.0,-7.2496,-7.2496,0.0,0.0,0.0,0.0,0.0,0.0,0.0,-7.2496,-7.2165,-7.1439,-7.1329,-7.0587,-6.9045,-6.8935,-6.8531,-6.7797,-6.7751,-6.7687,-6.7687,-6.7687,-6.7687,-6.7687,-6.7687,-6.7687,-6.7687,-6.7687,-6.7687,-6.7687,-6.7687,-6.7687,-6.7687,-6.7687,0.0,0.0,0.0,0.0,0.0,0.0,0.0,0.0,-6.7687,-6.7687,-6.7687,-6.7687,-6.8274,-6.8898,-6.8898,-6.8972,-6.9192,-6.9926,-7.0146,-7.0403,-7.1248,-7.1403,-7.1366,-7.1293,-7.1945,-7.2532,-7.2606,-7.3193,-7.4001,-7.4882,-7.5616,-7.6387,-7.7163,-7.7273,-7.7273,-7.7273,-7.7273,-7.7273,-7.7273,-7.7273,-7.7273,-7.7273,-7.7273,-7.7273,-7.7273,-7.7273,-7.7273,-7.7273,-7.7273,-7.7273,-7.7273,-7.7273,-7.7347,-7.742,-7.742,-7.7892,-7.8662,-7.7818,-7.7457,-7.7567,-7.8369,-7.9103,-7.98,-7.98,-7.98,-7.98,-7.98,-7.98,-7.98,-7.98,-7.98,-7.98,0.0,0.0,0.0,0.0,0.0,0.0,0.0,0.0,0.0,0.0,0.0,0.0,0.0,0.0,0.0,0.0,0.0,0.0,0.0,-7.2496,-7.2422,-7.2275,-7.1651,-7.0844,-6.9853,-6.9229,-6.8825,-6.8641,-6.8017,-6.7687,-6.7687,-6.7687,-6.7687,-6.7687,-6.7687,-6.7687,-6.7687,-6.7687,-6.7687,-6.7687,-6.7687,-6.7687,-6.7687,-6.7687,-6.7687,0.0,0.0,0.0,0.0,0.0,0.0,0.0,-6.7687,-6.7687,-6.7687,-6.7687,-6.8274,-6.8898,-6.8898,-6.9376,-6.9889,-7.0073,-7.0587,-7.1248,-7.2055,-7.2239,-7.2055,-7.1431,-7.1945,-7.2679,-7.334,-7.356,-7.4147,-7.5616,-7.5983,-7.6387,-7.7163,-7.7273,-7.7273,-7.7273,-7.7273,-7.7273,-7.7273,-7.7273,-7.7273,-7.7273,-7.7273,-7.7273,-7.7273,-7.7273,-7.7273,-7.7273,-7.7273,-7.7273,-7.7273,-7.7273,-7.764,-7.8332,-7.8332,-7.8736,-7.9507,-7.8699,-7.8662,-7.925,-7.9433,-7.9617,-7.98,-7.98,-7.98,-7.98,-7.98,-7.98,-7.98,-7.98,-7.98,-7.98,0.0,0.0,0.0,0.0,0.0,0.0,0.0,0.0,0.0,0.0,0.0,0.0,0.0,0.0,0.0,0.0,0.0,0.0,0.0,0.0,-7.2496,-7.2496,-7.2092,-7.1505,-7.0697,-7.0257,-6.9669,-6.8898,-6.8495,-6.8091,-6.7687,-6.7687,-6.7687,-6.7687,-6.7687,-6.7687,-6.7687,-6.7687,-6.7687,-6.7687,-6.7687,-6.7687,-6.7687,-6.7687,-6.7687,-6.7687,-6.7687,0.0,0.0,0.0,0.0,0.0,0.0,0.0,-6.7687,-6.7687,-6.8274,-6.8972,-6.9376,-6.9779,-7.0183,-7.0587,-7.1284,-7.1982,-7.2422,-7.2496,-7.2496,-7.2459,-7.2789,-7.3193,-7.3597,-7.4331,-7.5102,-7.5946,-7.6423,-7.6827,-7.7237,-7.7273,-7.7273,-7.7273,-7.7273,-7.7273,-7.7273,-7.7273,-7.7273,-7.7273,-7.7273,-7.7273,-7.7273,-7.7273,-7.7273,-7.7273,-7.7273,-7.7273,-7.7273,-7.7708,-7.8148,-7.8589,-7.8993,-7.958,-8.0351,-7.9543,-7.9617,-8.0351,-8.0351,-8.0571,-8.0938,-8.0938,-8.0938,-8.0938,-8.0938,-8.0938,-8.0938,-8.0938,-8.0938,-8.0938,0.0,0.0,0.0,0.0,0.0,0.0,0.0,0.0,0.0,0.0,0.0,0.0,0.0,0.0,0.0,0.0,0.0,0.0,0.0,0.0,0.0,-7.2496,-7.2496,-7.2202,-7.1541,-7.1394,-7.0632,-6.9339,-6.9045,-6.8568,-6.7907,-6.776,-6.7687,-6.7687,-6.7687,-6.7687,-6.7687,-6.7687,-6.7687,-6.7687,-6.7687,-6.7687,-6.7687,-6.7687,-6.7687,-6.7687,-6.7687,-6.7687,-6.7687,-6.7687,0.0,0.0,0.0,0.0,-6.7687,-6.7687,-6.8164,-6.8862,-6.9669,-7.011,-7.0513,-7.1321,-7.2018,-7.2496,-7.2496,-7.2606,-7.2899,-7.356,-7.3707,-7.378,-7.4037,-7.5212,-7.6166,-7.6276,-7.69,-7.7273,-7.7273,-7.7273,-7.7273,-7.7273,-7.7273,-7.7273,-7.7273,-7.7273,-7.7273,-7.7273,-7.7273,-7.7273,-7.7273,-7.7273,-7.7273,-7.7273,-7.7273,-7.7273,-7.7273,-7.8185,-7.8662,-7.8809,-7.9764,-8.0571,-8.1195,-8.0498,-8.0571,-8.1232,-8.1232,-8.1562,-8.2186,-8.2186,-8.2186,-8.2186,-8.2186,-8.2186,-8.2186,-8.2186,-8.2186,-8.2186,0.0,0.0,0.0,0.0,0.0,0.0,0.0,0.0,0.0,0.0,-7.2496,-7.2496,0.0,0.0,0.0,0.0,0.0,0.0,0.0,0.0,0.0,-7.2496,-7.2496,-7.2459,-7.2349,-7.1688,-7.1183,-7.0962,-6.9596,-6.8862,-6.8715,-6.8017,-6.7687,-6.7687,-6.7687,-6.7687,-6.7687,-6.7687,-6.7687,-6.7687,-6.7687,-6.7687,-6.7687,-6.7687,-6.7687,-6.7687,-6.7687,-6.7687,-6.7687,-6.7687,-6.7687,0.0,0.0,0.0,-6.7687,-6.7687,-6.776,-6.8017,-6.8825,-7.0073,-7.1358,-7.2165,-7.2422,-7.2496,-7.2496,-7.3046,-7.356,-7.367,-7.3707,-7.4111,-7.5506,-7.5946,-7.635,-7.7017,-7.7237,-7.7273,-7.7273,-7.7273,-7.7273,-7.7273,-7.7273,-7.7273,-7.7273,-7.7273,-7.7273,-7.7273,-7.7273,-7.7273,-7.7273,-7.7273,-7.7273,-7.7273,-7.7273,-7.7273,-7.7273,-7.8185,-7.8956,-7.9653,-8.1158,-8.1929,-8.2039,-8.1929,-8.1929,-8.2039,-8.2039,-8.2113,-8.2186,-8.2186,-8.2186,-8.2186,-8.2186,-8.2186,-8.2186,-8.2186,-8.2186,-8.2186,0.0,0.0,0.0,0.0,0.0,0.0,0.0,0.0,0.0,0.0,0.0,-7.2496,0.0,0.0,0.0,0.0,0.0,0.0,0.0,0.0,0.0,-7.2496,-7.2496,-7.2496,-7.2496,-7.2165,-7.1762,-7.1293,-7.0587,-7.0036,-6.9559,-6.8752,-6.8128,-6.7687,-6.7687,-6.7687,-6.7687,-6.7687,-6.7687,-6.7687,-6.7687,-6.7687,-6.7687,-6.7687,-6.7687,-6.7687,-6.7687,-6.7687,-6.7687,-6.7687,-6.7687,-6.7687,-6.7687,0.0,0.0,0.0,-6.7687,-6.7871,-6.8678,-7.0073,-7.1366,-7.1762,-7.2165,-7.2496,-7.2496,-7.312,-7.3817,-7.4294,-7.4735,-7.5249,-7.5983,-7.646,-7.69,-7.7237,-7.7273,-7.7273,-7.7273,-7.7273,-7.7273,-7.7273,-7.7273,-7.7273,-7.7273,-7.7273,-7.7273,-7.7273,-7.7273,-7.7273,-7.7273,-7.7273,-7.7273,-7.7273,-7.7273,-7.753,-7.8038,-7.8846,-7.9874,-8.1158,-8.1856,-8.2186,-8.2186,-8.2186,-8.2186,-8.2186,-8.2186,-8.2186,-8.2186,-8.2186,-8.2186,-8.2186,-8.2186,-8.2186,-8.2186,-8.2186,-8.2186,-8.2186,0.0,0.0,0.0,0.0,0.0,0.0,0.0,0.0,0.0,0.0,0.0,0.0,0.0,0.0,0.0,0.0,0.0,0.0,0.0,0.0,0.0,-7.2496,-7.2496,-7.2496,-7.2496,-7.2496,-7.2202,-7.1615,-7.1431,-7.0991,-7.0403,-6.9596,-6.8862,-6.8274,-6.7871,-6.7687,-6.7687,-6.7687,-6.7687,-6.7687,-6.7687,-6.7687,-6.7687,-6.7687,-6.7687,-6.7687,-6.7687,-6.7687,-6.7687,-6.7687,-6.7687,-6.7687,-6.7687,-6.7687,0.0,0.0,0.0,-6.7871,-6.8678,-6.9779,-7.0779,-7.1183,-7.1762,-7.2275,-7.2459,-7.3266,-7.4184,-7.4808,-7.5726,-7.6423,-7.6423,-7.69,-7.7273,-7.7273,-7.7273,-7.7273,-7.7273,-7.7273,-7.7273,-7.7273,-7.7273,-7.7273,-7.7273,-7.7273,-7.7273,-7.7273,-7.7273,-7.7273,-7.7273,-7.7273,-7.7273,-7.7273,-7.7273,-7.7745,-7.8589,-7.958,-8.0791,-8.2186,-8.2186,-8.2186,-8.2186,-8.2186,-8.2186,-8.2186,-8.2186,-8.2186,-8.2186,-8.2186,-8.2186,-8.2186,-8.2186,-8.2186,-8.2186,-8.2186,-8.2186,-8.2186,0.0,0.0,0.0,0.0,0.0,0.0,0.0,0.0,0.0,0.0,0.0,0.0,-7.2496,-7.2496,-7.2496,-7.2496,-7.2496,0.0,0.0,0.0,0.0,-7.2496,-7.2496,0.0,-7.2496,-7.2496,-7.2496,-7.2459,-7.1688,-7.1256,-7.1219,-7.0403,-7.0,-6.9889,-6.8385,-6.7687,-6.7687,-6.7687,-6.7687,-6.7687,-6.7687,-6.7687,-6.7687,-6.7687,-6.7687,-6.7687,-6.7687,-6.7687,-6.7687,-6.7687,-6.7687,-6.7687,-6.7687,-6.7687,-6.7687,0.0,0.0,0.0,-6.8678,-6.8972,-6.9412,-7.0889,-7.1329,-7.155,-7.2349,-7.3707,-7.4845,-7.4918,-7.6136,-7.7237,-7.7237,-7.7273,-7.7273,-7.7273,-7.7273,-7.7273,-7.7273,-7.7273,-7.7273,-7.7273,-7.7273,-7.7273,-7.7273,-7.7273,-7.7273,-7.7273,-7.7273,-7.7273,-7.7273,-7.7273,-7.7273,-7.7273,-7.7273,-7.7745,-7.8589,-8.0167,-8.1379,-8.2186,-8.2186,-8.2186,-8.2186,-8.2186,-8.2186,-8.2186,-8.2186,-8.2186,-8.2186,-8.2186,-8.2186,-8.2186,-8.2186,-8.2186,-8.2186,-8.2186,-8.2186,-8.2186,0.0,0.0,0.0,0.0,0.0,0.0,0.0,0.0,0.0,0.0,0.0,0.0,0.0,-7.2496,-7.2496,-7.2496,-7.2496,0.0,0.0,0.0,0.0,-7.2496,-7.2496,-7.2496,-7.2496,-7.2496,-7.2496,-7.2496,-7.2202,-7.2092,-7.2055,-7.1248,-7.0881,-7.0807,-6.9192,-6.8458,-6.8458,-6.7907,-6.7687,-6.7687,-6.7687,-6.7687,-6.7687,-6.7687,-6.7687,-6.776,-6.8274,-6.8458,-6.8568,-6.9082,-6.8898,-6.8458,-6.8458,-6.8128,-6.7687,-6.7687,-6.7687,-6.776,-6.8054,-6.8495,-6.9045,-6.9633,-7.055,-7.1366,-7.1688,-7.3377,-7.4918,-7.4918,-7.6173,-7.7273,-7.7273,-7.7273,-7.7273,-7.7273,-7.7273,-7.7273,-7.7273,-7.7273,-7.7273,-7.7273,-7.7273,-7.7273,-7.7273,-7.7273,-7.7273,-7.7273,-7.7273,-7.7273,-7.7273,-7.7273,-7.7273,-7.7273,-7.7273,-7.7965,-7.936,-8.0975,-8.1893,-8.2186,-8.2186,-8.2186,-8.2186,-8.2186,-8.2186,-8.2186,-8.2186,-8.2186,-8.2186,-8.2186,-8.2186,-8.2186,-8.2186,-8.2186,-8.2186,-8.2186,-8.2186,-8.2121,0.0,0.0,0.0,0.0,0.0,0.0,0.0,0.0,-7.2496,-7.2496,0.0,0.0,0.0,0.0,-7.2496,-7.2496,-7.2496,-7.2496,-7.2496,-7.2496,-7.2496,-7.2496,-7.2496,-7.2496,-7.2496,-7.2239,-7.2239,-7.2496,-7.2239,-7.2239,-7.2496,-7.1945,-7.1725,-7.1651,-7.0293,-6.9559,-6.9265,-6.8715,-6.8495,-6.8495,-6.8495,-6.8495,-6.8495,-6.8495,-6.8495,-6.8568,-6.9119,-6.9302,-6.9376,-6.9926,-6.9559,-6.8898,-6.8898,-6.8348,-6.7687,-6.7687,-6.7687,-6.7687,-6.7687,-6.8091,-6.8641,-6.9155,-7.011,-7.1064,-7.1578,-7.3377,-7.4918,-7.4918,-7.6173,-7.7273,-7.7273,-7.7273,-7.7273,-7.7273,-7.7273,-7.7273,-7.7273,-7.7273,-7.7273,-7.7273,-7.7273,-7.7273,-7.7273,-7.7273,-7.7273,-7.7273,-7.7273,-7.7273,-7.7273,-7.7273,-7.742,-7.7745,-7.8002,-7.8809,-8.0167,-8.1525,-8.2186,-8.2186,-8.2186,-8.2186,-8.2186,-8.2186,-8.2186,-8.2186,-8.2186,-8.2186,-8.2186,-8.2186,-8.2186,-8.2186,-8.2186,-8.2186,-8.2154,-8.1885,-8.1748,-8.1647,0.0,0.0,0.0,0.0,0.0,0.0,0.0,0.0,-7.2496,-7.2496,0.0,0.0,0.0,0.0,0.0,-7.2496,-7.2496,-7.2496,-7.2496,-7.2496,-7.2496,-7.2496,0.0,0.0,-7.2496,-7.1725,-7.1725,-7.2496,-7.1725,-7.1725,-7.2496,-7.2496,-7.2496,-7.2459,-7.1688,-7.0917,-7.0183,-7.011,-7.011,-7.011,-7.011,-7.0146,-7.0146,-7.0146,-7.0183,-7.0183,-7.0183,-7.022,-7.022,-7.022,-6.9706,-6.9009,-6.8935,-6.8348,-6.7724,-6.7714,-6.7687,-6.7687,0.0,0.0,0.0,-6.9669,-7.011,-7.055,-7.2129,-7.3707,-7.4882,-7.4918,-7.6136,-7.7273,-7.7273,-7.7273,-7.7273,-7.7273,-7.7273,-7.7273,-7.7273,-7.7273,-7.7273,-7.7273,-7.7273,-7.7273,-7.7273,-7.7273,-7.7273,-7.7273,-7.7273,-7.7273,-7.7273,-7.7273,-7.7708,-7.8552,-7.936,-8.0167,-8.1012,-8.1782,-8.2186,-8.2186,-8.2186,-8.2186,-8.2186,-8.2186,-8.2186,-8.2186,-8.2186,-8.2186,-8.2186,-8.2186,-8.2186,-8.2186,-8.2186,-8.2186,-8.2121,-8.123,-8.0911,-8.0804,0.0,0.0,0.0,0.0,0.0,-7.2496,-7.2496,-7.2496,-7.2496,0.0,0.0,0.0,-7.2496,-7.2496,-7.2496,-7.2496,-7.2496,-7.2496,-7.2496,-7.2496,-7.2496,-7.2496,-7.2496,-7.2496,-7.2496,-7.2275,-7.2275,-7.2496,-7.2275,-7.2275,-7.2496,-7.2496,-7.2496,-7.2496,-7.2275,-7.2055,-7.1762,-7.0587,-7.011,-7.0146,-7.0734,-7.0991,-7.1027,-7.1615,-7.1835,-7.1908,-7.2496,-7.2679,-7.2789,-7.3377,-7.2642,-7.1211,-6.9449,-6.8752,-6.8458,-6.7871,-6.7687,-6.7687,-6.7687,0.0,0.0,0.0,0.0,0.0,-7.1541,-7.2899,-7.4184,-7.4808,-7.5726,-7.6607,-7.7163,-7.7273,-7.7273,-7.7273,-7.7273,-7.7273,-7.7273,-7.7273,-7.7273,-7.7273,-7.7273,-7.7273,-7.7273,-7.7273,-7.7273,-7.7273,-7.7273,-7.7273,-7.7273,-7.7273,-7.7708,-7.8552,-7.936,-8.0167,-8.1012,-8.1782,-8.2186,-8.2186,-8.2186,-8.2186,-8.2186,-8.2186,-8.2186,-8.2186,-8.2186,-8.2186,-8.2186,-8.2186,-8.2186,-8.2186,-8.2186,-8.2186,-8.2121,-8.123,-8.0911,-8.0732,0.0,0.0,0.0,0.0,0.0,-7.3523,-7.3523,-7.3523,-7.3523,0.0,0.0,0.0,-7.3523,-7.3193,-7.301,-7.301,-7.2679,-7.2496,-7.2496,-7.2496,-7.2496,-7.2496,-7.2496,-7.2496,-7.2496,-7.2165,-7.2165,-7.2496,-7.2165,-7.2165,-7.2496,-7.2496,-7.2496,-7.2496,-7.2496,-7.2496,-7.2459,-7.1505,-7.1284,-7.1615,-7.1762,-7.2018,-7.2349,-7.2826,-7.301,-7.312,-7.3927,-7.4184,-7.4258,-7.4735,-7.4037,-7.2569,-7.0146,-6.9633,-6.9743,-6.8935,-6.8678,-6.8678,-6.8678,-6.9045,-6.9486,-6.9816,0.0,0.0,-7.1725,-7.2789,-7.3927,-7.4735,-7.5285,-7.5873,-7.6644,-7.6533,-7.6393,-7.6754,-7.6827,-7.6937,-7.7237,-7.7273,-7.7273,-7.7273,-7.7273,-7.7273,-7.7273,-7.7273,-7.7273,-7.7273,-7.7273,-7.7273,-7.7273,-7.7273,-7.7855,-7.9066,-7.9543,-8.0351,-8.1489,-8.1966,-8.2186,-8.2186,-8.2186,-8.2186,-8.2186,-8.2186,-8.2186,-8.2186,-8.2186,-8.2186,-8.2186,-8.2186,-8.1985,-8.1681,-8.1681,-8.1439,-8.1054,-8.0216,-7.9878,-7.9685,0.0,0.0,-7.4918,-7.4918,-7.4918,-7.4918,-7.4918,-7.4918,-7.4918,0.0,-7.4918,-7.4918,-7.4918,-7.4258,-7.3817,-7.3817,-7.3083,-7.2642,-7.2642,-7.2569,-7.2496,-7.2496,-7.2496,-7.2496,-7.2496,-7.1798,-7.1798,-7.2496,-7.1798,-7.1798,-7.2496,-7.2496,-7.2496,-7.2496,-7.2496,-7.2496,-7.2496,-7.2496,-7.2973,-7.3634,-7.301,-7.3266,-7.3964,-7.4074,-7.4111,-7.4184,-7.4918,-7.5175,-7.5139,-7.4955,-7.4478,-7.356,-7.1138,-7.0881,-7.1284,-7.0477,-7.0183,-7.011,-7.011,-7.0183,-7.0403,-7.1109,-7.1394,0.0,-7.2349,-7.3046,-7.378,-7.4625,-7.4771,-7.5028,-7.5836,-7.5395,-7.5139,-7.5836,-7.6056,-7.6387,-7.7163,-7.7273,-7.7273,-7.7273,-7.7273,-7.7273,-7.7273,-7.7273,-7.7273,-7.7273,-7.7273,-7.7273,-7.7273,-7.7273,-7.8075,-7.9727,-7.98,-8.0571,-8.2186,-8.2186,-8.2186,-8.2186,-8.2186,-8.2186,-8.2186,-8.2186,-8.2186,-8.2186,-8.2186,-8.2186,-8.2186,-8.2121,-8.1681,-8.1018,-8.0947,-8.044,-7.976,-7.8922,-7.8587,-7.8378,0.0,-7.4808,-7.4918,-7.4918,-7.4918,-7.4918,-7.4918,-7.4918,-7.4918,-7.4918,-7.4918,-7.4918,-7.4918,-7.4771,-7.4661,-7.4661,-7.3927,-7.345,-7.345,-7.2863,-7.2496,-7.2496,-7.2496,-7.2496,-7.2496,-7.2349,-7.2349,-7.2496,-7.2349,-7.2349,-7.2496,-7.2496,-7.2496,-7.2496,-7.2496,-7.2496,-7.2496,-7.2496,-7.2973,-7.3744,-7.4221,-7.4918,-7.5689,-7.635,-7.6576,-7.6613,-7.676,-7.6833,-7.6613,-7.5359,-7.5249,-7.5212,-7.2789,-7.2129,-7.2129,-7.1321,-7.0624,-7.011,-7.011,-7.0587,-7.1101,-7.1284,-7.1798,0.0,-7.2459,-7.2606,-7.2973,-7.378,-7.3927,-7.4184,-7.4992,-7.5028,-7.4955,-7.5139,-7.5689,-7.6387,-7.7163,-7.7273,-7.7273,-7.7273,-7.7273,-7.7273,-7.7273,-7.7273,-7.7273,-7.7273,-7.7273,-7.7273,-7.7273,-7.7273,-7.8075,-7.9727,-7.98,-8.0571,-8.2186,-8.2186,-8.2186,-8.2186,-8.2186,-8.2186,-8.2186,-8.2186,-8.2186,-8.2186,-8.2186,-8.2186,-8.2154,-8.1439,-8.1474,-8.1885,-8.1195,-8.0804,-8.055,-7.9762,-7.9084,-7.8462,-7.5506,-7.5836,-7.6099,-7.6099,-7.6099,-7.6099,-7.6099,-7.6099,-7.6099,-7.6099,-7.6099,-7.6099,-7.6099,-7.5763,-7.5506,-7.5506,-7.4771,-7.4147,-7.3707,-7.3303,-7.2936,-7.2532,-7.2496,-7.2496,-7.2496,-7.2496,-7.2496,-7.2496,-7.2496,-7.2496,-7.2496,-7.2496,-7.2496,-7.2496,-7.2496,-7.2496,-7.2532,-7.2936,-7.356,-7.4294,-7.4294,-7.4771,-7.5579,-7.6423,-7.6717,-7.6754,-7.7163,-7.7273,-7.7127,-7.5909,-7.6056,-7.635,-7.4331,-7.3707,-7.356,-7.2753,-7.1945,-7.1284,-7.1284,-7.1578,-7.1908,-7.1908,-7.2202,0.0,0.0,-7.2496,-7.2716,-7.3523,-7.3046,-7.2863,-7.4074,-7.367,-7.3377,-7.4184,-7.4625,-7.5175,-7.6019,-7.6796,-7.7273,-7.7273,-7.7273,-7.7273,-7.7273,-7.7273,-7.7273,-7.7273,-7.7273,-7.7273,-7.7273,-7.7708,-7.8516,-7.9764,-8.0167,-8.0975,-8.2186,-8.2186,-8.2186,-8.2186,-8.2186,-8.2186,-8.2186,-8.2186,-8.2186,-8.2186,-8.2186,-8.2186,-8.2154,-8.1715,-8.1782,-8.2018,-8.0365,-7.9412,-7.9014,-7.86,-7.8209,-7.7858,-7.635,-7.6864,-7.7273,-7.7273,-7.7273,-7.7273,-7.7273,-7.7273,-7.7273,-7.7273,-7.7273,-7.7273,-7.7273,-7.6717,-7.635,-7.635,-7.5616,-7.4882,-7.4184,-7.3854,-7.3413,-7.2753,-7.2569,-7.2496,-7.2496,-7.2496,-7.2496,-7.2496,-7.2496,-7.2496,-7.2496,-7.2496,-7.2496,-7.2496,-7.2496,-7.2606,-7.2789,-7.3413,-7.4147,-7.4882,-7.4368,-7.4625,-7.5432,-7.6093,-7.635,-7.6423,-7.7053,-7.7273,-7.7163,-7.6387,-7.6644,-7.7053,-7.5616,-7.5139,-7.4992,-7.4331,-7.3597,-7.2973,-7.2973,-7.2863,-7.2716,-7.2716,-7.2606,-7.2496,0.0,0.0,0.0,-7.334,-7.2459,-7.1945,-7.323,-7.2422,-7.1872,-7.2863,-7.3377,-7.3817,-7.4184,-7.5763,-7.6833,-7.6833,-7.6833,-7.6907,-7.7053,-7.72,-7.7273,-7.7273,-7.7273,-7.7273,-7.7273,-7.8148,-7.8956,-7.9764,-8.0571,-8.1379,-8.2186,-8.2186,-8.2186,-8.2186,-8.2186,-8.2186,-8.2186,-8.2186,-8.2186,-8.2186,-8.2186,-8.2186,-8.2186,-8.2018,-8.1952,-8.1748,-7.976,-7.851,-7.791,-7.791,-7.778,-7.7685,-7.7163,-7.7237,-7.7273,-7.7273,-7.7273,-7.7273,-7.7273,-7.7273,-7.7273,-7.7273,-7.7273,-7.7273,-7.7273,-7.72,-7.7163,-7.7163,-7.6423,-7.5909,-7.5836,-7.4478,-7.367,-7.356,-7.2899,-7.2496,-7.2496,-7.2496,-7.2496,-7.2496,-7.2496,-7.2496,-7.2496,-7.2496,-7.2496,-7.2496,-7.2496,-7.2899,-7.356,-7.367,-7.4147,-7.4955,-7.5579,-7.6313,-7.7017,-7.7127,-7.7163,-7.7163,-7.7273,-7.7273,-7.7163,-7.6387,-7.6644,-7.7127,-7.624,-7.5946,-7.5946,-7.5836,-7.5249,-7.4625,-7.4625,-7.4111,-7.356,-7.356,-7.3046,-7.2496,-7.2496,0.0,-7.2532,-7.2606,0.0,-7.2422,-7.2606,0.0,0.0,-7.0697,-7.2312,-7.323,-7.1908,-7.3707,-7.5175,-7.5175,-7.5175,-7.5469,-7.6166,-7.687,-7.7273,-7.7273,-7.7273,-7.7273,-7.7273,-7.8148,-7.8956,-7.9764,-8.0571,-8.1379,-8.2186,-8.2186,-8.2186,-8.2186,-8.2186,-8.2186,-8.2186,-8.2186,-8.2186,-8.2186,-8.2186,-8.2186,-8.2154,-8.137,-8.1053,-8.1018,-8.0732,-8.055,-8.0477,-8.0477,-8.003,-7.9448,-7.7273,-7.7273,-7.7273,-7.7273,-7.7273,-7.7273,-7.7273,-7.7273,-7.7273,-7.7273,-7.7273,-7.7273,-7.7273,-7.7273,-7.7273,-7.7273,-7.698,-7.6607,-7.613,-7.5469,-7.4882,-7.4441,-7.3634,-7.3193,-7.3193,-7.2753,-7.2496,-7.2496,-7.2496,-7.2496,-7.2496,-7.2496,-7.2496,-7.2532,-7.2973,-7.3377,-7.3744,-7.4698,-7.5028,-7.5028,-7.6276,-7.6717,-7.6644,-7.7127,-7.7273,-7.7273,-7.7273,-7.7273,-7.7237,-7.6937,-7.7047,-7.7237,-7.69,-7.6497,-7.6093,-7.6093,-7.5542,-7.4918,-7.4918,-7.4661,-7.4294,-7.3817,-7.345,-7.3083,-7.2606,-7.2496,-7.2496,-7.2496,0.0,0.0,0.0,0.0,0.0,0.0,-7.2349,-7.2789,-7.2092,-7.2863,-7.3854,-7.4808,-7.4918,-7.5212,-7.6019,-7.6423,-7.6827,-7.7237,-7.7273,-7.7273,-7.7273,-7.8589,-7.9433,-7.9764,-8.1012,-8.1856,-8.2186,-8.2186,-8.2186,-8.2186,-8.2186,-8.2186,-8.2186,-8.2186,-8.2186,-8.2186,-8.2186,-8.2186,-8.2154,-8.1782,-8.1681,-8.1576,-8.1088,-8.0587,-8.0143,-7.9682,-7.9289,-7.8922,-7.7273,-7.7273,-7.7273,-7.7273,-7.7273,-7.7273,-7.7273,-7.7273,-7.7273,-7.7273,-7.7273,-7.7273,-7.7273,-7.7273,-7.7273,-7.7273,-7.7273,-7.7053,-7.646,-7.624,-7.5836,-7.5249,-7.4478,-7.3927,-7.3707,-7.312,-7.2716,-7.2496,-7.2496,-7.2496,-7.2496,-7.2496,-7.2496,-7.2532,-7.334,-7.3817,-7.4111,-7.5506,-7.5909,-7.5689,-7.6833,-7.6974,-7.6497,-7.7053,-7.7273,-7.7273,-7.7273,-7.7273,-7.7273,-7.7273,-7.7273,-7.7273,-7.7273,-7.69,-7.6423,-7.6423,-7.6019,-7.5549,-7.5549,-7.5395,-7.5102,-7.4515,-7.4037,-7.356,-7.2973,-7.2826,-7.2826,-7.2826,-7.2349,0.0,0.0,0.0,-7.1688,-7.1835,0.0,-7.2349,-7.1908,-7.2239,-7.2936,-7.4111,-7.4441,-7.4808,-7.5395,-7.5836,-7.635,-7.6937,-7.7163,-7.7273,-7.7273,-7.8883,-7.98,-7.98,-8.1342,-8.2186,-8.2186,-8.2186,-8.2186,-8.2186,-8.2186,-8.2186,-8.2186,-8.2186,-8.2186,-8.2186,-8.2186,-8.2186,-8.2186,-8.2186,-8.2051,-8.1782,-8.116,-8.0403,-7.9643,-7.9009,-7.8841,-7.8718,-7.7273,-7.7273,-7.7273,-7.7273,-7.7273,-7.7273,-7.7273,-7.7273,-7.7273,-7.7273,-7.7273,-7.7273,-7.7273,-7.7273,-7.7273,-7.7273,-7.7273,-7.7273,-7.7237,-7.6533,-7.6093,-7.6056,-7.5285,-7.4515,-7.3707,-7.367,-7.3266,-7.2496,-7.2496,-7.2496,-7.2496,-7.2496,-7.2496,-7.2532,-7.334,-7.4147,-7.4918,-7.5763,-7.6533,-7.7237,-7.7273,-7.7273,-7.7237,-7.7273,-7.7273,-7.7273,-7.7273,-7.7273,-7.7273,-7.7273,-7.7273,-7.7273,-7.7273,-7.7273,-7.7237,-7.7237,-7.7237,-7.72,-7.72,-7.6644,-7.6056,-7.6019,-7.4845,-7.367,-7.367,-7.367,-7.367,-7.367,-7.3634,-7.3634,-7.367,-7.301,-7.1945,0.0,-7.1468,0.0,0.0,-7.1505,-7.2532,-7.2569,-7.3266,-7.3744,-7.378,-7.5175,-7.6093,-7.613,-7.6864,-7.7273,-7.7273,-7.8883,-7.98,-7.98,-8.1342,-8.2186,-8.2186,-8.2186,-8.2186,-8.2186,-8.2186,-8.2186,-8.2186,-8.2186,-8.2186,-8.2186,-8.2186,-8.2186,-8.2186,-8.2186,-8.1715,-8.0947,-8.0911,-8.0403,-7.9721,-7.9682,-7.9682,-7.9565,-7.7273,-7.7273,-7.7273,-7.7273,-7.7273,-7.7273,-7.7273,-7.7273,-7.7273,-7.7273,-7.7273,-7.7273,-7.7273,-7.7273,-7.7273,-7.7273,-7.7273,-7.7273,-7.7273,-7.7047,-7.69,-7.69,-7.613,-7.5579,-7.5285,-7.4221,-7.356,-7.3303,-7.2753,-7.2496,-7.2496,-7.3046,-7.3303,-7.334,-7.4698,-7.5432,-7.5763,-7.657,-7.6754,-7.6533,-7.6533,-7.6827,-7.7273,-7.7273,-7.7273,-7.7273,-7.7273,-7.7273,-7.7273,-7.7273,-7.7273,-7.7273,-7.7273,-7.7273,-7.7273,-7.7273,-7.7273,-7.7273,-7.7273,-7.709,-7.679,-7.624,-7.5285,-7.4368,-7.3817,-7.3707,-7.3707,-7.3707,-7.4111,-7.4478,-7.4478,-7.3854,0.0,0.0,0.0,0.0,0.0,-7.2165,-7.2496,-7.2496,-7.2753,-7.312,-7.3634,-7.4184,-7.4955,-7.6019,-7.635,-7.6754,-7.7273,-7.8369,-7.925,-7.9764,-8.0828,-8.1672,-8.2186,-8.2186,-8.1919,-8.1334,-8.1919,-8.1919,-8.1334,-8.1952,-8.2186,-8.2186,-8.2186,-8.1849,-8.1334,-8.1334,-8.084,-8.003,-7.9526,-7.913,-7.8922,-7.8922,-7.8922,-7.88,-7.7273,-7.7273,-7.7273,-7.7273,-7.7273,-7.7273,-7.7273,-7.7273,-7.7273,-7.7273,-7.7273,-7.7273,-7.7273,-7.7273,-7.7273,-7.7273,-7.7273,-7.7273,-7.7273,-7.7273,-7.7273,-7.7273,-7.6827,-7.6387,-7.6093,-7.5065,-7.4404,-7.4147,-7.3597,-7.334,-7.3377,-7.3891,-7.4147,-7.4184,-7.5506,-7.6093,-7.6166,-7.6943,-7.698,-7.6533,-7.6533,-7.7011,-7.7781,-7.7781,-7.7781,-7.7818,-7.8112,-7.8185,-7.8185,-7.8185,-7.8185,-7.8148,-7.7855,-7.7781,-7.7708,-7.7384,-7.7273,-7.7273,-7.7273,-7.7273,-7.7163,-7.668,-7.5946,-7.5212,-7.4661,-7.4551,-7.4551,-7.4551,-7.4955,-7.5322,-7.5322,-7.4661,-7.4037,0.0,0.0,0.0,0.0,-7.2312,-7.2386,-7.2129,-7.2349,-7.2716,-7.323,-7.3523,-7.4258,-7.5579,-7.5946,-7.646,-7.7237,-7.8148,-7.8956,-7.9764,-8.0571,-8.1379,-8.2186,-8.2186,-8.1919,-8.1368,-8.1919,-8.1919,-8.1368,-8.1952,-8.2018,-8.1748,-8.1748,-8.123,-8.044,-8.044,-7.9992,-7.921,-7.8676,-7.8294,-7.8031,-7.8031,-7.8031,-7.7945,-7.7273,-7.7273,-7.7273,-7.7273,-7.7273,-7.7273,-7.7273,-7.7273,-7.7273,-7.7273,-7.7273,-7.7273,-7.7273,-7.7273,-7.7273,-7.7273,-7.7273,-7.7273,-7.7273,-7.7273,-7.7273,-7.7273,-7.7273,-7.6937,-7.6166,-7.613,-7.5726,-7.4955,-7.4918,-7.4918,-7.4918,-7.4955,-7.4955,-7.4992,-7.5799,-7.6166,-7.6203,-7.7011,-7.731,-7.7347,-7.7384,-7.7928,-7.8662,-7.8699,-7.8699,-7.8809,-7.9543,-7.98,-7.98,-7.98,-7.98,-7.9653,-7.8883,-7.8662,-7.8516,-7.7671,-7.742,-7.742,-7.742,-7.7384,-7.7347,-7.7347,-7.6754,-7.6093,-7.6093,-7.6093,-7.6093,-7.6093,-7.613,-7.6166,-7.6093,-7.5432,-7.4661,0.0,0.0,0.0,0.0,-7.2018,-7.2239,-7.1439,-7.2055,-7.2496,-7.2496,-7.3193,-7.4001,-7.4845,-7.5579,-7.6387,-7.7237,-7.8075,-7.8883,-7.9764,-8.0534,-8.1342,-8.2186,-8.2186,-8.2154,-8.2088,-8.2154,-8.2154,-8.2088,-8.2121,-8.1681,-8.0911,-8.0875,-8.0366,-7.9643,-7.9643,-7.917,-7.842,-7.842,-7.7945,-7.7223,-7.7223,-7.7223,-7.7223,-7.7273,-7.7273,-7.7273,-7.7273,-7.7273,-7.7273,-7.7273,-7.7273,-7.7273,-7.7273,-7.7273,-7.7273,-7.7273,-7.7273,-7.7273,-7.7273,-7.7273,-7.7273,-7.7273,-7.7273,-7.7273,-7.7273,-7.7273,-7.72,-7.7011,-7.6423,-7.6019,-7.5799,-7.5212,-7.4918,-7.4918,-7.5506,-7.5799,-7.5836,-7.6644,-7.698,-7.698,-7.72,-7.764,-7.8332,-7.8919,-7.9286,-7.9543,-8.0167,-8.0388,-8.0351,-7.991,-7.98,-7.98,-7.98,-7.98,-7.9764,-7.9543,-7.947,-7.9433,-7.9213,-7.914,-7.914,-7.914,-7.8736,-7.8259,-7.8259,-7.7157,-7.6093,-7.6093,-7.6093,-7.6093,-7.6093,-7.6607,-7.6827,-7.6203,-7.5432,-7.4661,0.0,0.0,0.0,-7.2275,-7.2386,-7.2422,-7.2239,-7.2386,-7.2496,-7.2496,-7.2679,-7.3377,-7.4808,-7.4551,-7.5175,-7.7163,-7.6974,-7.7671,-7.9727,-7.9984,-8.0755,-8.2186,-8.2186,-8.1579,-8.0365,-8.1613,-8.1544,-8.0365,-8.0947,-8.1088,-8.0875,-8.0255,-7.9565,-7.88,-7.88,-7.8294,-7.7544,-7.7544,-7.7367,-7.7223,-7.7223,-7.7223,-7.7223,-7.7273,-7.7273,-7.7273,-7.7273,-7.7273,-7.7273,-7.7273,-7.7273,-7.7273,-7.7273,-7.7635,-7.7892,-7.7892,-7.8185,-7.8405,-7.8405,-7.8405,-7.8405,-7.8405,-7.8405,-7.8405,-7.8405,-7.8075,-7.7892,-7.7892,-7.7047,-7.6644,-7.6644,-7.6203,-7.5983,-7.5953,-7.6423,0.0,-7.613,-7.6937,-7.709,-7.6827,-7.7561,-7.8148,-7.8662,-7.947,-7.9984,0.0,-8.0828,-8.1232,-8.1452,-8.1012,-8.0828,-8.0828,-8.0828,-8.0828,-8.0791,-8.0424,-8.0314,-8.0241,-7.9874,-7.98,-7.98,-7.98,-7.947,-7.9103,-7.9103,-7.8405,-7.7708,-7.7708,-7.7708,-7.7598,-7.7268,-7.7561,-7.7635,-7.679,-7.5983,-7.5065,-7.3891,0.0,-7.2386,-7.2018,-7.2275,-7.2239,-7.1541,-7.2055,-7.2349,-7.2018,-7.2312,-7.2899,-7.378,-7.4074,-7.4992,-7.668,-7.668,-7.7451,-7.9213,-7.9617,-8.0204,-8.1122,-8.1486,-8.1188,-8.0298,-8.0838,-8.0804,-8.0218,-8.0329,-8.018,-7.9837,-7.9369,-7.8718,-7.7945,-7.7945,-7.7632,-7.7223,-7.7223,-7.7223,-7.7223,-7.7223,-7.7223,-7.7223,-7.7273,-7.7273,-7.7347,-7.742,-7.7384,-7.7347,-7.7567,-7.7561,-7.7457,-7.7457,-7.8222,-7.8772,-7.8772,-7.936,-7.98,-7.98,-7.98,-7.98,-7.98,-7.98,-7.98,-7.98,-7.914,-7.8772,-7.8772,-7.8038,-7.7567,-7.7457,-7.7457,-7.7384,-7.7273,0.0,0.0,-7.6276,-7.698,-7.7011,-7.6533,-7.8075,-7.8809,-7.8993,-7.9764,-8.0534,-8.1158,-8.1158,-8.1599,-8.2186,-8.2186,-8.2186,-8.2186,-8.2186,-8.2186,-8.2076,-8.1379,-8.1158,-8.1012,-8.0314,-8.0094,-8.0094,-8.0094,-8.0021,-7.9947,-7.9947,-7.9874,-7.98,-7.98,-7.98,-7.958,-7.8883,-7.8772,-7.8479,-7.7457,-7.657,-7.5506,0.0,-7.3193,-7.2459,-7.1843,-7.2189,-7.2006,-7.0587,-7.1749,0.0,-7.1109,-7.1908,-7.2532,-7.2642,-7.3854,-7.5028,-7.6056,-7.668,-7.7488,-7.8552,-7.936,-7.9837,-7.9947,-8.0606,-8.0937,-8.0959,-8.0115,-8.0068,-8.0732,-7.9878,-7.913,-7.8504,-7.8378,-7.7902,-7.7223,-7.7223,-7.7223,-7.7223,-7.7223,-7.7223,-7.7223,-7.7223,-7.7223,-7.7223,-7.7273,-7.7273,-7.753,-7.8259,-7.7781,-7.7781,-7.914,-7.8809,-7.8369,-7.8369,-7.9066,-7.958,-7.958,-7.969,-7.98,-7.98,-7.98,-7.98,-7.98,-7.98,-7.98,-7.98,-7.9653,-7.958,-7.958,-7.9433,-7.9029,-7.8369,-7.8369,-7.8002,-7.7273,-7.7273,0.0,-7.709,-7.7237,-7.7635,-7.8222,-7.9176,-7.9947,-8.0645,-8.1452,-8.1856,-8.2003,-8.2003,-8.2076,-8.2186,-8.2186,-8.2186,-8.2186,-8.2186,-8.2186,-8.2186,-8.2039,-8.2003,-8.1966,-8.1819,-8.1782,-8.1782,-8.1782,-8.1305,-8.0791,-8.0791,-8.0277,-7.98,-7.98,-7.98,-7.9764,-7.9617,-7.958,-7.9103,-7.7567,-7.6099,-7.5028,-7.4735,-7.4001,-7.367,-7.4221,-7.33,-7.2455,-7.2144,-7.2972,-7.2455,-6.9614,-7.1248,-7.2789,-7.345,-7.3156,-7.3854,-7.5983,-7.5616,-7.635,0.0,-7.936,-8.0094,0.0,-8.0826,-8.091,-8.0907,-8.0107,-7.9762,-7.9878,-7.9084,-7.8629,-7.8462,-7.7728,-7.7357,-7.7223,-7.7223,-7.7223,-7.7223,-7.7223,-7.7223,-7.7223,-7.7223,-7.7223,-7.7223,-7.7273,-7.7273,-7.742,-7.7855,-7.7965,-7.8259,-7.9029,-7.9543,-7.969,-7.9286,-7.991,-8.0424,-8.0424,-8.0791,-8.1048,-8.1048,-8.1048,-8.1048,-8.1048,-8.1048,-8.1048,-8.1048,-8.0645,-8.0424,-8.0424,-7.9984,-7.9396,-7.8589,-7.8589,-7.8148,-7.7273,-7.69,-7.668,-7.6717,-7.709,-7.7781,-7.8662,-7.991,-8.0645,-8.1085,-8.1893,-8.2186,-8.2186,-8.2186,-8.2186,-8.226,-8.2663,-8.281,-8.2774,-8.2333,-8.2186,-8.2186,-8.2186,-8.2186,-8.2186,-8.2186,-8.2186,-8.2186,-8.2186,-8.1929,-8.1636,-8.1636,-8.1342,-8.1048,-8.1048,-8.1048,-8.0938,-8.0498,-8.0424,-7.991,-7.8295,-7.6974,-7.5898,-7.5082,-7.429,-7.3889,-7.429,-7.3684,-7.3202,-7.3106,-7.3505,-7.2984,-7.0971,-7.1845,-7.2333,-7.1843,-7.2239,-7.3377,-7.5359,0.0,-7.646,0.0,0.0,0.0,-7.9135,0.0,-7.9446,-7.9069,-7.862,-7.8635,-7.9044,-7.8209,-7.7815,-7.7815,-7.7367,-7.7223,-7.7223,-7.7223,-7.7223,-7.7223,-7.7223,-7.7223,-7.7223,-7.7223,-7.7223,-7.7223,-7.7818,-7.7708,-7.7635,-7.7818,-7.8259,-7.8699,-7.9066,-8.0314,-8.0975,-8.0167,-8.0755,-8.1269,-8.1269,-8.1819,-8.2186,-8.2186,-8.2186,-8.2186,-8.2186,-8.2186,-8.2186,-8.2186,-8.1599,-8.1269,-8.1269,-8.0608,-7.991,-7.9103,-7.8919,-7.8332,-7.7273,0.0,0.0,-7.6644,-7.7304,-7.8148,-7.9176,-8.0461,-8.1122,-8.1342,-8.2113,-8.2443,-8.248,-8.2627,-8.27,-8.2774,-8.3434,-8.3654,-8.3581,-8.292,-8.27,-8.2663,-8.2517,-8.2443,-8.2406,-8.226,-8.2186,-8.2186,-8.2186,-8.2186,-8.2186,-8.2186,-8.2186,-8.2186,-8.2186,-8.2186,-8.2003,-8.1379,-8.1122,-8.0608,-7.9323,-7.8405,-7.7375,-7.5988,-7.4961,-7.4287,-7.4287,-7.3877,-7.3576,-7.3702,-7.3478,-7.306,-7.2336,-7.2012,-7.138,-7.0164,-7.1464,-7.3047,-7.4815,0.0,0.0,0.0,-7.8313,-7.805,-7.7615,0.0,-7.8145,-7.7901,-7.7438,-7.7676,-7.8462,-7.7588,-7.7223,-7.7223,-7.7223,-7.7223,-7.7223,-7.7223,-7.7223,-7.7223,-7.7223,-7.7223,-7.7223,-7.7223,-7.7223,-7.7223,-7.9396,-7.8993,-7.8699,-7.9433,-7.9029,-7.9103,-8.0571,-8.1525,-8.1782,-8.1012,-8.1599,-8.2076,-8.2076,-8.215,-8.2186,-8.2186,-8.2186,-8.2186,-8.2186,-8.2186,-8.2186,-8.2186,-8.2113,-8.2076,-8.2076,-8.2003,-8.1562,-8.0791,-8.0021,-7.8883,-7.7273,0.0,0.0,-7.8369,-7.8442,-7.9323,-8.0791,-8.0938,-8.1415,-8.215,-8.2957,-8.3287,-8.3398,-8.4095,-8.4389,-8.4389,-8.4462,-8.4499,-8.4499,-8.4389,-8.4389,-8.4242,-8.3544,-8.3287,-8.3141,-8.2406,-8.2186,-8.2186,-8.2186,-8.2186,-8.2186,-8.2186,-8.2186,-8.2186,-8.2186,-8.2186,-8.2186,-8.2113,-8.1525,-8.0938,-8.0791,-8.0094,-7.9286,-7.8385,-7.6996,-7.5985,-7.5985,-7.4081,-7.2969,-7.3678,-7.262,-7.1729,-7.1414,-7.0221,-6.9623,-7.0082,-7.095,-7.2491,-7.4778,-7.4332,0.0,-7.7347,-7.7476,-7.7796,-7.8377,-7.7728,-7.811,-7.9468,-7.7926,-7.7676,-7.8462,-7.7588,-7.7223,-7.7223,-7.7223,-7.7223,-7.7223,-7.7223,-7.7223,-7.7223,-7.7223,-7.7223,-7.7223,-7.7223,-7.7223,-7.7223,-7.9617,-7.9543,-7.9396,-7.9727,-8.0314,-8.0975,-8.1636,-8.281,-8.3544,-8.3214,-8.3434,-8.3654,-8.3654,-8.3654,-8.3654,-8.3654,-8.3654,-8.3434,-8.2957,-8.292,-8.27,-8.2223,-8.2186,-8.2186,-8.2186,-8.2186,-8.1819,-8.1012,-8.0167,-7.9433,-7.8772,-7.7781,-7.7781,-7.8626,-7.9617,-8.0681,-8.1746,-8.226,-8.292,-8.3654,-8.3985,-8.4132,-8.4168,-8.4499,-8.4609,-8.4646,-8.5159,-8.5306,-8.538,-8.5894,-8.5416,-8.4535,-8.4242,-8.4132,-8.4058,-8.3728,-8.3654,-8.3544,-8.3067,-8.292,-8.281,-8.2333,-8.2186,-8.2186,-8.2186,-8.2186,-8.2186,-8.2186,-8.1929,-8.1709,-8.1709,-8.1048,-8.0113,-7.8811,-7.8073,-7.7289,-7.6348,-7.5764,-7.5437,-7.5272,-7.3865,-7.2892,-7.2803,-7.0979,-7.053,-7.2169,-7.1258,-7.1465,-7.3347,-7.4092,-7.5324,-7.7222,0.0,-7.6994,-7.7776,-7.6963,-7.6892,-7.751,-7.7336,-7.7367,-7.7719,-7.7323,-7.7223,-7.7223,-7.7223,-7.7223,-7.7223,-7.7223,-7.7223,-7.7223,-7.7223,-7.7223,-7.7223,-7.7223,-7.7223,-7.7223,-8.1012,-8.1012,-8.0865,-8.0865,-8.1782,-8.2553,-8.2553,-8.3911,-8.4939,-8.4939,-8.5159,-8.5123,-8.4646,-8.4609,-8.4609,-8.4609,-8.4609,-8.4352,-8.3801,-8.3765,-8.3508,-8.292,-8.292,-8.292,-8.292,-8.2663,-8.226,-8.1709,-8.0645,-8.0021,-7.9764,-7.8369,-7.8405,-7.969,-8.0865,-8.1929,-8.292,-8.3508,-8.4095,-8.4609,-8.4866,-8.4939,-8.4976,-8.5233,-8.5306,-8.538,-8.5967,-8.6151,-8.6224,-8.6811,-8.6261,-8.527,-8.5013,-8.4939,-8.4903,-8.4682,-8.4609,-8.4499,-8.3911,-8.3765,-8.3618,-8.303,-8.2737,-8.2553,-8.2553,-8.237,-8.2186,-8.2186,-8.2186,-8.2186,-8.2186,-8.1546,-8.0518,-7.9168,-7.8744,-7.8025,-7.6403,-7.6876,-7.6983,-7.5957,-7.444,-7.357,-7.3796,-7.1654,-7.1044,-7.2947,-7.1666,-7.1526,-7.3154,-7.3881,-7.4963,-7.6549,0.0,0.0,-7.6959,-7.614,-7.5982,-7.643,-7.6982,-7.7223,-7.7223,-7.7223,-7.7223,-7.7223,-7.7223,-7.7223,-7.7223,-7.7223,-7.7223,-7.7223,-7.7223,-7.7223,-7.7223,-7.7223,-7.7223,-7.7223,-8.4242,-8.3911,-8.3361,-8.3361,-8.3398,-8.3398,-8.3398,-8.4756,-8.5783,-8.5783,-8.6481,-8.6371,-8.4792,-8.4609,-8.4609,-8.4609,-8.4609,-8.4609,-8.4609,-8.4609,-8.4572,-8.4572,-8.4572,-8.4572,-8.4572,-8.3801,-8.3398,-8.3398,-8.1782,-8.0571,-7.9764,-7.8956,-7.9874,-8.215,-8.2186,-8.3067,-8.4572,-8.4572,-8.4609,-8.4682,-8.5453,-8.5783,-8.5857,-8.6664,-8.6995,-8.6995,-8.6995,-8.6995,-8.6995,-8.6995,-8.6995,-8.6848,-8.604,-8.5783,-8.5637,-8.4829,-8.4609,-8.4609,-8.4609,-8.4609,-8.4572,-8.4572,-8.3985,-8.3398,-8.3398,-8.2774,-8.2186,-8.2186,-8.2186,-8.2186,-8.2186,-8.1508,-8.0621,-7.9826,-7.9068,-7.801,-7.6329,-7.6868,-7.6804,-7.5231,-7.3644,-7.3005,-7.3751,-7.1639,-7.0518,-7.1373,-7.2086,-7.3187,-7.4866,-7.3539,-7.344,-7.4975,-7.4226,0.0,-7.6076,-7.535,-7.5671,-7.7223,-7.7223,-7.7223,-7.7223,-7.7223,-7.7223,-7.7223,-7.7223,-7.7223,-7.7223,-7.7223,-7.7223,-7.7223,-7.7223,-7.7223,-7.7223,-7.7223,-7.7223,-7.7223,-8.4389,-8.4389,-8.4242,-8.4242,-8.4682,-8.5049,-8.5049,-8.593,-8.6628,-8.6628,-8.6848,-8.6811,-8.6297,-8.6261,-8.6261,-8.6261,-8.6261,-8.6004,-8.5453,-8.5416,-8.5159,-8.4609,-8.4609,-8.4609,-8.4609,-8.4352,-8.4242,-8.4242,-8.3177,-8.2517,-8.226,-8.2553,-8.3104,-8.3838,-8.3838,-8.4425,-8.5416,-8.5416,-8.5747,-8.6261,-8.6518,-8.6628,-8.6664,-8.6921,-8.6995,-8.6995,-8.6995,-8.6995,-8.6995,-8.6995,-8.6995,-8.6958,-8.6701,-8.6628,-8.6591,-8.6334,-8.6261,-8.6114,-8.5563,-8.5416,-8.527,-8.4756,-8.4425,-8.4242,-8.4242,-8.3618,-8.2884,-8.2296,-8.2186,-8.2186,-8.2186,-8.1985,-8.1321,-7.9931,-7.9973,-7.943,-7.7225,-7.7153,-7.6953,-7.5912,-7.4401,-7.3757,-7.4482,-7.2897,-7.2358,-7.3689,-7.3511,-7.3333,-7.3294,-7.3856,-7.4675,-7.5662,-7.5484,0.0,-7.6825,-7.6113,-7.6223,-7.7223,-7.7223,-7.7223,-7.7223,-7.7223,-7.7223,-7.7223,-7.7223,-7.7223,-7.7223,-7.7223,-7.7223,-7.7223,-7.7223,-7.7223,-7.7223,-7.7223,-7.7223,-7.7223,-8.5343,-8.549,-8.549,-8.549,-8.593,-8.6261,-8.6261,-8.6701,-8.6995,-8.6995,-8.6995,-8.6995,-8.6995,-8.6995,-8.6995,-8.6995,-8.6995,-8.6811,-8.6261,-8.6261,-8.604,-8.5527,-8.549,-8.549,-8.549,-8.5196,-8.5049,-8.5049,-8.4242,-8.3875,-8.3875,-8.4352,-8.4756,-8.5049,-8.5049,-8.549,-8.6261,-8.6261,-8.6554,-8.6995,-8.6995,-8.6995,-8.6995,-8.6995,-8.6995,-8.6995,-8.6995,-8.6995,-8.6995,-8.6995,-8.6995,-8.6995,-8.6995,-8.6995,-8.6995,-8.6995,-8.6995,-8.6885,-8.6371,-8.6261,-8.6114,-8.5637,-8.527,-8.4976,-8.4682,-8.3985,-8.3287,-8.2737,-8.2406,-8.2186,-8.2186,-8.1919,-8.1396,-8.033,-8.0334,-7.9824,-7.801,-7.8008,-7.7691,-7.627,-7.5514,-7.5066,-7.4899,-7.431,-7.4146,-7.4839,-7.4452,-7.4061,-7.385,-7.4537,-7.5137,-7.5575,-7.5621,-7.6051,-7.6809,-7.6361,-7.6499,-7.7223,-7.7223,-7.7223,-7.7223,-7.7223,-7.7223,-7.7223,-7.7223,-7.7223,-7.7223,-7.7223,-7.7223,-7.7223,-7.7223,-7.7223,-7.7223,-7.7223,-7.7223,-7.7223,-8.6848,-8.6995,-8.6995,-8.6995,-8.6995,-8.6995,-8.6995,-8.6995,-8.6995,-8.6995,-8.6995,-8.6995,-8.6995,-8.6995,-8.6995,-8.6995,-8.6995,-8.6995,-8.6995,-8.6995,-8.6995,-8.6995,-8.6995,-8.6995,-8.6995,-8.6261,-8.5857,-8.5857,-8.5123,-8.4756,-8.4756,-8.4756,-8.5159,-8.5857,-8.5857,-8.6297,-8.6995,-8.6995,-8.6995,-8.6995,-8.6995,-8.6995,-8.6995,-8.6995,-8.6995,-8.6995,-8.6995,-8.6995,-8.6995,-8.6995,-8.6995,-8.6995,-8.6995,-8.6995,-8.6995,-8.6995,-8.6995,-8.6995,-8.6995,-8.6995,-8.6995,-8.6995,-8.6444,-8.5673,-8.4798,-8.3994,-8.3444,-8.3304,-8.2645,-8.2128,-8.2128,-8.1407,-8.084,-8.084,-8.018,-7.9397,-7.8574,-7.9034,-7.8675,-7.6389,-7.6745,-7.6653,-7.5188,-7.5703,-7.5798,-7.5042,-7.5016,-7.5326,-7.6,-7.5436,-7.5094,-7.505,-7.5041,-7.5386,-7.6189,-7.6189,-7.6533,-7.7223,-7.7223,-7.7223,-7.7223,-7.7223,-7.7223,-7.7223,-7.7223,-7.7223,-7.7223,-7.7223,-7.7223,-7.7223,-7.7223,-7.7223,-7.7223,-7.7223,-7.7223,-7.7223,-8.6958,-8.6995,-8.6995,-8.6995,-8.6995,-8.6995,-8.6995,-8.6995,-8.6995,-8.6995,-8.6995,-8.6995,-8.6995,-8.6995,-8.6995,-8.6995,-8.6995,-8.6995,-8.6995,-8.6995,-8.6995,-8.6995,-8.6995,-8.6995,-8.6995,-8.6811,-8.6738,-8.6738,-8.6554,-8.6444,-8.6444,-8.6444,-8.6554,-8.6738,-8.6738,-8.6811,-8.6995,-8.6995,-8.6995,-8.6995,-8.6995,-8.6995,-8.6995,-8.6995,-8.6995,-8.6995,-8.6995,-8.6995,-8.6995,-8.6995,-8.6995,-8.6995,-8.6995,-8.6995,-8.6995,-8.6995,-8.6995,-8.6995,-8.6995,-8.6995,-8.6995,-8.6995,-8.6885,-8.6343,-8.4864,-8.4392,-8.3882,-8.2596,-8.1691,-8.1116,-8.1116,-8.0536,-7.9954,-7.9954,-7.9801,-7.9202,-7.7787,-7.7777,-7.7421,-7.6257,-7.6277,-7.6469,-7.6634,-7.6798,-7.66,-7.5805,-7.6331,-7.621,-7.5212,-7.6122,-7.6641,-7.6671,-7.6627,-7.6775,-7.6947,-7.6947,-7.7051,-7.7223,-7.7223,-7.7223,-7.7223,-7.7223,-7.7223,-7.7223,-7.7223,-7.7223,-7.7223,-7.7223,-7.7223,-7.7223,-7.7223,-7.7223,-7.7223,-7.7223,-7.7223,-7.7223,-8.6995,-8.6995,-8.6995,-8.6995,-8.6995,-8.6995,-8.6995,-8.6995,-8.6995,-8.6995,-8.6995,-8.6995,-8.6995,-8.6995,-8.6995,-8.6995,-8.6995,-8.6995,-8.6995,-8.6995,-8.6995,-8.6995,-8.6995,-8.6995,-8.6995,-8.6995,-8.6995,-8.6995,-8.6995,-8.6995,-8.6995,-8.6995,-8.6995,-8.6995,-8.6995,-8.6995,-8.6995,-8.6995,-8.6995,-8.6995,-8.6995,-8.6995,-8.6995,-8.6995,-8.6995,-8.6995,-8.6995,-8.6995,-8.6995,-8.6995,-8.6995,-8.6995,-8.6995,-8.6995,-8.6995,-8.6995,-8.6995,-8.6995,-8.6995,-8.6995,-8.6995,-8.6995,-8.6995,-8.6781,-8.5845,-8.5336,-8.4719,-8.339,-8.2517,-8.172,-8.0938,-8.0467,-8.0113,-7.9757,-7.9088,-7.8297,-7.7427,-7.6971,-7.6582,-7.6164,-7.643,-7.6775,-7.7189,-7.7223,-7.7021,-7.6555,-7.6616,-7.6468,-7.5972,-7.6408,-7.6706,-7.6706,-7.7051,-7.7223,-7.7223,-7.7223,-7.7223,-7.7223,-7.7223,-7.7223,-7.7223,-7.7223,-7.7223,-7.7223,-7.7223,-7.7223,-7.7223,-7.7223,-7.7223,-7.7223,-7.7223,-7.7223,-7.7223,-7.7223,-7.7223,-7.7223,-8.6995,-8.6995,-8.6995,-8.6995,-8.6995,-8.6995,-8.6995,-8.6995,-8.6995,-8.6995,-8.6995,-8.6995,-8.6995,-8.6995,-8.6995,-8.6995,-8.6995,-8.6995,-8.6995,-8.6995,-8.6995,-8.6995,-8.6995,-8.6995,-8.6995,-8.6995,-8.6995,-8.6995,-8.6995,-8.6995,-8.6995,-8.6995,-8.6995,-8.6995,-8.6995,-8.6995,-8.6995,-8.6995,-8.6995,-8.6995,-8.6995,-8.6995,-8.6995,-8.6995,-8.6995,-8.6995,-8.6995,-8.6995,-8.6995,-8.6995,-8.6995,-8.696,-8.6856,-8.6821,-8.6786,-8.6643,-8.6679,-8.6856,-8.696,-8.6995,-8.6995,-8.6995,-8.6995,-8.696,-8.6856,-8.6271,-8.5477,-8.449,-8.3651,-8.2591,-8.1048,-8.0673,-8.0359,-7.9629,-7.8362,-7.7415,-7.717,-7.664,-7.6217,-7.612,-7.6775,-7.7223,-7.7223,-7.7223,-7.7223,-7.7223,-7.6637,-7.6499,-7.7016,-7.6568,-7.6223,-7.612,-7.6844,-7.7223,-7.7223,-7.7223,-7.7223,-7.7223,-7.7223,-7.7223,-7.7223,-7.7223,-7.7223,-7.7223,-7.7223,-7.7223,-7.7223,-7.7223,-7.7223,-7.7223,-7.7223,-7.7223,-7.7223,-7.7223,-7.7223,-7.7223,-8.6995,-8.6995,-8.6995,-8.6995,-8.6995,-8.6995,-8.6995,-8.6995,-8.6995,-8.6995,-8.6995,-8.6995,-8.6995,-8.6995,-8.6995,-8.6995,-8.6995,-8.6995,-8.6995,-8.6995,-8.6995,-8.6995,-8.6995,-8.6995,-8.6995,-8.6995,-8.6995,-8.6995,-8.6995,-8.6995,-8.6995,-8.6995,-8.6995,-8.6995,-8.6995,-8.6995,-8.6995,-8.6995,-8.6995,-8.6995,-8.6995,-8.6995,-8.6995,-8.6995,-8.6995,-8.6995,-8.6995,-8.6995,-8.6995,-8.6995,-8.6995,-8.6891,-8.6138,-8.5879,-8.5767,-8.4999,-8.5348,-8.6064,-8.6821,-8.6995,-8.6995,-8.6995,-8.6995,-8.6821,-8.6064,-8.5807,-8.5247,-8.3635,-8.2693,-8.1794,-8.0786,-8.0119,-7.9485,-7.8798,-7.8482,-7.7872,-7.6538,-7.6801,-7.6845,-7.6173,-7.6775,-7.7223,-7.7223,-7.7223,-7.7223,-7.7223,-7.712,-7.6844,-7.6326,-7.6775,-7.6775,-7.612,-7.6844,-7.7223,-7.7223,-7.7223,-7.7223,-7.7223,-7.7223,-7.7223,-7.7223,-7.7223,-7.7223,-7.7223,-7.7223,-7.7223,-7.7223,-7.7223,-7.7223,-7.7223,-7.7223,-7.7223,-7.7223,-7.7223,-7.7223,-7.7223,-8.6995,-8.6995,-8.6995,-8.6995,-8.6995,-8.6995,-8.6995,-8.6995,-8.6995,-8.6995,-8.6995,-8.6995,-8.6995,-8.6995,-8.6995,-8.6995,-8.6995,-8.6995,-8.6995,-8.6995,-8.6995,-8.6995,-8.6995,-8.6995,-8.6995,-8.6995,-8.6995,-8.6995,-8.6995,-8.6995,-8.6995,-8.6995,-8.6995,-8.6995,-8.6995,-8.6995,-8.6995,-8.6995,-8.6995,-8.6995,-8.6995,-8.6995,-8.6995,-8.6995,-8.6995,-8.6995,-8.6995,-8.6995,-8.6925,-8.6464,-8.632,-8.6138,-8.5273,-8.4999,-8.492,-8.4518,-8.4999,-8.5879,-8.6749,-8.6643,-8.632,-8.632,-8.5953,-8.5616,-8.5692,-8.5348,-8.488,-8.4559,-8.3444,-8.2269,-8.1439,-8.0662,-7.9741,-7.8632,-7.805,-7.7433,-7.6319,-7.6459,-7.653,-7.6164,-7.6775,-7.7223,-7.7223,-7.7223,-7.7223,-7.7223,-7.7223,-7.7085,-7.674,-7.7051,-7.7051,-7.6706,-7.7051,-7.7223,-7.7223,-7.7223,-7.7223,-7.7223,-7.7223,-7.7223,-7.7223,-7.7223,-7.7223,-7.7223,-7.7223,-7.7223,-7.7223,-7.7223,-7.7223,-7.7223,-7.7223,-7.7223,-7.7223,-7.7223,-7.7223,-7.7223,-8.6995,-8.6995,-8.6995,-8.6995,-8.6995,-8.6995,-8.6995,-8.6995,-8.6995,-8.6995,-8.6995,-8.6995,-8.6995,-8.6995,-8.6995,-8.6995,-8.6995,-8.6995,-8.6995,-8.6995,-8.6995,-8.6995,-8.6995,-8.6995,-8.6995,-8.6995,-8.6995,-8.6995,-8.6995,-8.6995,-8.6995,-8.6995,-8.6995,-8.6995,-8.6995,-8.6995,-8.6995,-8.6995,-8.6995,-8.6995,-8.6995,-8.6995,-8.6995,-8.6995,-8.6995,-8.6995,-8.6995,-8.6995,-8.6856,-8.599,-8.5692,-8.554,-8.4437,-8.4106,-8.4058,-8.3847,-8.4396,-8.5312,-8.6392,-8.6064,-8.5425,-8.5425,-8.488,-8.4559,-8.527,-8.488,-8.4518,-8.4999,-8.4023,-8.2848,-8.2031,-8.132,-8.0396,-7.8913,0.0,-7.743,-7.6499,-7.6361,-7.6361,-7.6361,-7.6878,-7.7223,-7.7223,-7.7223,-7.7223,-7.7223,-7.7223,-7.7223,-7.7223,-7.7223,-7.7223,-7.7223,-7.7223,-7.7223,-7.7223,-7.7223,-7.7223,-7.7223,-7.7223,-7.7223,-7.7223,-7.7223,-7.7223,-7.7223,-7.7223,-7.7223,-7.7223,-7.7223,-7.7223,-7.7223,-7.7223,-7.7223,-7.7223,-7.7223,-7.7223,-7.7223,-8.6995,-8.6995,-8.6995,-8.6995,-8.6995,-8.6995,-8.6995,-8.6995,-8.6995,-8.6995,-8.6995,-8.6995,-8.6995,-8.6995,-8.6995,-8.6995,-8.6995,-8.6995,-8.6995,-8.6995,-8.6995,-8.6995,-8.6995,-8.6995,-8.6995,-8.6995,-8.6995,-8.6995,-8.6995,-8.6995,-8.6995,-8.6995,-8.6995,-8.6995,-8.6995,-8.6995,-8.6995,-8.6995,-8.6995,-8.6995,-8.6995,-8.6995,-8.6995,-8.6995,-8.6995,-8.6995,-8.6995,-8.6995,-8.6856,-8.599,-8.5692,-8.5425,-8.3727,-8.3235,-8.3059,-8.2257,-8.26,-8.3642,-8.5312,-8.5156,-8.4477,-8.4477,-8.4437,-8.4396,-8.4477,-8.4437,-8.419,-8.3462,-8.3156,-8.2836,-8.1955,-8.1754,-8.1224,-7.9672,0.0,0.0,-7.7361,-7.7109,-7.7109,-7.7109,-7.7189,-7.7223,-7.7223,-7.7223,-7.7223,-7.7223,-7.7223,-7.7223,-7.7223,-7.7223,-7.7223,-7.7223,-7.7223,-7.7223,-7.7223,-7.7223,-7.7223,-7.7223,-7.7223,-7.7223,-7.7223,-7.7223,-7.7223,-7.7223,-7.7223,-7.7223,-7.7223,-7.7223,-7.7223,-7.7223,-7.7223,-7.7223,-7.7223,-7.7223,-7.7223,-7.7223,-8.6995,-8.6995,-8.6995,-8.6995,-8.6995,-8.6995,-8.6995,-8.6995,-8.6995,-8.6995,-8.6995,-8.6995,-8.6995,-8.6995,-8.6995,-8.6995,-8.6995,-8.6995,-8.6995,-8.6995,-8.6995,-8.6995,-8.6995,-8.6995,-8.6995,-8.6995,-8.6995,-8.6995,-8.6995,-8.6995,-8.6995,-8.6995,-8.6995,-8.6995,-8.6995,-8.6995,-8.6995,-8.6995,-8.6995,-8.6995,-8.6995,-8.6995,-8.6995,-8.6995,-8.6995,-8.6995,-8.6995,-8.6995,-8.6749,-8.5386,-8.488,-8.4599,-8.2836,-8.2269,-8.2315,-8.2509,-8.2453,-8.259,-8.3727,-8.3854,-8.3591,-8.3591,-8.3191,-8.2961,-8.3462,-8.3191,-8.297,-8.3762,-8.3059,-8.2361,-8.2555,-8.2164,-8.1431,-8.0362,0.0,-7.9844,-7.8775,-7.8258,-7.7948,-7.7948,-7.7534,-7.7223,-7.7223,-7.7223,-7.7223,-7.7223,-7.7223,-7.7223,-7.7223,-7.7223,-7.7223,-7.7223,-7.7223,-7.7223,-7.7223,-7.7223,-7.7223,-7.7223,-7.7223,-7.7223,-7.7223,-7.7223,-7.7223,-7.7223,-7.7223,-7.7223,-7.7223,-7.7223,-7.7223,-7.7223,-7.7223,-7.7223,-7.7223,-7.7223,-7.7054,-7.6964,-8.6995,-8.6995,-8.6995,-8.6995,-8.6995,-8.6995,-8.6995,-8.6995,-8.6995,-8.6995,-8.6995,-8.6995,-8.6995,-8.6995,-8.6995,-8.6995,-8.6995,-8.6995,-8.6995,-8.6995,-8.6995,-8.6995,-8.6995,-8.6995,-8.6995,-8.6995,-8.6995,-8.6995,-8.6995,-8.6995,-8.6995,-8.6995,-8.6995,-8.6995,-8.6995,-8.6995,-8.6995,-8.6995,-8.6995,-8.6995,-8.6995,-8.6995,-8.6995,-8.6995,-8.6995,-8.6995,-8.6995,-8.6995,-8.6714,-8.4996,-8.4396,-8.41,-8.2315,-8.181,-8.1918,-8.2544,-8.2303,-8.1918,-8.2544,-8.2691,-8.2691,-8.2691,-8.2257,-8.1965,-8.259,-8.2257,-8.2118,-8.3367,-8.26,-8.1965,-8.2555,-8.2211,-8.1638,-8.1086,-8.0983,-8.0741,-7.9948,-7.9431,-7.9017,-7.8775,-7.8051,-7.7603,-7.7603,-7.7361,-7.7223,-7.7223,-7.7223,-7.7223,-7.7223,-7.7223,-7.7223,-7.7223,-7.7223,-7.7223,-7.7223,-7.7223,-7.7223,-7.7223,-7.7223,-7.7223,-7.7223,-7.7099,-7.7133,-7.7178,-7.7099,-7.7133,-7.7178,-7.7133,-7.7054,-7.7054,-7.6998,-7.6998,-7.6998,-7.6998,-7.6828,-7.6736,-8.6995,-8.6995,-8.6995,-8.6995,-8.6995,-8.6995,-8.6995,-8.6995,-8.6995,-8.6995,-8.6995,-8.6995,-8.6995,-8.6995,-8.6995,-8.6995,-8.6995,-8.6995,-8.6995,-8.6995,-8.6995,-8.6995,-8.6995,-8.6995,-8.6995,-8.6995,-8.6995,-8.6995,-8.6995,-8.6995,-8.6995,-8.6995,-8.6995,-8.6995,-8.6995,-8.6995,-8.6995,-8.6995,-8.6995,-8.6995,-8.6995,-8.6995,-8.6995,-8.6995,-8.7031,-8.696,-8.696,-8.696,-8.6714,-8.4996,-8.4396,-8.41,-8.235,-8.181,-8.181,-8.181,-8.181,-8.181,-8.181,-8.181,-8.181,-8.181,-8.181,-8.181,-8.181,-8.181,-8.181,-8.181,-8.181,-8.181,-8.181,-8.181,-8.181,-8.181,-8.181,-8.1535,-8.0741,-8.0603,-8.0362,-7.9603,-7.8879,-7.843,-7.8396,-7.7706,-7.7223,-7.7223,-7.7223,-7.7223,-7.7223,-7.7223,-7.7223,-7.7223,-7.7223,-7.7223,-7.7223,-7.7223,-7.7223,-7.7223,-7.7223,-7.7223,-7.7178,-7.6918,-7.6964,-7.7178,-7.6918,-7.6964,-7.7178,-7.6918,-7.6793,-7.6748,-7.6587,-7.6495,-7.6495,-7.6495,-7.6495,-7.6495,-8.6995,-8.6995,-8.6995,-8.6995,-8.6995,-8.6995,-8.6995,-8.6995,-8.6995,-8.6995,-8.6995,-8.6995,-8.6995,-8.6995,-8.6995,-8.6995,-8.6995,-8.6995,-8.6995,-8.6995,-8.6995,-8.6995,-8.6995,-8.6995,-8.6995,-8.6995,-8.6995,-8.6995,-8.6995,-8.6995,-8.6995,-8.6995,-8.6995,-8.6995,-8.6995,-8.6995,-8.6995,-8.6995,-8.6995,-8.6995,-8.6995,-8.6995,-8.6995,-8.6995,-8.6608,-8.6101,-8.6101,-8.5692,-8.4999,-8.3854,-8.3505,-8.3288,-8.2164,-8.181,-8.181,-8.181,-8.181,-8.181,-8.181,-8.181,-8.181,-8.181,-8.181,-8.181,-8.181,-8.181,-8.181,-8.181,-8.181,-8.181,-8.181,-8.181,-8.181,-8.181,-8.181,-8.1707,-8.15,-8.0983,-8.0534,-8.0327,-7.9638,-7.8982,-7.8465,-7.8189,-7.781,-7.7258,-7.7223,-7.7223,-7.7223,-7.7223,-7.7223,-7.7223,-7.7223,-7.7223,-7.7223,-7.7223,-7.7223,-7.7223,-7.7223,-7.7223,-7.7178,-7.6918,-7.6839,-7.6918,-7.6691,-7.6633,-7.6725,-7.6633,-7.6587,-7.6587,-7.6541,-7.6495,-7.6495,-7.6495,-7.6402,-7.6262,-8.6995,-8.6995,-8.6995,-8.6995,-8.6995,-8.6995,-8.6995,-8.6995,-8.6995,-8.6995,-8.6995,-8.6995,-8.6995,-8.6995,-8.6995,-8.6995,-8.6995,-8.6995,-8.6995,-8.6995,-8.6995,-8.6995,-8.6995,-8.6995,-8.6995,-8.6995,-8.6995,-8.6995,-8.6995,-8.6995,-8.6995,-8.6995,-8.6995,-8.6995,-8.6995,-8.6995,-8.6995,-8.6995,-8.6995,-8.6995,-8.6995,-8.6784,-8.6464,-8.6464,-8.5953,-8.5192,-8.5192,-8.484,-8.4272,-8.3375,-8.2881,-8.2498,-8.1965,-8.181,-8.181,-8.181,-8.181,-8.181,-8.181,-8.181,-8.181,-8.181,-8.181,-8.181,-8.181,-8.181,-8.181,-8.181,-8.181,-8.181,-8.181,-8.181,-8.181,-8.181,-8.181,-8.181,-8.181,-8.1397,-8.1086,-8.1086,-8.0396,-7.9776,-7.9327,-7.8649,-7.7915,-7.7123,-7.7054,-7.7088,-7.7178,-7.7223,-7.7178,-7.7054,-7.7133,-7.7178,-7.7054,-7.7178,-7.7223,-7.7223,-7.7223,-7.7223,-7.7178,-7.6918,-7.6793,-7.6793,-7.6691,-7.6599,-7.6599,-7.6541,-7.6495,-7.6495,-7.6262,-7.6182,-7.6182,-7.6182,-7.6088,-7.5947,-8.6891,-8.6925,-8.6995,-8.6995,-8.6995,-8.6995,-8.6995,-8.6995,-8.6995,-8.6995,-8.6995,-8.6995,-8.6995,-8.6995,-8.6995,-8.6995,-8.6995,-8.6995,-8.6995,-8.6995,-8.6995,-8.6995,-8.6995,-8.6995,-8.6995,-8.6995,-8.6995,-8.6995,-8.6995,-8.6995,-8.6995,-8.6995,-8.6995,-8.6995,-8.6995,-8.6995,-8.6995,-8.6995,-8.6995,-8.696,-8.6925,-8.6392,-8.5692,-8.5616,-8.5039,-8.4272,-8.4272,-8.4231,-8.4058,-8.3244,-8.2453,-8.181,-8.181,-8.181,-8.181,-8.181,-8.181,-8.181,-8.181,-8.181,-8.181,-8.181,-8.181,-8.181,-8.181,-8.181,-8.181,-8.181,-8.181,-8.181,-8.181,-8.181,-8.181,-8.181,-8.181,-8.181,-8.181,-8.181,-8.181,-8.181,-8.1155,-8.0707,-8.0638,-7.9062,-7.7755,-7.6965,-7.6896,-7.6942,-7.7133,-7.7133,-7.7009,-7.6748,-7.7009,-7.7009,-7.6748,-7.7043,-7.7178,-7.7223,-7.7223,-7.7223,-7.7178,-7.6918,-7.6793,-7.6793,-7.6748,-7.6748,-7.6782,-7.6507,-7.6449,-7.6402,-7.5947,-7.5709,-7.5709,-7.5757,-7.5709,-7.5709,-8.599,-8.6536,-8.6995,-8.6995,-8.6995,-8.6995,-8.6995,-8.6995,-8.6995,-8.6995,-8.6995,-8.6995,-8.6995,-8.6995,-8.6995,-8.6995,-8.6995,-8.6995,-8.6995,-8.6995,-8.6995,-8.6995,-8.6995,-8.6995,-8.6995,-8.6995,-8.6995,-8.6995,-8.6995,-8.6995,-8.6995,-8.6995,-8.6995,-8.6995,-8.6995,-8.6995,-8.6995,-8.6995,-8.6995,-8.6925,-8.6283,-8.5842,-8.5616,-8.492,-8.4148,-8.3375,-8.3375,-8.2926,-8.2315,-8.2118,-8.1965,-8.181,-8.181,-8.181,-8.181,-8.181,-8.181,-8.181,-8.181,-8.181,-8.181,-8.181,-8.181,-8.181,-8.181,-8.181,-8.181,-8.181,-8.181,-8.181,-8.181,-8.181,-8.181,-8.181,-8.181,-8.181,-8.181,-8.181,-8.181,-8.181,-8.1638,-8.1293,-8.0672,-7.9543,-7.8544,-7.7789,-7.7535,-7.7203,-7.6667,-7.6633,-7.6633,-7.6587,-7.6633,-7.6633,-7.6587,-7.6633,-7.6816,-7.7223,-7.7223,-7.7223,-7.7178,-7.6918,-7.6793,-7.6793,-7.6414,-7.6402,-7.6541,-7.6041,-7.5994,-7.6169,-7.6075,-7.5899,-7.5757,-7.5933,-7.5852,-7.5709,-8.5616,-8.6064,-8.65,-8.6925,-8.6995,-8.6995,-8.6995,-8.6995,-8.6995,-8.6995,-8.6995,-8.6995,-8.6995,-8.6995,-8.6995,-8.6995,-8.6995,-8.6995,-8.6995,-8.6995,-8.6995,-8.6995,-8.6995,-8.6995,-8.6995,-8.6995,-8.6995,-8.6995,-8.6995,-8.6995,-8.6995,-8.6995,-8.6995,-8.6995,-8.6995,-8.6995,-8.696,-8.6572,-8.6392,-8.632,-8.5425,-8.484,-8.4396,-8.3939,-8.3235,-8.2498,-8.2498,-8.2211,-8.181,-8.181,-8.181,-8.181,-8.181,-8.181,-8.181,-8.181,-8.181,-8.181,-8.181,-8.181,-8.181,-8.181,-8.181,-8.181,-8.181,-8.181,-8.181,-8.181,-8.181,-8.181,-8.181,-8.181,-8.181,-8.181,-8.181,-8.181,-8.181,-8.181,-8.181,-8.181,-8.181,-8.1453,-8.0566,-7.9977,-7.9287,-7.8404,-7.7887,-7.7417,-7.7042,-7.67,-7.6449,-7.6309,-7.6449,-7.6449,-7.6309,-7.6449,-7.6633,-7.6862,-7.6862,-7.6862,-7.6862,-7.6691,-7.6599,-7.6461,-7.6356,-7.6309,-7.6309,-7.6028,-7.5947,-7.6075,-7.5947,-7.5805,-7.5709,-7.5852,-7.5805,-7.5709,-8.5117,-8.5386,-8.573,-8.6643,-8.6786,-8.6856,-8.696,-8.6995,-8.6995,-8.6995,-8.6995,-8.6995,-8.6995,-8.6995,-8.6995,-8.6995,-8.6995,-8.6995,-8.6995,-8.6995,-8.6995,-8.6995,-8.6995,-8.6995,-8.6995,-8.6995,-8.6995,-8.6995,-8.6995,-8.6995,-8.6995,-8.6995,-8.6925,-8.6786,-8.6786,-8.6679,-8.6536,-8.5767,-8.5502,-8.5425,-8.4518,-8.3727,-8.3103,-8.2926,-8.2453,-8.181,-8.181,-8.181,-8.181,-8.181,-8.181,-8.181,-8.181,-8.181,-8.181,-8.181,-8.181,-8.181,-8.181,-8.181,-8.181,-8.1763,-8.1763,-8.181,-8.1763,-8.1763,-8.181,-8.181,-8.1763,-8.1763,-8.1763,-8.1715,-8.1633,-8.1633,-8.1633,-8.1633,-8.1633,-8.1633,-8.1633,-8.1633,-8.1633,-8.1345,-8.0501,-8.0419,-7.9933,-7.8907,-7.8245,-7.7788,-7.7652,-7.697,-7.6467,-7.6232,-7.6331,-7.6262,-7.6028,-7.6262,-7.6356,-7.6356,-7.6356,-7.6402,-7.6495,-7.6495,-7.6402,-7.6169,-7.6356,-7.6356,-7.6169,-7.6075,-7.6075,-7.6075,-7.5852,-7.5757,-7.5709,-7.5709,-7.5709,-7.5709,-8.3418,-8.4065,-8.484,-8.573,-8.5878,-8.6138,-8.6891,-8.6995,-8.6995,-8.6995,-8.6995,-8.6995,-8.6995,-8.6995,-8.6995,-8.6995,-8.6995,-8.6995,-8.6995,-8.6995,-8.6995,-8.6995,-8.6995,-8.6995,-8.6995,-8.6995,-8.6995,-8.6995,-8.6995,-8.6995,-8.6995,-8.6995,-8.6608,-8.5878,-8.5878,-8.5463,-8.472,-8.4599,-8.4559,-8.4477,-8.3634,-8.3235,-8.3015,-8.2222,-8.1918,-8.181,-8.181,-8.181,-8.181,-8.181,-8.181,-8.181,-8.181,-8.181,-8.181,-8.181,-8.181,-8.181,-8.181,-8.181,-8.1763,-8.149,-8.1668,-8.1763,-8.149,-8.1633,-8.181,-8.181,-8.162,-8.1442,-8.1442,-8.1248,-8.1102,-8.1102,-8.1102,-8.1102,-8.1102,-8.1102,-8.1102,-8.1102,-8.1102,-8.1068,-8.0917,-8.0687,-8.0232,-7.9435,-7.9103,-7.8616,-7.7972,-7.7227,-7.6855,-7.6773,-7.6177,-7.5805,-7.5757,-7.5805,-7.5805,-7.5805,-7.5805,-7.6041,-7.6495,-7.6495,-7.6495,-7.6449,-7.6262,-7.6262,-7.6402,-7.5947,-7.5899,-7.6122,-7.6075,-7.5899,-7.5709,-7.5709,-7.5709,-7.5709,-8.3015,-8.3418,-8.3939,-8.4801,-8.496,-8.527,-8.6138,-8.6283,-8.6428,-8.6925,-8.6995,-8.6995,-8.6995,-8.6995,-8.6995,-8.6995,-8.6995,-8.6995,-8.6995,-8.6995,-8.6995,-8.6995,-8.6995,-8.6749,-8.6283,-8.6283,-8.6027,-8.554,-8.6536,-8.6749,-8.6283,-8.6283,-8.5805,-8.496,-8.496,-8.4761,-8.4355,-8.3854,-8.3677,-8.3591,-8.2736,-8.2361,-8.2315,-8.1965,-8.181,-8.181,-8.181,-8.181,-8.181,-8.181,-8.181,-8.181,-8.181,-8.181,-8.181,-8.181,-8.181,-8.181,-8.181,-8.181,-8.1763,-8.1668,-8.1715,-8.1763,-8.1668,-8.1715,-8.1763,-8.162,-8.149,-8.1345,-8.12,-8.1102,-8.1005,-8.1005,-8.1005,-8.1005,-8.1005,-8.1005,-8.1005,-8.1005,-8.1005,-8.1005,-8.1005,-8.0906,-8.0622,-8.0134,-7.9627,-7.9106,-7.8619,-7.7908,-7.7333,-7.6927,-7.6555,-7.6149,-7.5709,-7.5709,-7.5709,-7.5709,-7.5709,-7.5805,-7.6041,-7.6041,-7.6041,-7.6041,-7.5899,-7.5947,-7.6041,-7.5805,-7.5757,-7.5852,-7.5852,-7.5805,-7.5709,-7.5709,-7.5709,-7.5709]},{"header":{"parameterUnit":"m.s-1","parameterCategory":1,"la1":30.6,"la2":28.766,"lo1":-90.7593,"lo2":-88.6598,"dy":0.0162,"dx":0.0183,"nx":116,"ny":114,"refTime":"2023-04-01T06:00:00:Z","depth":0,"parameterNumber":3,"parameterNumberName":"V-component_of_WINDS"},"data":[0.0,0.0,0.0,0.0,0.0,0.0,0.0,0.0,0.0,0.0,0.0,0.0,0.0,0.0,0.0,0.0,0.0,0.0,0.0,0.0,0.0,0.0,0.0,0.0,0.0,0.0,0.0,0.0,0.0,0.0,0.0,0.0,0.0,0.0,0.0,0.0,0.0,0.0,0.0,0.0,0.0,0.0,0.0,0.0,0.0,0.0,0.0,0.0,0.0,0.0,0.0,0.0,0.0,0.0,0.0,0.0,0.0,0.0,0.0,0.0,0.0,0.0,0.0,0.0,0.0,0.0,0.0,0.0,0.0,0.0,0.0,0.0,0.0,0.0,0.0,0.0,0.0,0.0,0.0,0.0,0.0,0.0,0.0,0.0,0.0,0.0,0.0,0.0,0.0,0.0,0.0,0.0,0.0,0.0,0.0,0.0,0.0,0.0,0.0,0.0,0.0,0.0,0.0,0.0,0.0,0.0,0.0,0.0,0.0,0.0,0.0,0.0,0.0,0.0,0.0,0.0,0.0,0.0,0.0,0.0,0.0,0.0,0.0,0.0,0.0,0.0,0.0,0.0,0.0,0.0,0.0,0.0,0.0,0.0,0.0,0.0,0.0,0.0,0.0,0.0,0.0,0.0,0.0,0.0,0.0,0.0,0.0,0.0,0.0,0.0,0.0,0.0,0.0,0.0,0.0,0.0,0.0,0.0,0.0,0.0,0.0,0.0,0.0,0.0,0.0,0.0,0.0,0.0,0.0,0.0,0.0,0.0,0.0,0.0,0.0,0.0,0.0,0.0,0.0,0.0,0.0,0.0,0.0,0.0,0.0,0.0,0.0,0.0,0.0,0.0,0.0,0.0,0.0,0.0,0.0,0.0,0.0,0.0,0.0,0.0,0.0,0.0,0.0,0.0,0.0,0.0,0.0,0.0,0.0,0.0,0.0,0.0,0.0,0.0,0.0,0.0,0.0,0.0,0.0,0.0,0.0,0.0,0.0,0.0,0.0,0.0,0.0,0.0,0.0,0.0,0.0,0.0,0.0,0.0,0.0,0.0,0.0,0.0,0.0,0.0,0.0,0.0,0.0,0.0,0.0,0.0,0.0,0.0,0.0,0.0,0.0,0.0,0.0,0.0,0.0,0.0,0.0,0.0,0.0,0.0,0.0,0.0,0.0,0.0,0.0,0.0,0.0,0.0,0.0,0.0,0.0,0.0,0.0,0.0,0.0,0.0,0.0,0.0,0.0,0.0,0.0,0.0,0.0,0.0,0.0,0.0,0.0,0.0,0.0,0.0,0.0,0.0,0.0,0.0,0.0,0.0,0.0,0.0,0.0,0.0,0.0,0.0,0.0,0.0,0.0,0.0,0.0,0.0,0.0,0.0,0.0,0.0,0.0,0.0,0.0,0.0,0.0,0.0,0.0,0.0,0.0,0.0,0.0,0.0,0.0,0.0,0.0,0.0,0.0,0.0,0.0,0.0,0.0,0.0,0.0,0.0,0.0,0.0,0.0,0.0,0.0,0.0,0.0,0.0,0.0,0.0,0.0,0.0,0.0,0.0,0.0,0.0,0.0,0.0,0.0,0.0,0.0,0.0,0.0,0.0,0.0,0.0,0.0,0.0,0.0,0.0,0.0,0.0,0.0,0.0,0.0,0.0,0.0,0.0,0.0,0.0,0.0,0.0,0.0,0.0,0.0,0.0,0.0,0.0,0.0,0.0,0.0,0.0,0.0,0.0,0.0,0.0,0.0,0.0,0.0,0.0,0.0,0.0,0.0,0.0,0.0,0.0,0.0,0.0,0.0,0.0,0.0,0.0,0.0,0.0,0.0,0.0,0.0,0.0,0.0,0.0,0.0,0.0,0.0,0.0,0.0,0.0,0.0,0.0,0.0,0.0,0.0,0.0,0.0,0.0,0.0,0.0,0.0,0.0,0.0,0.0,0.0,0.0,0.0,0.0,0.0,0.0,0.0,0.0,0.0,0.0,0.0,0.0,0.0,0.0,0.0,0.0,0.0,0.0,0.0,0.0,0.0,0.0,0.0,0.0,0.0,0.0,0.0,0.0,0.0,0.0,0.0,0.0,0.0,0.0,0.0,0.0,0.0,0.0,0.0,0.0,0.0,0.0,0.0,0.0,0.0,0.0,0.0,0.0,0.0,0.0,0.0,0.0,0.0,0.0,0.0,0.0,0.0,0.0,0.0,0.0,0.0,0.0,0.0,0.0,0.0,0.0,0.0,0.0,0.0,0.0,0.0,0.0,0.0,0.0,0.0,0.0,0.0,0.0,0.0,0.0,0.0,0.0,0.0,0.0,0.0,0.0,0.0,0.0,0.0,0.0,0.0,0.0,0.0,0.0,0.0,0.0,0.0,0.0,0.0,0.0,0.0,0.0,0.0,0.0,0.0,0.0,0.0,0.0,0.0,0.0,0.0,0.0,0.0,0.0,0.0,0.0,0.0,0.0,0.0,0.0,0.0,0.0,0.0,0.0,0.0,0.0,0.0,0.0,0.0,0.0,0.0,0.0,0.0,0.0,0.0,0.0,0.0,0.0,0.0,0.0,0.0,0.0,0.0,0.0,0.0,0.0,0.0,0.0,0.0,0.0,0.0,0.0,0.0,0.0,0.0,0.0,0.0,0.0,0.0,0.0,0.0,0.0,0.0,0.0,0.0,0.0,0.0,0.0,0.0,0.0,0.0,0.0,0.0,0.0,0.0,0.0,0.0,0.0,0.0,0.0,0.0,0.0,0.0,0.0,0.0,0.0,0.0,0.0,0.0,0.0,0.0,0.0,0.0,0.0,0.0,0.0,0.0,0.0,0.0,0.0,0.0,0.0,0.0,0.0,0.0,0.0,0.0,0.0,0.0,0.0,0.0,0.0,0.0,0.0,0.0,0.0,0.0,0.0,0.0,0.0,0.0,0.0,0.0,0.0,0.0,0.0,0.0,0.0,0.0,0.0,0.0,0.0,0.0,0.0,0.0,0.0,0.0,0.0,0.0,0.0,0.0,0.0,0.0,0.0,0.0,0.0,0.0,0.0,0.0,0.0,0.0,0.0,0.0,0.0,0.0,0.0,0.0,0.0,0.0,0.0,0.0,0.0,0.0,0.0,0.0,0.0,0.0,0.0,0.0,0.0,0.0,0.0,0.0,0.0,0.0,0.0,0.0,0.0,0.0,0.0,0.0,0.0,0.0,0.0,0.0,0.0,0.0,0.0,0.0,0.0,0.0,0.0,0.0,0.0,0.0,0.0,0.0,0.0,0.0,0.0,0.0,0.0,0.0,0.0,0.0,0.0,0.0,0.0,0.0,0.0,0.0,0.0,0.0,0.0,0.0,0.0,0.0,0.0,0.0,0.0,0.0,0.0,0.0,0.0,0.0,0.0,0.0,0.0,0.0,0.0,0.0,0.0,0.0,0.0,0.0,0.0,0.0,0.0,0.0,0.0,0.0,0.0,0.0,0.0,0.0,0.0,0.0,0.0,0.0,0.0,0.0,0.0,0.0,0.0,0.0,0.0,0.0,0.0,0.0,0.0,0.0,0.0,0.0,0.0,0.0,0.0,0.0,0.0,0.0,0.0,0.0,0.0,0.0,0.0,0.0,0.0,0.0,0.0,0.0,0.0,0.0,0.0,0.0,0.0,0.0,0.0,0.0,0.0,0.0,0.0,0.0,0.0,0.0,0.0,0.0,0.0,0.0,0.0,0.0,0.0,0.0,0.0,0.0,0.0,0.0,0.0,0.0,0.0,0.0,0.0,0.0,0.0,0.0,0.0,0.0,0.0,0.0,0.0,0.0,0.0,0.0,0.0,0.0,0.0,0.0,0.0,0.0,0.0,0.0,0.0,0.0,0.0,0.0,0.0,0.0,0.0,0.0,0.0,0.0,0.0,0.0,0.0,0.0,0.0,0.0,0.0,0.0,0.0,0.0,0.0,0.0,0.0,0.0,0.0,0.0,0.0,0.0,0.0,0.0,0.0,0.0,0.0,0.0,0.0,0.0,0.0,0.0,0.0,0.0,0.0,0.0,0.0,0.0,0.0,0.0,0.0,0.0,0.0,0.0,0.0,0.0,0.0,0.0,0.0,0.0,0.0,0.0,0.0,0.0,0.0,0.0,0.0,0.0,0.0,0.0,0.0,0.0,0.0,0.0,0.0,0.0,0.0,0.0,0.0,0.0,0.0,0.0,0.0,0.0,0.0,0.0,0.0,0.0,0.0,0.0,0.0,0.0,0.0,0.0,0.0,0.0,0.0,0.0,0.0,0.0,0.0,0.0,0.0,0.0,0.0,0.0,0.0,0.0,0.0,0.0,0.0,0.0,0.0,0.0,0.0,0.0,0.0,0.0,0.0,0.0,0.0,0.0,0.0,0.0,0.0,0.0,0.0,0.0,0.0,0.0,0.0,0.0,0.0,0.0,0.0,0.0,0.0,0.0,0.0,0.0,0.0,0.0,0.0,0.0,0.0,0.0,0.0,0.0,0.0,0.0,0.0,0.0,0.0,0.0,0.0,0.0,0.0,0.0,0.0,0.0,0.0,0.0,0.0,0.0,0.0,0.0,0.0,0.0,0.0,0.0,0.0,0.0,0.0,0.0,0.0,0.0,0.0,0.0,0.0,0.0,0.0,0.0,0.0,0.0,0.0,0.0,0.0,0.0,0.0,0.0,0.0,0.0,0.0,0.0,0.0,0.0,0.0,0.0,0.0,0.0,0.0,0.0,0.0,0.0,0.0,0.0,0.0,0.0,0.0,0.0,0.0,0.0,0.0,0.0,0.0,0.0,0.0,0.0,0.0,0.0,0.0,0.0,0.0,0.0,0.0,0.0,0.0,0.0,0.0,0.0,0.0,0.0,0.0,0.0,0.0,0.0,0.0,0.0,0.0,0.0,0.0,0.0,0.0,0.0,0.0,0.0,0.0,0.0,0.0,0.0,0.0,0.0,0.0,0.0,0.0,0.0,0.0,0.0,0.0,0.0,0.0,0.0,0.0,0.0,0.0,0.0,0.0,0.0,0.0,0.0,0.0,0.0,0.0,0.0,0.0,0.0,0.0,0.0,0.0,0.0,0.0,0.0,0.0,0.0,0.0,0.0,0.0,0.0,0.0,0.0,0.0,0.0,0.0,0.0,0.0,0.0,0.0,0.0,0.0,0.0,0.0,0.0,0.0,0.0,0.0,0.0,0.0,0.0,0.0,0.0,0.0,0.0,0.0,0.0,0.0,0.0,0.0,0.0,0.0,0.0,0.0,0.0,0.0,0.0,0.0,0.0,0.0,0.0,0.0,0.0,0.0,0.0,0.0,0.0,0.0,0.0,0.0,0.0,0.0,0.0,0.0,0.0,0.0,0.0,0.0,0.0,0.0,0.0,0.0,0.0,0.0,0.0,0.0,0.0,0.0,0.0,0.0,0.0,0.0,0.0,0.0,0.0,0.0,0.0,0.0,0.0,0.0,0.0,0.0,0.0,0.0,0.0,0.0,0.0,0.0,0.0,0.0,0.0,0.0,0.0,0.0,0.0,0.0,0.0,0.0,0.0,0.0,0.0,0.0,0.0,0.0,0.0,0.0,0.0,0.0,0.0,0.0,0.0,0.0,0.0,0.0,0.0,0.0,0.0,0.0,0.0,0.0,0.0,0.0,0.0,0.0,0.0,0.0,0.0,0.0,0.0,0.0,0.0,0.0,0.0,0.0,0.0,0.0,0.0,0.0,0.0,0.0,0.0,0.0,0.0,0.0,0.0,0.0,0.0,0.0,0.0,0.0,0.0,0.0,0.0,0.0,0.0,0.0,0.0,0.0,0.0,0.0,0.0,0.0,0.0,0.0,0.0,0.0,0.0,0.0,0.0,0.0,0.0,0.0,0.0,0.0,0.0,0.0,0.0,0.0,0.0,0.0,0.0,0.0,0.0,0.0,0.0,0.0,0.0,0.0,0.0,0.0,0.0,0.0,0.0,0.0,0.0,0.0,0.0,0.0,0.0,0.0,0.0,0.0,0.0,0.0,0.0,0.0,0.0,0.0,0.0,0.0,0.0,0.0,0.0,0.0,0.0,0.0,0.0,0.0,0.0,0.0,0.0,0.0,0.0,0.0,0.0,0.0,0.0,0.0,0.0,0.0,0.0,0.0,2.3386,2.3257,0.0,0.0,0.0,0.0,0.0,0.0,0.0,0.0,0.0,0.0,0.0,0.0,0.0,0.0,0.0,0.0,0.0,0.0,0.0,0.0,0.0,0.0,0.0,0.0,0.0,0.0,0.0,0.0,0.0,0.0,0.0,0.0,0.0,0.0,0.0,0.0,0.0,0.0,2.216,2.2928,2.2928,2.2928,2.2928,2.2928,0.0,0.0,0.0,0.0,0.0,0.0,0.0,0.0,0.0,0.0,0.0,0.0,0.0,0.0,0.0,0.0,0.0,0.0,0.0,0.0,0.0,0.0,0.0,0.0,0.0,0.0,0.0,0.0,0.0,0.0,0.0,0.0,0.0,0.0,0.0,0.0,0.0,0.0,0.0,0.0,0.0,0.0,0.0,0.0,0.0,0.0,0.0,0.0,0.0,0.0,0.0,0.0,0.0,0.0,0.0,0.0,0.0,0.0,0.0,0.0,0.0,0.0,0.0,0.0,0.0,0.0,0.0,0.0,0.0,0.0,2.3674,2.3621,0.0,0.0,0.0,0.0,0.0,0.0,0.0,0.0,0.0,0.0,0.0,0.0,0.0,0.0,0.0,0.0,0.0,0.0,0.0,0.0,0.0,0.0,0.0,0.0,1.3904,1.3904,1.3904,1.3904,0.0,0.0,0.0,0.0,0.0,0.0,0.0,1.9715,2.1183,2.2516,2.2791,2.2928,2.2928,2.2928,2.2928,2.2928,2.2928,0.0,0.0,0.0,0.0,0.0,0.0,0.0,0.0,0.0,0.0,0.0,0.0,0.0,0.0,0.0,0.0,0.0,0.0,0.0,0.0,0.0,0.0,0.0,0.0,0.0,0.0,0.0,0.0,0.0,0.0,0.0,0.0,0.0,0.0,0.0,0.0,0.0,0.0,0.0,0.0,0.0,0.0,0.0,0.0,0.0,0.0,0.0,0.0,0.0,0.0,0.0,0.0,0.0,0.0,0.0,0.0,0.0,0.0,0.0,0.0,0.0,0.0,0.0,2.3768,2.3768,2.3768,2.3768,2.3794,2.3848,2.3794,2.3941,2.4168,2.3674,0.0,0.0,0.0,0.0,0.0,0.0,0.0,0.0,0.0,0.0,0.0,0.0,0.0,0.0,0.0,0.0,0.0,0.0,0.0,0.0,0.0,1.3904,1.3904,1.3904,1.3904,1.3904,0.0,0.0,0.0,0.0,0.0,0.0,1.6433,1.9158,2.0698,2.0906,2.2229,2.2928,2.2928,2.2928,2.2928,2.2928,2.2928,2.2928,2.2928,0.0,0.0,0.0,0.0,0.0,0.0,0.0,0.0,0.0,0.0,0.0,0.0,0.0,0.0,0.0,0.0,0.0,0.0,0.0,0.0,0.0,0.0,0.0,0.0,0.0,0.0,0.0,0.0,0.0,0.0,0.0,0.0,0.0,0.0,0.0,0.0,0.0,0.0,0.0,0.0,0.0,2.3434,2.3728,0.0,0.0,0.0,0.0,0.0,0.0,0.0,0.0,0.0,0.0,0.0,0.0,0.0,2.3474,2.3768,2.3514,2.3514,2.3768,2.3768,2.3768,2.3768,2.3768,2.3915,2.4128,2.3875,0.0,2.4195,2.4115,0.0,0.0,0.0,0.0,0.0,0.0,0.0,0.0,0.0,0.0,0.0,0.0,0.0,0.0,0.0,0.0,0.0,0.0,0.0,0.0,0.0,1.3904,1.3904,1.3904,1.3904,1.3904,1.3904,1.3904,0.0,0.0,0.0,1.6503,1.7338,1.9507,2.1044,2.1885,2.2585,2.2928,2.2928,2.2928,2.2928,2.2928,2.2928,2.2928,2.2928,2.2928,0.0,0.0,0.0,0.0,0.0,0.0,0.0,0.0,0.0,0.0,0.0,0.0,0.0,0.0,0.0,0.0,0.0,0.0,0.0,0.0,0.0,0.0,0.0,0.0,0.0,0.0,0.0,0.0,0.0,0.0,0.0,0.0,0.0,0.0,0.0,0.0,0.0,0.0,0.0,2.338,2.3688,2.3981,2.3875,2.3714,0.0,0.0,0.0,0.0,0.0,0.0,0.0,0.0,0.0,2.3754,2.3487,2.3474,2.3768,2.3647,2.3647,2.3768,2.3768,2.3768,2.3768,2.3768,2.3928,2.4195,2.4075,2.4182,2.4436,2.4275,2.4209,2.4182,0.0,0.0,0.0,0.0,2.3581,2.3594,0.0,0.0,0.0,0.0,0.0,0.0,0.0,0.0,0.0,0.0,0.0,0.0,1.3904,1.3904,1.3904,1.3904,1.3904,1.3904,1.3904,1.3904,0.0,0.0,1.5867,1.6846,1.8379,2.0201,2.1747,2.2928,2.2928,2.2928,2.2928,2.2928,2.2928,2.2928,2.2928,2.2928,2.2928,2.2928,2.2928,2.2928,0.0,0.0,0.0,0.0,0.0,0.0,0.0,0.0,0.0,0.0,0.0,0.0,0.0,0.0,0.0,0.0,0.0,0.0,0.0,0.0,0.0,0.0,0.0,0.0,0.0,0.0,0.0,0.0,0.0,0.0,0.0,0.0,0.0,0.0,0.0,0.0,0.0,2.3581,2.3875,2.4168,2.4075,2.3968,0.0,0.0,0.0,0.0,0.0,0.0,2.3647,2.3447,2.346,2.3754,2.3487,2.3474,2.3768,2.3701,2.3701,2.3768,2.3768,2.3768,2.3768,2.3768,2.3928,2.4209,2.4209,2.4369,2.4549,2.4396,2.4315,2.4302,2.4235,2.4075,2.3888,2.3888,2.3888,2.3888,0.0,0.0,0.0,0.0,0.0,0.0,0.0,0.0,0.0,0.0,0.0,1.3904,1.3904,1.3904,1.3904,1.3904,1.3904,1.3904,1.3904,1.3904,1.3904,1.4039,1.5381,1.6846,1.8379,2.1252,2.2791,2.2928,2.2928,2.2928,2.2928,2.2928,2.2928,2.2928,2.2928,2.2928,2.2928,2.2928,2.2928,2.2928,2.2928,0.0,0.0,0.0,0.0,0.0,0.0,0.0,0.0,0.0,0.0,0.0,0.0,0.0,0.0,0.0,0.0,0.0,0.0,0.0,0.0,0.0,0.0,0.0,0.0,0.0,0.0,0.0,0.0,0.0,0.0,0.0,0.0,0.0,0.0,0.0,0.0,0.0,0.0,2.4168,2.4436,0.0,0.0,0.0,0.0,2.3354,2.3073,2.3033,2.334,2.334,2.346,2.3754,2.3487,2.3474,2.3768,2.3487,2.3487,2.3768,2.3768,2.3768,2.3768,2.3768,2.3928,2.4209,2.4209,2.4369,2.4636,2.4623,2.4609,2.4583,2.4315,2.4195,2.4182,2.4182,2.4182,2.4222,0.0,0.0,0.0,0.0,0.0,0.0,0.0,0.0,1.3904,1.3904,1.3904,1.3904,1.3904,1.3904,1.3904,1.3904,1.3904,1.3904,1.3904,1.3904,1.4324,1.5239,1.6775,1.874,2.1252,2.139,2.1885,2.2928,2.2928,2.2928,2.2928,2.2928,2.2928,2.2928,2.2928,2.2928,2.2928,2.2928,2.2928,2.2928,2.2928,2.2928,0.0,0.0,0.0,0.0,0.0,0.0,0.0,0.0,0.0,0.0,0.0,0.0,0.0,0.0,0.0,0.0,0.0,0.0,0.0,0.0,0.0,0.0,0.0,0.0,0.0,0.0,0.0,0.0,0.0,0.0,0.0,0.0,0.0,0.0,0.0,0.0,0.0,2.4168,2.4289,0.0,2.4209,2.4115,2.4008,2.3901,2.3794,2.3848,2.4155,2.3808,2.3741,2.4035,2.3768,2.3661,2.3768,2.3661,2.3661,2.3768,2.3768,2.3768,2.3768,2.3768,2.3928,2.4209,2.4209,2.4369,2.4636,2.4636,2.4636,2.4623,2.4516,2.4476,2.4476,2.4476,2.4476,2.4489,0.0,0.0,0.0,0.0,0.0,0.0,0.0,0.0,1.3904,1.3904,1.3904,1.3904,1.3904,1.3904,1.3904,1.3904,1.3904,1.3904,1.3904,1.3904,1.4324,1.531,1.7338,1.9576,2.2091,2.1609,2.1885,2.2928,2.2928,2.2928,2.2928,2.2928,2.2928,2.2928,2.2928,2.2928,2.2928,2.2928,2.2928,2.2928,2.2928,2.2928,2.2928,0.0,0.0,0.0,0.0,0.0,0.0,0.0,0.0,0.0,0.0,0.0,0.0,0.0,0.0,0.0,0.0,0.0,0.0,0.0,0.0,0.0,0.0,0.0,0.0,0.0,0.0,0.0,0.0,0.0,0.0,0.0,0.0,0.0,0.0,2.3728,2.3981,2.4182,2.4289,2.4342,2.4342,2.4342,2.4342,2.4342,2.4342,2.4396,2.4489,2.4128,2.3955,2.4062,2.3875,2.3821,2.3915,2.4008,2.4115,2.4209,2.4315,2.4356,2.4356,2.4356,2.4462,2.4649,2.4649,2.4756,2.493,2.493,2.493,2.4917,2.4716,2.4636,2.4636,2.4636,2.4636,2.4636,0.0,0.0,0.0,0.0,0.0,0.0,0.0,1.3904,1.3904,1.3904,1.3904,1.3904,1.3904,1.3904,1.3904,1.3904,1.3904,1.3904,1.3904,1.3975,1.3967,1.4039,1.6846,1.9089,2.056,2.2091,2.2928,2.2928,2.2928,2.2928,2.2928,2.2928,2.2928,2.2928,2.2928,2.2928,2.2928,2.2928,2.2928,2.2928,2.2928,2.2928,2.2928,0.0,0.0,0.0,0.0,0.0,0.0,0.0,0.0,0.0,0.0,0.0,0.0,0.0,0.0,0.0,0.0,0.0,0.0,0.0,0.0,0.0,0.0,0.0,0.0,0.0,0.0,0.0,0.0,0.0,0.0,0.0,0.0,0.0,2.3741,2.4022,2.4209,2.4209,2.4462,2.4636,2.4636,2.4636,2.4636,2.4636,2.4549,2.4502,2.4235,2.4222,2.4088,2.3821,2.3821,2.3955,2.4235,2.4529,2.481,2.5104,2.5384,2.5518,2.5518,2.5518,2.5518,2.5518,2.5518,2.5518,2.5518,2.5518,2.5518,2.5451,2.4877,2.4649,2.4649,2.4562,2.4636,2.4636,0.0,0.0,0.0,0.0,0.0,0.0,0.0,1.3904,1.3904,1.3904,1.3904,1.3904,1.3904,1.3904,1.3904,1.3904,1.3904,1.3904,1.3904,1.4884,1.6009,1.7127,1.7959,1.9089,2.056,2.2091,2.2928,2.2928,2.2928,2.2928,2.2928,2.2928,2.2928,2.2928,2.2928,2.2928,2.2928,2.2928,2.2928,2.2928,2.2928,2.2928,2.2928,0.0,0.0,0.0,0.0,0.0,0.0,0.0,0.0,0.0,0.0,0.0,0.0,0.0,0.0,0.0,0.0,0.0,0.0,0.0,0.0,0.0,0.0,0.0,0.0,0.0,0.0,0.0,0.0,0.0,0.0,0.0,2.3821,2.3995,2.4075,2.4155,2.4289,2.4489,2.4596,2.4636,2.4636,2.4636,2.4636,2.4636,2.4436,2.4382,2.4516,2.4516,2.4583,2.4716,2.493,2.5077,2.5157,2.5237,2.5317,2.5398,2.5478,2.5518,2.5518,2.5518,2.5518,2.5518,2.5518,2.5518,2.5518,2.5518,2.5518,2.5478,2.5104,2.4957,2.493,2.4716,2.4636,2.4636,0.0,0.0,0.0,0.0,0.0,0.0,0.0,1.3904,1.3904,1.3904,1.3904,1.3904,1.3904,1.3904,1.3904,1.3904,1.3904,1.4181,1.4742,1.5593,1.6775,1.8309,1.8379,1.9367,2.154,2.2448,2.2928,2.2928,2.2928,2.2928,2.2928,2.2928,2.2928,2.2928,2.2928,2.2928,2.2928,2.2928,2.2928,2.2928,2.2928,2.2928,2.2928,2.2928,2.2928,2.2928,2.2928,2.2928,2.2954,2.3006,0.0,0.0,0.0,0.0,0.0,0.0,0.0,0.0,0.0,0.0,0.0,0.0,0.0,0.0,0.0,0.0,0.0,0.0,0.0,0.0,0.0,0.0,0.0,0.0,2.4022,2.4249,2.4369,2.4382,2.4449,2.4609,2.4636,2.4636,2.4636,2.4636,2.469,2.481,2.4663,2.4703,2.4983,2.501,2.5077,2.5251,2.5424,2.5518,2.5518,2.5638,2.5692,2.5705,2.5825,2.5879,2.5879,2.5879,2.5879,2.5879,2.5879,2.5879,2.5879,2.5879,2.5879,2.5838,0.0,0.0,0.0,0.0,2.501,2.501,0.0,0.0,0.0,0.0,0.0,0.0,0.0,1.3904,1.3912,1.3928,1.3912,1.3912,1.3928,1.3912,1.3904,1.3904,1.3904,1.4537,1.6009,1.6079,1.6775,1.8309,1.8379,1.9646,2.2297,2.2722,2.2791,2.2654,2.2791,2.2928,2.2928,2.2928,2.2928,2.2928,2.2928,2.2928,2.2928,2.2928,2.2928,2.2928,2.2928,2.2928,2.2928,2.2928,2.2928,2.2928,2.2928,2.2954,2.2953,2.3233,0.0,0.0,0.0,0.0,0.0,0.0,0.0,0.0,0.0,0.0,0.0,0.0,0.0,0.0,0.0,0.0,0.0,0.0,0.0,0.0,0.0,0.0,0.0,0.0,2.4062,2.4342,2.4596,2.4663,2.4676,2.4562,2.4663,2.469,2.469,2.4716,2.485,2.5104,2.513,2.5237,2.5504,2.5545,0.0,0.0,0.0,2.5611,2.5611,2.5879,2.609,2.609,2.6306,2.644,2.644,2.6466,2.6493,2.6493,2.6493,2.6493,2.648,2.6453,2.6413,2.6333,2.5785,2.5545,2.5518,2.5518,2.5518,2.5518,0.0,0.0,0.0,0.0,0.0,0.0,0.0,1.3904,1.3953,1.4107,1.3993,1.3961,1.4107,1.3993,1.3904,1.3904,1.3904,1.4537,1.6009,1.6079,1.6775,1.8309,1.8379,1.8659,1.9286,2.1665,2.231,2.1044,2.231,2.2928,2.2928,2.2928,2.2928,2.2928,2.2928,2.2928,2.2928,2.2928,2.2928,2.2928,2.2928,2.2928,2.2928,2.2928,2.2928,2.2928,2.2928,2.302,2.3247,2.33,2.3487,2.3701,2.3754,2.3567,0.0,0.0,0.0,0.0,0.0,0.0,0.0,0.0,0.0,0.0,0.0,0.0,0.0,0.0,0.0,0.0,0.0,0.0,0.0,2.4115,2.4369,2.4569,2.4549,2.4836,2.4903,2.4663,2.485,2.4997,2.4997,2.5211,2.5371,2.5424,2.5424,2.5451,2.5504,2.5745,2.5865,2.5865,2.6092,2.6226,2.6226,2.6279,2.6306,2.6306,2.66,0.0,2.6747,2.6987,2.7094,2.7094,2.7094,2.7094,2.7081,2.6841,2.66,2.636,2.5999,2.5718,2.5518,2.5518,2.5518,2.5518,0.0,0.0,0.0,0.0,0.0,0.0,0.0,1.3904,1.3937,1.4026,1.3961,1.3937,1.4026,1.3953,1.3904,1.3904,1.4537,1.5026,1.5026,1.5664,1.6775,1.8309,1.8379,1.874,1.9507,2.1734,2.216,2.0629,2.216,2.2928,2.2928,2.2928,2.2928,2.2928,2.2928,2.2928,2.2928,2.2928,2.2928,2.2928,2.2928,2.2928,2.2928,2.2928,2.2928,2.2928,2.2928,2.306,2.3354,2.35,2.3741,2.4008,2.4155,2.4008,2.3741,0.0,0.0,0.0,0.0,0.0,0.0,0.0,0.0,0.0,0.0,0.0,0.0,0.0,0.0,2.3768,2.3768,0.0,2.4209,2.4209,2.4569,2.4863,2.4863,2.5104,2.5184,2.489,2.5117,2.5291,2.5291,2.5424,2.5571,2.5718,2.5732,2.5798,2.5945,2.6092,2.6172,2.6172,2.6453,2.66,2.66,2.6894,2.7041,2.7041,2.7188,2.7255,2.7255,2.7268,2.7268,2.7268,2.7268,2.7268,2.7255,2.7108,2.6961,2.6814,2.6667,2.6346,2.5945,2.5945,2.5945,2.5945,0.0,0.0,0.0,0.0,0.0,0.0,0.0,1.3904,1.3912,1.3953,1.392,1.3912,1.3953,1.392,1.3904,1.3904,1.555,1.5843,1.4047,1.5621,1.7178,1.8379,1.8379,1.8949,2.0132,2.1953,2.2022,2.0144,2.2022,2.2928,2.2928,2.2928,2.2928,2.2928,2.2928,2.2928,2.2928,2.2928,2.2928,2.2928,2.2928,2.2928,2.2941,2.2926,2.2913,2.2941,2.2926,2.3113,2.338,2.3741,2.4008,2.4249,2.4543,2.4436,2.4155,2.3928,2.3808,0.0,0.0,0.0,0.0,0.0,0.0,0.0,0.0,2.3848,2.3875,2.3928,2.3941,2.3941,2.3941,2.4128,2.4302,2.4369,2.477,2.5104,2.5157,2.5411,2.5518,2.5277,2.5451,2.5598,2.5598,2.5651,2.5785,2.6026,2.6117,2.6146,2.6373,2.644,2.6493,2.656,2.6841,2.7014,2.7081,2.7495,2.7696,2.7696,2.7696,2.7696,2.7696,2.7522,2.7442,2.7442,2.7442,2.7402,2.7348,2.7348,2.7321,2.7268,2.7268,2.6974,2.656,2.656,2.656,2.6547,0.0,0.0,0.0,0.0,0.0,0.0,0.0,0.0,1.3961,1.4123,1.4002,1.3961,1.4131,1.4002,1.3904,1.3904,1.6739,1.7186,1.4118,1.681,1.8453,1.839,1.8379,1.8449,1.8659,2.1459,2.1527,1.8659,2.1527,2.2928,2.2928,2.2928,2.2928,2.2928,2.2928,2.2928,2.2928,2.2928,2.2928,2.2928,2.2928,2.2928,2.2954,2.3166,2.31,2.2899,2.318,2.33,2.3407,2.3968,2.4182,2.4249,2.4543,2.4436,2.4195,2.4168,2.3968,2.3701,2.3407,2.3354,2.338,2.338,2.3554,2.3794,0.0,2.4155,2.4222,2.4489,2.4543,2.4543,2.4543,2.4569,2.4676,2.4943,2.5037,2.517,2.5424,2.5718,2.5892,2.5865,2.597,2.5905,2.5905,2.6146,2.6306,2.6333,2.6346,2.636,2.6386,2.664,2.6894,2.7161,2.7455,2.7722,2.8073,2.7802,2.7696,2.7696,2.7696,2.7696,2.7709,2.7936,2.8127,2.8127,2.8127,2.7896,2.7655,2.7655,2.7495,2.7268,2.7268,2.7228,2.7161,2.7161,2.7161,2.7134,0.0,0.0,0.0,0.0,0.0,0.0,0.0,0.0,0.0,0.0,1.4517,1.3928,1.401,1.3945,1.3904,1.3904,1.6125,1.6568,1.4211,1.6374,1.8032,1.8799,1.8799,1.9228,2.0154,2.2147,2.2071,1.9935,2.1961,2.2928,2.2928,2.2928,2.2928,2.2928,2.2928,2.2928,2.2928,2.2928,2.2966,2.314,2.314,2.3233,2.3477,2.3541,2.35,2.338,2.334,2.3434,0.0,2.3861,2.4062,2.4249,2.4543,2.4436,2.4209,2.4209,2.3995,2.3781,2.3821,2.3714,2.3661,2.4008,2.4062,2.4102,2.4382,2.4449,2.4489,2.4609,2.4636,2.4636,2.4636,2.4783,2.493,2.5064,2.5371,2.5625,2.5758,2.6026,2.6213,2.6213,2.6213,2.6213,2.6213,2.6319,2.6386,2.6386,2.6547,2.672,2.6894,2.7175,2.7468,2.7846,2.7896,2.81,2.8221,2.8203,2.823,2.823,2.823,2.823,2.823,2.8163,2.8221,2.8221,2.8221,2.8154,2.7963,2.7963,2.7883,2.7859,2.7859,2.7859,2.7819,2.7388,2.7268,2.7241,0.0,0.0,0.0,0.0,0.0,0.0,0.0,0.0,0.0,0.0,1.4537,1.3904,1.3904,1.3904,1.3904,1.3904,1.591,1.6318,1.4318,1.6296,1.7998,1.9028,1.9101,1.9826,2.1486,2.275,2.273,2.1207,2.251,2.3182,2.3182,2.3182,2.3182,2.3182,2.3182,2.3182,2.3182,2.3182,2.3247,2.3447,2.3447,2.3581,2.3781,2.3861,2.3834,2.3741,2.3527,2.3527,2.3661,2.3741,2.3861,2.4008,2.4302,2.4249,2.4088,2.4088,2.3875,2.3714,2.4008,2.3928,2.3888,2.4396,2.4422,2.4382,2.4596,2.4636,2.4636,2.4636,2.4636,2.4663,2.4743,2.493,2.513,2.5291,2.5678,2.6063,2.6066,2.6253,2.6386,2.6386,2.6386,2.6426,2.6507,2.644,2.6426,2.6507,2.6787,2.7068,2.7375,2.7655,2.7963,2.8257,2.827,2.831,2.839,2.8537,2.8604,2.8604,2.8524,2.8484,2.847,2.8328,2.8221,2.8221,2.8221,2.8221,2.8221,2.8221,2.8221,2.8221,2.8221,2.8221,2.8181,2.7752,2.7591,2.7578,0.0,0.0,0.0,0.0,0.0,0.0,0.0,0.0,0.0,0.0,0.0,0.0,0.0,1.3904,1.3904,1.3904,1.6829,1.7448,1.439,1.7233,1.9028,1.9101,1.9101,1.9826,2.1486,2.3028,2.3015,2.1486,2.3015,2.3741,2.3741,2.3741,2.3741,2.3741,2.3741,2.3741,2.3741,2.3741,2.3754,2.3754,2.3754,2.3768,2.3808,2.4088,2.4022,2.3768,2.3754,2.3581,2.338,2.3674,2.3581,2.3407,2.3701,2.3794,2.3781,2.3781,2.3581,2.3407,2.3701,2.3781,2.3848,2.4142,2.4422,2.4623,2.4636,2.4636,2.4636,2.4636,2.4636,2.473,2.501,2.5077,2.5264,2.5916,2.6023,2.6052,2.6333,2.6386,2.6386,2.6386,2.6386,2.6507,2.6787,2.656,2.6507,2.6787,2.7081,2.7375,2.7669,2.7963,2.827,2.8577,2.8591,2.8724,2.9005,2.8751,2.8604,2.8604,2.8297,2.8248,2.8248,2.8234,2.8221,2.8221,2.8221,2.8221,2.8221,2.8221,2.8221,2.8221,2.8221,2.8221,2.8221,2.8207,2.8207,2.8167,0.0,0.0,0.0,0.0,0.0,0.0,0.0,0.0,0.0,0.0,0.0,0.0,0.0,0.0,0.0,0.0,1.5981,1.6884,1.5741,1.7003,1.8232,1.9264,1.9488,2.0318,2.1957,2.3344,2.3832,2.3313,2.3647,2.3768,2.3768,2.3768,2.3768,2.3768,2.3768,2.3768,2.3768,2.3768,2.3888,2.4062,2.4062,2.4062,2.4075,2.4168,2.4022,2.3741,0.0,2.3407,2.334,2.3447,2.3407,2.338,2.3674,2.3634,2.3474,2.3474,2.3541,2.3688,2.3981,2.4062,2.4128,2.4422,2.4569,2.4636,2.4636,2.4636,2.4636,2.4636,2.4636,2.4663,2.477,2.4943,2.5211,2.5598,2.5825,2.6052,2.6346,2.6386,2.6386,2.6386,2.656,2.6707,2.6814,2.6734,2.6881,2.7362,2.7682,2.7976,2.8283,2.8577,2.8791,2.8898,2.8711,2.8657,2.8751,2.8457,2.8297,2.8297,2.8274,2.8221,2.8221,2.8221,2.8221,2.8221,2.8221,2.8221,2.8221,2.8221,2.8221,2.8221,2.8221,2.8221,2.8221,2.8221,2.8221,2.8207,0.0,0.0,0.0,0.0,0.0,0.0,0.0,0.0,0.0,0.0,0.0,0.0,0.0,0.0,0.0,0.0,0.0,1.6449,1.6371,1.6708,1.7551,1.9253,1.9478,2.0296,2.1933,2.3331,2.4048,2.4048,2.3968,2.3928,2.3928,2.4035,2.4075,2.4075,2.4075,2.4075,2.4075,2.4075,2.4128,2.4209,2.4209,2.4142,2.4048,2.4048,2.3861,0.0,2.3394,2.326,2.3166,2.3166,2.3166,2.322,2.3514,2.3487,2.3354,2.3447,2.3541,2.3701,2.4088,2.4209,2.4275,2.4569,2.4636,2.4636,2.4636,2.4636,2.4609,2.4502,2.4569,2.4636,2.4636,2.4877,2.5211,2.5611,2.5825,2.6052,2.6346,2.6386,2.6426,2.6533,2.6707,2.6947,2.7268,2.7295,2.7455,2.7829,2.8136,2.8444,2.8751,2.8845,2.8885,2.8885,2.8604,2.8444,2.8444,2.8328,2.8221,2.8221,2.8221,2.8221,2.8221,2.8221,2.8221,2.8221,2.8221,2.8221,2.8221,2.8221,2.8221,2.8221,2.8221,2.8221,2.8221,2.8221,2.8221,2.8221,0.0,0.0,0.0,0.0,0.0,0.0,0.0,0.0,0.0,0.0,0.0,0.0,0.0,0.0,0.0,0.0,0.0,0.0,1.6496,1.6443,1.726,1.9141,1.9235,1.9899,2.1486,2.3028,2.3768,2.3768,2.4048,2.4182,2.4195,2.4462,2.4596,2.4596,2.4596,2.4596,2.4596,2.4596,2.4436,2.4182,2.4182,2.4008,2.3754,2.3754,2.3567,2.33,2.33,2.3126,2.2954,2.2873,2.2941,2.2939,2.3247,2.3354,2.3407,2.3701,2.3594,2.35,2.4075,2.4222,2.4289,2.4569,2.4636,2.4636,2.4636,2.4623,2.4529,2.4262,2.4422,2.4609,2.4609,2.4863,2.5264,2.5916,2.6023,2.6052,2.6346,2.64,2.6507,2.6787,2.6867,2.7215,2.814,2.8261,2.8274,2.8274,2.8457,2.8751,2.9005,2.8751,2.8604,2.8577,2.8297,2.8221,2.8221,2.8221,2.8221,2.8221,2.8221,2.8221,2.8221,2.8221,2.8221,2.8221,2.8221,2.8221,2.8221,2.8221,2.8221,2.8221,2.8221,2.8221,2.8221,2.8221,2.8221,2.8221,0.0,0.0,0.0,0.0,0.0,0.0,0.0,0.0,0.0,0.0,0.0,0.0,0.0,0.0,0.0,0.0,0.0,0.0,1.7762,1.693,1.7622,2.0331,2.06,2.0922,2.1354,2.297,2.3768,2.3768,2.3848,2.3888,2.3888,2.3955,2.3995,2.3995,2.3995,2.3995,2.3995,2.3995,2.3941,2.3888,2.3888,2.3701,2.3447,2.3447,2.3247,2.2979,2.2979,2.3086,2.318,2.2939,2.302,2.326,2.3567,2.3661,2.3714,2.4008,2.4035,2.4062,2.4422,2.4529,2.4543,2.4549,2.4636,2.4636,2.4636,2.4476,2.4289,2.4222,2.4262,2.4315,2.4315,2.473,2.5197,2.5571,2.5812,2.6052,2.6346,2.6573,2.6734,2.6814,2.7402,2.798,2.8207,2.8551,2.8804,2.8804,2.8885,2.8871,2.8724,2.8644,2.8497,2.827,2.8274,2.8221,2.8221,2.8221,2.8221,2.8221,2.8221,2.8221,2.8221,2.8221,2.8221,2.8221,2.8221,2.8221,2.8221,2.8221,2.8221,2.8221,2.8221,2.8221,2.8221,2.8221,2.8221,2.8221,0.0,0.0,0.0,0.0,0.0,0.0,0.0,0.0,0.0,0.0,0.0,0.0,0.0,0.0,0.0,0.0,0.0,0.0,0.0,1.7733,1.8301,2.0707,2.0921,2.1005,2.1005,2.2582,2.3437,2.3437,2.3514,2.3581,2.3581,2.3714,2.3768,2.3768,2.3768,2.3768,2.3768,2.3768,2.3701,0.0,0.0,2.3394,2.3126,2.3126,2.302,2.2928,2.2928,2.306,2.3327,2.3273,2.346,2.3741,2.3901,2.3968,2.4022,2.4302,2.4302,2.4262,2.4556,2.4636,2.4636,2.4636,2.4636,2.4609,2.4476,2.4315,2.4128,2.3875,2.4022,2.4168,2.4035,2.4596,2.517,2.5464,2.5758,2.6052,2.6346,2.664,2.6921,2.7175,2.7762,2.8328,2.8511,2.8845,2.8991,2.8858,2.8845,2.8778,2.8617,2.8484,2.8323,2.8234,2.8221,2.8221,2.8221,2.8221,2.8221,2.8221,2.8221,2.8221,2.8221,2.8221,2.8221,2.8221,2.8221,2.8221,2.8221,2.8221,2.8221,2.8221,2.8221,2.8221,2.8221,2.8221,2.8221,2.8221,0.0,0.0,0.0,0.0,0.0,0.0,0.0,0.0,0.0,0.0,1.6651,0.0,0.0,0.0,0.0,0.0,0.0,0.0,0.0,0.0,0.0,2.0898,2.0931,2.0906,2.0906,2.2229,2.2928,2.2928,2.314,2.326,2.3273,2.3527,2.3647,2.3647,2.3647,2.3647,2.3647,2.3647,2.35,2.326,2.326,2.31,2.2928,0.0,0.0,2.2873,2.2913,2.3126,2.3434,2.3728,2.3995,2.4209,2.4249,2.4262,2.4315,2.4569,2.4462,2.4315,2.4569,2.4636,2.4636,2.4636,2.4636,2.4556,2.4262,2.4168,2.3995,2.3447,2.3768,2.4075,2.3821,2.4489,2.517,2.5464,2.5758,2.6052,2.6346,2.6667,2.7081,2.7629,2.8003,2.843,2.8991,2.9005,2.8871,2.8631,2.8564,2.8551,2.8551,2.8283,2.8221,2.8221,2.8221,2.8221,2.8221,2.8221,2.8221,2.8221,2.8221,2.8221,2.8221,2.8221,2.8221,2.8221,2.8221,2.8221,2.8221,2.8221,2.8221,2.8221,2.8221,2.8221,2.8221,2.8221,2.8221,2.8221,0.0,0.0,0.0,0.0,0.0,0.0,0.0,0.0,0.0,0.0,1.9476,1.7596,0.0,0.0,0.0,0.0,0.0,0.0,0.0,0.0,0.0,0.0,2.2648,2.2516,2.2516,2.2791,2.2928,2.2928,2.2913,2.2939,2.2939,2.2993,2.3088,2.3088,2.3088,2.3088,2.3088,2.3088,2.2993,2.2939,2.2939,2.2913,2.2928,2.2928,0.0,0.0,2.3153,2.3434,2.3741,2.4035,2.4155,2.4249,2.4489,2.4556,2.4569,2.4623,2.4596,2.4569,2.4623,2.4636,2.4636,2.4636,2.4636,2.4556,2.4262,2.4022,2.3741,2.3394,2.3607,2.3834,2.3781,2.4489,2.517,2.5464,2.5758,2.6052,2.6346,2.6854,2.7308,2.7655,2.819,2.8657,2.9005,2.8818,2.8657,2.8604,2.8364,2.8315,2.8315,2.8261,2.8221,2.8221,2.8221,2.8221,2.8221,2.8221,2.8221,2.8221,2.8221,2.8221,2.8221,2.8221,2.8221,2.8221,2.8221,2.8221,2.8221,2.8221,2.8221,2.8221,2.8221,2.8221,2.8221,2.8221,2.8221,2.8221,0.0,0.0,0.0,0.0,0.0,0.0,0.0,2.4422,2.3784,2.2081,2.1983,2.0766,1.7297,1.7633,1.8144,0.0,0.0,0.0,0.0,0.0,0.0,0.0,0.0,0.0,2.334,2.318,2.31,2.31,0.0,2.2928,2.2928,2.2928,2.2928,2.2928,2.2928,2.2928,2.2928,2.2928,2.2928,2.2928,2.2928,2.2928,0.0,0.0,0.0,0.0,0.0,2.3273,2.3554,2.3701,2.3848,2.4062,2.4489,2.4636,2.4609,2.4449,2.4516,2.4609,2.4449,2.4516,2.4636,2.4636,2.4636,2.4516,2.4075,2.3875,2.3634,2.318,2.3447,2.3768,2.3768,2.4489,2.513,2.5264,2.5665,2.5999,2.6146,2.68,2.7428,2.7883,2.8323,2.8724,2.9005,2.8778,2.8537,2.8377,2.823,2.8221,2.8221,2.8221,2.8221,2.8221,2.8221,2.8221,2.8221,2.8221,2.8221,2.8221,2.8221,2.8221,2.8221,2.8221,2.8221,2.8221,2.8221,2.8221,2.8221,2.8221,2.8221,2.8221,2.8221,2.8221,2.8221,2.8221,2.8221,2.8221,0.0,0.0,0.0,0.0,0.0,0.0,0.0,2.4636,2.4179,2.2905,2.3809,2.3555,2.0746,2.0117,1.9899,0.0,0.0,0.0,0.0,0.0,0.0,0.0,0.0,0.0,0.0,0.0,0.0,2.342,2.318,0.0,0.0,0.0,0.0,0.0,2.2954,2.2928,2.2928,2.2928,2.2928,0.0,0.0,2.2928,0.0,0.0,0.0,0.0,0.0,2.306,2.3327,2.3327,2.3527,2.3848,2.4302,2.4449,2.4422,2.4249,2.4369,2.4502,2.4342,2.4462,2.4636,2.4636,2.4636,2.4489,2.3901,2.3768,2.3594,2.2993,2.334,2.3768,2.3768,2.4436,2.501,2.5064,2.5518,2.5879,2.6023,2.6707,2.7482,2.8154,2.8364,2.8644,2.9005,2.8711,2.8404,2.8248,2.8221,2.8221,2.8221,2.8221,2.8221,2.8221,2.8221,2.8221,2.8221,2.8221,2.8221,2.8221,2.8221,2.8221,2.8221,2.8221,2.8221,2.8221,2.8221,2.8221,2.8221,2.8221,2.8221,2.8221,2.8221,2.8221,2.8221,2.8221,2.8221,2.8221,0.0,0.0,0.0,0.0,0.0,0.0,0.0,2.4636,2.4562,2.4414,2.4488,2.4462,2.4188,2.2818,2.1927,0.0,0.0,0.0,0.0,0.0,0.0,0.0,0.0,0.0,0.0,0.0,0.0,2.3728,2.3701,0.0,0.0,0.0,0.0,0.0,0.0,2.2928,2.2928,2.2928,0.0,0.0,0.0,0.0,0.0,0.0,0.0,0.0,0.0,2.306,2.3327,2.3327,2.3527,2.3781,2.3834,2.3848,2.3901,2.4142,2.4222,2.4289,2.4529,2.4609,2.4636,2.4636,2.4636,2.4489,2.3901,2.3768,2.3594,2.2993,2.334,2.3768,2.3768,2.4262,2.477,2.5037,2.5344,2.5651,2.5996,2.6707,2.7482,2.8154,2.8248,2.8417,2.8991,2.8524,2.8261,2.8234,2.8221,2.8221,2.8221,2.8221,2.8221,2.8221,2.8221,2.8221,2.8221,2.8221,2.8221,2.8221,2.8221,2.8221,2.8221,2.8221,2.8221,2.8221,2.8221,2.8221,2.8221,2.8221,2.8221,2.8221,2.8221,2.8221,2.8221,2.8221,2.8221,2.8221,0.0,0.0,0.0,0.0,0.0,0.0,2.4636,2.4636,2.4636,2.4636,2.4636,2.4636,2.4636,2.4031,2.3661,2.3661,0.0,0.0,0.0,0.0,0.0,0.0,0.0,0.0,0.0,0.0,2.4035,2.4035,2.3861,0.0,0.0,0.0,0.0,0.0,0.0,2.3313,2.314,2.314,0.0,0.0,0.0,0.0,0.0,0.0,0.0,0.0,0.0,0.0,2.3046,2.3046,2.3126,2.322,2.322,2.322,2.3287,2.3594,2.3928,2.4195,2.4128,2.4369,2.4636,2.4636,2.4636,2.4489,2.3901,2.3768,2.3594,2.2993,2.3207,2.3554,2.3741,2.4102,2.4476,2.477,2.5211,2.5558,2.5678,2.6453,2.7215,2.7802,2.7883,2.811,2.8724,2.839,2.8221,2.8221,2.8221,2.8221,2.8221,2.8221,2.8221,2.8221,2.8221,2.8221,2.8221,2.8221,2.8221,2.8221,2.8221,2.8221,2.8221,2.8221,2.8221,2.8221,2.8221,2.8221,2.8221,2.8221,2.8221,2.8221,2.8221,2.8221,2.8221,2.8221,2.8221,2.8221,0.0,0.0,0.0,0.0,0.0,2.4636,2.4636,2.4636,2.4636,2.4636,2.4636,2.4636,2.4636,2.4636,2.4636,2.4636,2.4636,0.0,0.0,0.0,0.0,0.0,0.0,0.0,0.0,0.0,2.4329,2.4329,2.4128,2.4022,0.0,0.0,2.3901,2.3888,0.0,0.0,0.0,0.0,0.0,0.0,0.0,0.0,0.0,0.0,0.0,0.0,0.0,0.0,0.0,0.0,0.0,2.2928,2.2928,2.2928,2.2926,2.3233,2.3621,2.3941,2.3901,2.4195,2.4529,2.4609,2.4569,2.4382,2.3888,2.3701,2.3487,2.2966,2.3113,2.342,2.3714,2.4008,2.4302,0.0,0.0,2.5518,2.5518,2.6266,2.7041,2.7629,2.7696,2.7936,2.8551,2.8323,2.8221,2.8221,2.8221,2.8221,2.8221,2.8221,2.8221,2.8221,2.8221,2.8221,2.8221,2.8221,2.8221,2.8221,2.8221,2.8221,2.8221,2.8221,2.8221,2.8221,2.8221,2.8221,2.8221,2.8221,2.8221,2.8221,2.8221,2.8221,2.8221,2.8221,2.8221,2.8221,0.0,0.0,0.0,0.0,0.0,0.0,2.4636,2.4636,2.4636,2.4636,2.4636,2.4636,2.4636,2.4636,2.4636,2.4636,2.4636,0.0,0.0,0.0,0.0,0.0,0.0,0.0,0.0,0.0,2.4636,2.4636,2.4549,2.4549,2.4623,2.4329,2.4195,2.4182,0.0,0.0,0.0,0.0,0.0,0.0,0.0,0.0,0.0,0.0,0.0,0.0,0.0,0.0,0.0,0.0,0.0,0.0,0.0,2.2928,2.2926,2.3233,2.3327,2.346,2.4048,2.4209,2.4275,2.4569,2.4422,2.4128,2.3834,2.3541,2.3247,2.2926,2.3113,2.342,2.3714,2.4008,2.4302,2.4596,2.513,0.0,2.5518,2.6266,2.7041,2.7629,2.7696,2.7936,2.8551,2.8323,2.8221,2.8221,2.8221,2.8221,2.8221,2.8221,2.8221,2.8221,2.8221,2.8221,2.8221,2.8221,2.8221,2.8221,2.8221,2.8221,2.8221,2.8221,2.8221,2.8221,2.8221,2.8221,2.8221,2.8221,2.8221,2.8221,2.8221,2.8221,2.8221,2.8221,2.8221,2.8221,0.0,0.0,0.0,0.0,0.0,0.0,0.0,2.4636,2.4636,2.4636,2.4636,2.4636,2.4636,2.4636,2.4636,2.4636,2.4636,0.0,0.0,0.0,0.0,0.0,0.0,0.0,0.0,2.4636,2.4636,2.4636,2.4636,2.4636,2.4636,2.4543,2.4502,2.4489,2.4396,2.4249,0.0,0.0,0.0,0.0,0.0,0.0,2.318,0.0,0.0,0.0,0.0,0.0,0.0,0.0,0.0,0.0,0.0,0.0,0.0,2.2979,2.3153,2.3367,2.3554,2.3754,2.3928,2.4022,2.3981,2.3834,2.3527,2.3394,2.3233,2.2926,2.3113,2.342,2.3714,2.4008,2.4302,2.4596,2.513,2.5518,2.5518,2.6092,2.6747,2.7335,2.7762,2.8083,2.827,2.8288,2.8221,2.8221,2.8221,2.8221,2.8221,2.8221,2.8221,2.8221,2.8221,2.8221,2.8221,2.8221,2.8221,2.8221,2.8221,2.8221,2.8221,2.8221,2.8221,2.8221,2.8221,2.8221,2.8221,2.8221,2.8221,2.8221,2.8221,2.8221,2.8221,2.8221,2.8221,2.8221,0.0,0.0,0.0,0.0,0.0,0.0,0.0,2.4636,2.4636,2.4636,2.4636,2.4636,2.4636,2.4636,2.4636,2.4636,2.4636,0.0,0.0,0.0,0.0,0.0,0.0,0.0,2.4636,2.4636,2.4636,2.4636,2.4636,2.4636,2.4636,2.4636,2.4636,2.4636,2.4636,2.4529,0.0,0.0,0.0,0.0,0.0,0.0,2.3487,0.0,0.0,0.0,0.0,0.0,0.0,0.0,0.0,0.0,0.0,0.0,0.0,0.0,2.2993,2.318,2.33,2.346,2.3634,2.3741,2.3688,2.3554,2.3367,2.3233,2.31,2.2899,2.3113,2.342,2.3714,2.4008,2.4302,2.4596,2.513,2.5518,2.5518,2.6026,2.6613,2.7201,2.7872,2.8221,2.8221,2.8221,2.8221,2.8221,2.8221,2.8221,2.8221,2.8221,2.8221,2.8221,2.8221,2.8221,2.8221,2.8221,2.8221,2.8221,2.8221,2.8221,2.8221,2.8221,2.8221,2.8221,2.8221,2.8221,0.0,2.8221,2.8221,2.8221,2.8221,2.8221,2.8221,2.8221,2.8221,2.8221,0.0,0.0,0.0,0.0,0.0,0.0,0.0,2.4636,2.4636,2.4636,2.4636,2.4636,2.4636,2.4636,2.4636,2.4636,0.0,0.0,0.0,0.0,0.0,0.0,0.0,0.0,2.4636,2.4636,2.4636,2.4636,2.4636,2.4636,2.4636,2.4636,2.4636,2.4636,2.4636,2.4636,2.4636,2.4636,2.4476,2.4235,2.4235,2.4062,0.0,0.0,0.0,0.0,0.0,0.0,0.0,0.0,0.0,0.0,0.0,0.0,0.0,0.0,0.0,0.0,0.0,2.33,2.3367,2.3634,2.35,2.33,2.33,2.3073,0.0,2.2928,2.3126,2.3447,2.3714,2.4022,2.4329,2.4623,2.5144,2.5518,2.5545,2.6066,2.6653,2.7201,2.7872,2.8221,2.8221,2.8221,2.8221,2.8221,2.8221,2.8221,2.8221,2.8221,2.8221,2.8221,2.8221,2.8221,2.8221,2.8221,2.8221,2.8221,2.8221,2.8221,2.8221,2.8221,2.8221,2.8221,2.8221,2.8221,2.8221,2.8221,2.8221,2.8221,2.8221,2.8221,2.8221,2.8221,2.8221,2.8221,0.0,0.0,0.0,0.0,0.0,0.0,0.0,0.0,0.0,0.0,2.4636,2.4636,2.4636,2.4636,2.4636,0.0,0.0,0.0,0.0,0.0,0.0,0.0,0.0,0.0,2.4636,2.4636,2.4636,2.4636,2.4636,2.4636,2.4636,2.4636,2.4636,2.4636,2.4636,2.4636,2.4636,2.4636,2.4596,2.4529,2.4529,2.4369,0.0,0.0,0.0,0.0,2.3661,2.3621,0.0,0.0,0.0,0.0,0.0,0.0,0.0,0.0,2.2928,2.2873,2.2953,0.0,2.2993,2.306,2.302,2.2966,0.0,2.2913,2.2928,2.2928,2.3287,2.3688,2.3754,2.4195,2.4636,2.493,2.5277,2.5585,2.5825,2.6547,2.7108,2.7255,2.7872,2.8221,2.8221,2.8221,2.8221,2.8221,2.8221,2.8221,2.8221,2.8221,2.8221,2.8221,2.8221,2.8221,2.8221,2.8221,2.8221,2.8221,2.8221,2.8221,2.8221,2.8221,2.8221,2.8221,2.8221,2.8221,2.8221,2.8221,2.8221,2.8221,2.8221,2.8221,2.8221,2.8221,2.8221,2.8221,0.0,0.0,0.0,0.0,0.0,0.0,0.0,0.0,0.0,0.0,0.0,2.4636,2.4636,2.4636,0.0,0.0,0.0,0.0,0.0,0.0,0.0,0.0,0.0,2.4636,2.4636,2.4636,2.4636,2.4636,2.4636,2.4636,2.4636,2.4636,2.4636,2.4636,2.4636,2.4636,2.4636,2.4636,2.4636,2.4636,2.4636,0.0,0.0,0.0,0.0,0.0,2.3968,2.3888,0.0,2.3768,2.3661,2.3527,0.0,0.0,0.0,0.0,2.318,2.3073,2.3073,2.2966,2.2928,2.2928,2.2928,2.2928,2.2928,2.2928,2.2899,2.3046,2.3447,2.3808,2.3941,2.4329,2.473,2.5037,2.5331,2.5705,2.6279,2.6881,2.7321,2.7455,2.7953,2.8221,2.8221,2.8221,2.8221,2.8221,2.8221,2.8221,2.8221,2.8221,2.8221,2.8221,2.8221,2.8221,2.8221,2.8221,2.8221,2.8221,2.8221,2.8221,2.8221,2.8221,2.8221,2.8221,2.8221,2.8221,2.8221,2.8221,2.8221,2.8221,2.8221,2.8221,2.8221,2.8221,2.8221,2.8221,0.0,0.0,0.0,0.0,0.0,0.0,0.0,0.0,0.0,0.0,0.0,0.0,0.0,0.0,0.0,0.0,0.0,0.0,0.0,0.0,0.0,0.0,2.4636,2.4636,2.4636,2.4636,2.4636,2.4636,2.4636,2.4636,2.4636,2.4636,2.4636,2.4636,2.4636,2.4636,2.4636,2.4636,2.4636,2.4636,2.4636,0.0,0.0,0.0,0.0,0.0,0.0,0.0,0.0,2.3901,2.3875,2.3834,2.3834,0.0,0.0,0.0,0.0,0.0,2.334,2.314,2.2926,2.2941,2.2928,2.2928,2.2928,2.2928,2.2953,2.326,2.3567,2.3861,2.4155,2.4476,2.4796,2.5104,2.5424,2.5919,2.6707,2.7081,2.7375,2.7669,2.7963,2.8221,2.8221,2.8221,2.8221,2.8221,2.8221,2.8221,2.8221,2.8221,2.8221,2.8221,2.8221,2.8221,2.8221,2.8221,2.8221,2.8221,2.8221,2.8221,2.8221,2.8221,2.8221,2.8221,2.8221,2.8221,2.8221,2.8221,2.8221,2.8221,2.8221,2.8221,2.8221,2.8221,2.8221,2.8221,0.0,0.0,0.0,0.0,0.0,0.0,0.0,0.0,0.0,0.0,0.0,0.0,0.0,0.0,0.0,0.0,0.0,0.0,0.0,0.0,0.0,2.4636,2.4636,2.4636,2.4636,2.4636,2.4636,2.4636,2.4636,2.4636,2.4636,2.4636,2.4636,2.4636,2.4636,2.4636,2.4636,2.4636,2.4636,2.4636,2.4636,0.0,0.0,0.0,0.0,0.0,0.0,0.0,0.0,2.4502,2.4342,2.4142,2.4142,0.0,0.0,0.0,0.0,0.0,2.3394,2.3287,2.3193,2.2926,2.2928,2.2928,2.2928,2.2928,2.2953,2.326,2.3567,2.3861,2.4155,2.4649,2.5104,2.5398,2.5905,2.6386,2.6774,2.7081,2.7375,2.7669,2.7963,2.8221,2.8221,2.8221,2.8221,2.8221,2.8221,2.8221,2.8221,2.8221,2.8221,2.8221,2.8221,2.8221,2.8221,2.8221,2.8221,2.8221,2.8221,2.8221,2.8221,2.8221,2.8221,2.8221,2.8221,2.8221,2.8221,2.8221,2.8221,2.8221,2.8221,2.8221,2.8221,2.8221,2.8221,2.8221,0.0,0.0,0.0,0.0,0.0,0.0,0.0,0.0,0.0,0.0,0.0,0.0,0.0,0.0,0.0,0.0,0.0,0.0,0.0,0.0,2.4636,2.4636,2.4636,2.4636,2.4636,2.4636,2.4636,2.4636,2.4636,2.4636,2.4636,2.4636,2.4636,2.4636,2.4636,2.4636,2.4636,2.4636,2.4636,2.4636,0.0,0.0,0.0,0.0,0.0,0.0,0.0,0.0,0.0,0.0,2.4543,2.4436,2.4436,0.0,0.0,0.0,0.0,0.0,2.3647,2.3447,2.3287,2.3153,2.2993,2.2928,2.2928,2.2993,2.3193,2.35,2.3808,2.4142,2.4596,2.4903,2.5224,2.5678,2.6106,2.6547,2.7001,2.7175,2.7428,2.7883,2.814,2.8221,2.8221,2.8221,2.8221,2.8221,2.8221,2.8221,2.8221,2.8221,2.8221,2.8221,2.8221,2.8221,2.8221,2.8221,2.8221,2.8221,2.8221,2.8221,2.8221,2.8221,2.8221,2.8221,2.8221,2.8221,2.8221,2.8221,2.8221,2.8221,2.8221,2.8221,2.8221,2.8221,2.8221,2.8221,0.0,0.0,0.0,0.0,0.0,0.0,0.0,0.0,0.0,0.0,0.0,0.0,0.0,0.0,0.0,0.0,0.0,0.0,0.0,2.4636,2.4636,2.4636,2.4636,2.4636,2.4636,2.4636,2.4636,2.4636,2.4636,2.4636,2.4636,2.4636,2.4636,2.4636,2.4636,2.4636,2.4636,2.4636,2.4636,2.4636,0.0,0.0,0.0,0.0,0.0,0.0,0.0,0.0,0.0,0.0,0.0,0.0,0.0,0.0,0.0,2.4636,2.4476,2.4222,2.3875,2.3607,2.3394,2.3247,2.31,2.2993,2.306,2.326,2.3514,2.3808,2.4102,2.4462,2.4983,2.5197,2.5451,2.5972,2.6306,2.6667,2.7188,2.7321,2.7562,2.8167,2.8221,2.8221,2.8221,2.8221,2.8221,2.8221,2.8221,2.8221,2.8221,2.8221,2.8221,2.8221,2.8221,2.8221,2.8221,2.8221,2.8221,2.8221,2.8221,2.8221,2.8221,2.8221,2.8221,2.8221,2.8221,2.8221,2.8221,2.8221,2.8221,2.8221,2.8221,2.8221,2.8221,2.8221,2.8221,2.8221,0.0,0.0,0.0,0.0,0.0,0.0,0.0,0.0,0.0,0.0,0.0,0.0,0.0,0.0,0.0,0.0,0.0,0.0,0.0,2.4636,2.4636,2.4636,2.4636,2.4636,2.4636,2.4636,2.4636,2.4636,2.4636,2.4636,2.4636,2.4636,2.4636,2.4636,2.4636,2.4636,2.4636,2.4636,2.4636,2.4636,2.4636,0.0,0.0,0.0,0.0,0.0,0.0,0.0,0.0,0.0,0.0,0.0,0.0,0.0,2.4636,2.4636,2.4623,2.4489,2.3928,2.3754,2.3607,2.3033,2.31,2.3367,2.3647,2.3728,2.3821,2.4115,2.4396,2.4703,2.5024,2.5531,2.5999,2.6306,2.66,2.6907,2.7228,2.7495,2.7789,2.8194,2.8221,2.8221,2.8221,2.8221,2.8221,2.8221,2.8221,2.8221,2.8221,2.8221,2.8221,2.8221,2.8221,2.8221,2.8221,2.8221,2.8221,2.8221,2.8221,2.8221,2.8221,2.8221,2.8221,2.8221,2.8221,2.8221,2.8221,2.8221,2.8221,2.8221,2.8221,2.8221,2.8221,2.8221,2.8221,2.8221,0.0,0.0,0.0,0.0,0.0,0.0,0.0,0.0,0.0,0.0,0.0,0.0,0.0,0.0,0.0,0.0,0.0,0.0,0.0,2.4636,2.4636,2.4636,2.4636,2.4636,2.4636,2.4636,2.4636,2.4636,2.4636,2.4636,2.4636,2.4636,2.4636,2.4636,2.4636,2.4636,2.4636,2.4636,2.4636,2.4636,2.4636,2.4636,0.0,0.0,0.0,0.0,0.0,0.0,0.0,0.0,2.4636,2.4636,2.4636,2.4636,2.4636,2.4636,2.4636,2.4516,2.3928,2.3901,2.3941,2.3527,2.3647,2.3808,2.3554,2.3781,2.4115,2.4409,2.4703,2.505,2.5531,2.5959,2.6266,2.6373,2.664,2.6921,2.7228,2.7509,2.7802,2.8194,2.8221,2.8221,2.8221,2.8221,2.8221,2.8221,2.8221,2.8221,2.8221,2.8221,2.8221,2.8221,2.8221,2.8221,2.8221,2.8221,2.8221,2.8221,2.8221,2.8221,2.8221,2.8221,2.8221,2.8221,2.8221,2.8221,2.8221,2.8221,2.8221,2.8221,2.8221,2.8221,2.8221,2.8221,2.8221,2.8221,0.0,0.0,0.0,0.0,0.0,0.0,0.0,0.0,0.0,0.0,0.0,0.0,0.0,0.0,0.0,0.0,0.0,0.0,2.493,2.4917,2.4877,2.4783,2.4783,2.473,2.4562,2.4636,2.4636,2.4636,2.4636,2.4636,2.4636,2.4636,2.4636,2.4636,2.4636,2.4636,2.4636,2.4636,2.4636,2.4636,2.4636,2.4636,0.0,0.0,0.0,0.0,0.0,0.0,0.0,0.0,2.4636,2.4636,2.4636,2.4636,2.4636,2.4636,2.4636,2.4529,2.4035,2.4048,2.4142,2.3848,2.4062,2.4235,2.3834,2.4048,2.4422,2.4716,2.509,2.5504,2.5999,2.6253,2.6413,2.6507,2.6774,2.7068,2.7362,2.7655,2.7909,2.8207,2.8221,2.8221,2.8221,2.8221,2.8221,2.8221,2.8221,2.8221,2.8221,2.8221,2.8221,2.8221,2.8221,2.8221,2.8221,2.8221,2.8221,2.8221,2.8221,2.8221,2.8221,2.8221,2.8221,2.8221,2.8221,2.8221,2.8221,2.8221,2.8221,2.8221,2.8221,2.8221,2.8221,2.8221,2.8221,2.8221,0.0,0.0,0.0,0.0,0.0,0.0,0.0,0.0,0.0,0.0,0.0,0.0,0.0,0.0,0.0,0.0,0.0,0.0,2.5518,2.5518,2.5384,2.5104,2.5077,2.4943,2.4649,2.4636,2.4636,2.4636,2.4636,2.4636,2.4636,2.4636,2.4636,2.4636,2.4636,2.4636,2.4636,2.4636,2.4636,2.4636,2.4636,2.4636,2.4636,0.0,0.0,0.0,0.0,0.0,0.0,0.0,2.4636,2.4636,2.4636,2.4636,2.4636,2.4636,2.4562,2.4569,2.4289,2.4209,2.4142,2.3848,2.4209,2.4562,2.4562,2.4562,2.473,2.5024,2.5545,2.6052,2.6333,2.6386,2.648,2.6774,2.7068,2.7362,2.7655,2.7949,2.8221,2.8221,2.8221,2.8221,2.8221,2.8221,2.8221,2.8221,2.8221,2.8221,2.8221,2.8221,2.8221,2.8221,2.8221,2.8221,2.8221,2.8221,2.8221,2.8221,2.8221,2.8221,2.8221,2.8221,2.8221,2.8221,2.8221,2.8221,2.8221,2.8221,2.8221,2.8221,2.8221,2.8221,2.8221,2.8221,2.8221,2.8221,0.0,0.0,0.0,0.0,0.0,0.0,0.0,0.0,0.0,0.0,0.0,0.0,0.0,0.0,0.0,0.0,0.0,0.0,2.5531,2.5518,2.5478,2.5384,2.5184,2.5037,2.4957,2.4743,2.4636,2.4636,2.4636,2.4636,2.4636,2.4636,2.4636,2.4636,2.4636,2.4636,2.4636,2.4636,2.4636,2.4636,2.4636,2.4636,2.4636,0.0,0.0,0.0,0.0,0.0,0.0,0.0,0.0,0.0,2.4636,2.4636,2.4636,2.4636,2.4783,2.4836,2.4342,2.4502,2.4703,2.4195,2.4516,2.4943,2.4943,2.4943,2.5024,2.5331,2.5852,2.6293,2.6373,2.6386,2.648,2.6774,2.7068,2.7362,2.7655,2.7949,2.8221,2.8221,2.8221,2.8221,2.8221,2.8221,2.8221,2.8221,2.8221,2.8221,2.8221,2.8221,2.8221,2.8221,2.8221,2.8221,2.8221,2.8221,2.8221,2.8221,2.8221,2.8221,2.8221,2.8221,2.8221,2.8221,2.8221,2.8221,2.8221,2.8221,2.8221,2.8221,2.8221,2.8221,2.8221,2.8221,2.8221,2.8221,0.0,0.0,0.0,0.0,0.0,0.0,0.0,0.0,0.0,0.0,2.6386,2.6386,0.0,0.0,0.0,0.0,0.0,0.0,2.5879,2.5865,2.5812,2.5692,2.5518,2.5317,2.509,2.4903,2.4756,2.4636,2.4636,2.4636,2.4636,2.4636,2.4636,2.4636,2.4636,2.4636,2.4636,2.4636,2.4636,2.4636,2.4636,2.4636,2.4636,0.0,0.0,0.0,0.0,0.0,0.0,0.0,0.0,0.0,2.4636,2.4636,2.4636,2.4636,2.485,2.4997,2.4649,2.481,2.5024,2.4783,2.4983,2.5277,2.5398,2.5424,2.5478,2.5651,2.6066,2.6386,2.6386,2.648,2.6653,2.6947,2.7241,2.7535,2.7829,2.8114,2.8221,2.8221,2.8221,2.8221,2.8221,2.8221,2.8221,2.8221,2.8221,2.8221,2.8221,2.8221,2.8221,2.8221,2.8221,2.8221,2.8221,2.8221,2.8221,2.8221,2.8221,2.8288,2.8323,2.8288,2.8221,2.8234,2.827,2.839,2.8497,2.8497,2.8497,2.8497,2.8497,2.8497,2.8497,2.8497,2.8497,2.8497,0.0,0.0,0.0,0.0,0.0,0.0,0.0,0.0,0.0,0.0,2.6386,2.6386,0.0,0.0,0.0,0.0,0.0,0.0,0.0,2.6386,2.6266,2.609,2.605,2.5692,2.513,2.509,2.4943,2.4676,2.4576,2.4636,2.4636,2.4636,2.4636,2.4636,2.4636,2.4636,2.4636,2.4636,2.4636,2.4636,2.4636,2.4636,2.4636,2.4636,0.0,0.0,0.0,0.0,0.0,0.0,0.0,0.0,2.4636,2.4636,2.4636,2.4636,2.485,2.5077,2.5077,2.5104,2.5184,2.5451,2.5531,2.5625,2.5932,2.6077,2.6063,2.6037,2.6186,2.64,2.6426,2.664,2.6934,2.7255,2.7522,2.7802,2.8181,2.8221,2.8221,2.8221,2.8221,2.8221,2.8221,2.8221,2.8221,2.8221,2.8221,2.8221,2.8221,2.8221,2.8221,2.8221,2.8221,2.8221,2.8221,2.8221,2.8248,2.8274,2.8274,2.835,2.8631,2.8323,2.8288,2.8328,2.8524,2.8791,2.9045,2.9045,2.9045,2.9045,2.9045,2.9045,2.9045,2.9045,2.9045,2.9045,0.0,0.0,0.0,0.0,0.0,0.0,0.0,0.0,0.0,0.0,0.0,0.0,0.0,0.0,0.0,0.0,0.0,0.0,0.0,2.6386,2.636,2.6306,2.6079,2.5785,2.5424,2.5197,2.505,2.4983,2.4756,2.4636,2.4636,2.4636,2.4636,2.4636,2.4636,2.4636,2.4636,2.4636,2.4636,2.4636,2.4636,2.4636,2.4636,2.4636,2.4636,0.0,0.0,0.0,0.0,0.0,0.0,0.0,2.4636,2.4636,2.4636,2.4636,2.485,2.5077,2.5077,2.5251,2.5438,2.5504,2.5692,2.5932,2.6226,2.6293,2.6226,2.5999,2.6186,2.6453,2.6694,2.6774,2.6987,2.7522,2.7655,2.7802,2.8181,2.8221,2.8221,2.8221,2.8221,2.8221,2.8221,2.8221,2.8221,2.8221,2.8221,2.8221,2.8221,2.8221,2.8221,2.8221,2.8221,2.8221,2.8221,2.8221,2.8355,2.8511,2.8511,2.8657,2.8938,2.8644,2.8631,2.8845,2.8911,2.8978,2.9045,2.9045,2.9045,2.9045,2.9045,2.9045,2.9045,2.9045,2.9045,2.9045,0.0,0.0,0.0,0.0,0.0,0.0,0.0,0.0,0.0,0.0,0.0,0.0,0.0,0.0,0.0,0.0,0.0,0.0,0.0,0.0,2.6386,2.6386,2.6239,2.6026,2.5732,2.5571,2.5358,2.5077,2.493,2.4783,2.4636,2.4636,2.4636,2.4636,2.4636,2.4636,2.4636,2.4636,2.4636,2.4636,2.4636,2.4636,2.4636,2.4636,2.4636,2.4636,2.4636,0.0,0.0,0.0,0.0,0.0,0.0,0.0,2.4636,2.4636,2.485,2.5104,2.5251,2.5398,2.5545,2.5692,2.5945,2.6199,2.636,2.6386,2.6386,2.6373,2.6493,2.664,2.6787,2.7054,2.7335,2.7642,2.7816,2.7963,2.8207,2.8221,2.8221,2.8221,2.8221,2.8221,2.8221,2.8221,2.8221,2.8221,2.8221,2.8221,2.8221,2.8221,2.8221,2.8221,2.8221,2.8221,2.8221,2.8283,2.8444,2.8604,2.8751,2.8965,2.9245,2.8951,2.8978,2.9245,2.9245,2.9325,2.9459,2.9459,2.9459,2.9459,2.9459,2.9459,2.9459,2.9459,2.9459,2.9459,0.0,0.0,0.0,0.0,0.0,0.0,0.0,0.0,0.0,0.0,0.0,0.0,0.0,0.0,0.0,0.0,0.0,0.0,0.0,0.0,0.0,2.6386,2.6386,2.6279,2.6039,2.5985,2.5795,2.5237,2.513,2.4957,2.4716,2.4663,2.4636,2.4636,2.4636,2.4636,2.4636,2.4636,2.4636,2.4636,2.4636,2.4636,2.4636,2.4636,2.4636,2.4636,2.4636,2.4636,2.4636,2.4636,0.0,0.0,0.0,0.0,2.4636,2.4636,2.481,2.5064,2.5358,2.5518,2.5665,2.5959,2.6213,2.6386,2.6386,2.6426,2.6533,2.6774,2.6827,2.6854,2.6947,2.7375,2.7722,2.7762,2.7989,2.8221,2.8221,2.8221,2.8221,2.8221,2.8221,2.8221,2.8221,2.8221,2.8221,2.8221,2.8221,2.8221,2.8221,2.8221,2.8221,2.8221,2.8221,2.8221,2.8221,2.8457,2.8631,2.8684,2.9032,2.9325,2.9553,2.9299,2.9325,2.9566,2.9566,2.9686,2.9913,2.9913,2.9913,2.9913,2.9913,2.9913,2.9913,2.9913,2.9913,2.9913,0.0,0.0,0.0,0.0,0.0,0.0,0.0,0.0,0.0,0.0,2.6386,2.6386,0.0,0.0,0.0,0.0,0.0,0.0,0.0,0.0,0.0,2.6386,2.6386,2.6373,2.6333,2.6092,2.5996,2.5916,2.5331,2.5064,2.501,2.4756,2.4636,2.4636,2.4636,2.4636,2.4636,2.4636,2.4636,2.4636,2.4636,2.4636,2.4636,2.4636,2.4636,2.4636,2.4636,2.4636,2.4636,2.4636,2.4636,0.0,0.0,0.0,2.4636,2.4636,2.4663,2.4756,2.505,2.5504,2.5972,2.6266,2.636,2.6386,2.6386,2.6587,2.6774,2.6814,2.6827,2.6974,2.7482,2.7642,2.7789,2.8127,2.8207,2.8221,2.8221,2.8221,2.8221,2.8221,2.8221,2.8221,2.8221,2.8221,2.8221,2.8221,2.8221,2.8221,2.8221,2.8221,2.8221,2.8221,2.8221,2.8221,2.8221,2.8457,2.8738,2.8991,2.9539,2.982,2.986,2.982,2.982,2.986,2.986,2.9887,2.9913,2.9913,2.9913,2.9913,2.9913,2.9913,2.9913,2.9913,2.9913,2.9913,0.0,0.0,0.0,0.0,0.0,0.0,0.0,0.0,0.0,0.0,0.0,2.6386,0.0,0.0,0.0,0.0,0.0,0.0,0.0,0.0,0.0,2.6386,2.6386,2.6386,2.6386,2.6266,2.6119,2.6037,2.5692,2.5491,2.5317,2.5024,2.4796,2.4636,2.4636,2.4636,2.4636,2.4636,2.4636,2.4636,2.4636,2.4636,2.4636,2.4636,2.4636,2.4636,2.4636,2.4636,2.4636,2.4636,2.4636,2.4636,2.4636,0.0,0.0,0.0,2.4636,2.4703,2.4997,2.5504,2.6063,2.6119,2.6266,2.6386,2.6386,2.6613,2.6867,2.7041,2.7201,2.7388,2.7655,2.7829,2.7989,2.8207,2.8221,2.8221,2.8221,2.8221,2.8221,2.8221,2.8221,2.8221,2.8221,2.8221,2.8221,2.8221,2.8221,2.8221,2.8221,2.8221,2.8221,2.8221,2.8221,2.8315,2.8404,2.8698,2.9072,2.9539,2.9793,2.9913,2.9913,2.9913,2.9913,2.9913,2.9913,2.9913,2.9913,2.9913,2.9913,2.9913,2.9913,2.9913,2.9913,2.9913,2.9913,2.9913,0.0,0.0,0.0,0.0,0.0,0.0,0.0,0.0,0.0,0.0,0.0,0.0,0.0,0.0,0.0,0.0,0.0,0.0,0.0,0.0,0.0,2.6386,2.6386,2.6386,2.6386,2.6386,2.6279,2.6066,2.5999,2.5838,2.5625,2.5331,2.5064,2.485,2.4703,2.4636,2.4636,2.4636,2.4636,2.4636,2.4636,2.4636,2.4636,2.4636,2.4636,2.4636,2.4636,2.4636,2.4636,2.4636,2.4636,2.4636,2.4636,2.4636,0.0,0.0,0.0,2.4703,2.4997,2.5398,2.5849,2.5996,2.6119,2.6306,2.6373,2.6667,2.7001,2.7228,2.7562,2.7816,2.7816,2.7989,2.8221,2.8221,2.8221,2.8221,2.8221,2.8221,2.8221,2.8221,2.8221,2.8221,2.8221,2.8221,2.8221,2.8221,2.8221,2.8221,2.8221,2.8221,2.8221,2.8221,2.8221,2.8297,2.8604,2.8965,2.9406,2.9913,2.9913,2.9913,2.9913,2.9913,2.9913,2.9913,2.9913,2.9913,2.9913,2.9913,2.9913,2.9913,2.9913,2.9913,2.9913,2.9913,2.9913,2.9913,0.0,0.0,0.0,0.0,0.0,0.0,0.0,0.0,0.0,0.0,0.0,0.0,2.6386,2.6386,2.6386,2.6386,2.6386,0.0,0.0,0.0,0.0,2.6386,2.6386,0.0,2.6386,2.6386,2.6386,2.6373,2.6092,2.6023,2.601,2.5625,2.5478,2.5438,2.489,2.4636,2.4636,2.4636,2.4636,2.4636,2.4636,2.4636,2.4636,2.4636,2.4636,2.4636,2.4636,2.4636,2.4636,2.4636,2.4636,2.4636,2.4636,2.4636,2.4636,0.0,0.0,0.0,2.4997,2.5104,2.5264,2.5889,2.605,2.613,2.6333,2.6827,2.7241,2.7268,2.7805,2.8207,2.8207,2.8221,2.8221,2.8221,2.8221,2.8221,2.8221,2.8221,2.8221,2.8221,2.8221,2.8221,2.8221,2.8221,2.8221,2.8221,2.8221,2.8221,2.8221,2.8221,2.8221,2.8221,2.8221,2.8297,2.8604,2.9179,2.9619,2.9913,2.9913,2.9913,2.9913,2.9913,2.9913,2.9913,2.9913,2.9913,2.9913,2.9913,2.9913,2.9913,2.9913,2.9913,2.9913,2.9913,2.9913,2.9913,0.0,0.0,0.0,0.0,0.0,0.0,0.0,0.0,0.0,0.0,0.0,0.0,0.0,2.6386,2.6386,2.6386,2.6386,0.0,0.0,0.0,0.0,2.6386,2.6386,2.6386,2.6386,2.6386,2.6386,2.6386,2.6279,2.6239,2.6226,2.5932,2.5798,2.5772,2.5184,2.4917,2.4917,2.4716,2.4636,2.4636,2.4636,2.4636,2.4636,2.4636,2.4636,2.4663,2.485,2.4917,2.4957,2.5144,2.5077,2.4917,2.4917,2.4796,2.4636,2.4636,2.4636,2.4663,2.477,2.493,2.513,2.5344,2.5678,2.6063,2.6092,2.6707,2.7268,2.7268,2.7819,2.8221,2.8221,2.8221,2.8221,2.8221,2.8221,2.8221,2.8221,2.8221,2.8221,2.8221,2.8221,2.8221,2.8221,2.8221,2.8221,2.8221,2.8221,2.8221,2.8221,2.8221,2.8221,2.8221,2.8221,2.8377,2.8885,2.9472,2.9806,2.9913,2.9913,2.9913,2.9913,2.9913,2.9913,2.9913,2.9913,2.9913,2.9913,2.9913,2.9913,2.9913,2.9913,2.9913,2.9913,2.9913,2.9913,3.0093,0.0,0.0,0.0,0.0,0.0,0.0,0.0,0.0,2.6386,2.6386,0.0,0.0,0.0,0.0,2.6386,2.6386,2.6386,2.6386,2.6386,2.6386,2.6386,2.6386,2.6386,2.6386,2.6386,2.6293,2.6293,2.6386,2.6293,2.6293,2.6386,2.6186,2.6106,2.6079,2.5585,2.5317,2.5211,2.501,2.493,2.493,2.493,2.493,2.493,2.493,2.493,2.4957,2.5157,2.5224,2.5251,2.5451,2.5317,2.5077,2.5077,2.4877,2.4636,2.4636,2.4636,2.4636,2.4636,2.4783,2.4983,2.517,2.5518,2.5865,2.6052,2.6707,2.7268,2.7268,2.7819,2.8221,2.8221,2.8221,2.8221,2.8221,2.8221,2.8221,2.8221,2.8221,2.8221,2.8221,2.8221,2.8221,2.8221,2.8221,2.8221,2.8221,2.8221,2.8221,2.8221,2.8221,2.8274,2.8297,2.839,2.8684,2.9179,2.9673,2.9913,2.9913,2.9913,2.9913,2.9913,2.9913,2.9913,2.9913,2.9913,2.9913,2.9913,2.9913,2.9913,2.9913,2.9913,2.9913,3.0003,3.0616,3.087,3.1137,0.0,0.0,0.0,0.0,0.0,0.0,0.0,0.0,2.6386,2.6386,0.0,0.0,0.0,0.0,0.0,2.6386,2.6386,2.6386,2.6386,2.6386,2.6386,2.6386,0.0,0.0,2.6386,2.6106,2.6106,2.6386,2.6106,2.6106,2.6386,2.6386,2.6386,2.6373,2.6092,2.5812,2.5545,2.5518,2.5518,2.5518,2.5518,2.5531,2.5531,2.5531,2.5545,2.5545,2.5545,2.5558,2.5558,2.5558,2.5371,2.5117,2.509,2.4877,2.4649,2.4562,2.4636,2.4636,0.0,0.0,0.0,2.5358,2.5518,2.5678,2.6253,2.6827,2.7255,2.7268,2.7805,2.8221,2.8221,2.8221,2.8221,2.8221,2.8221,2.8221,2.8221,2.8221,2.8221,2.8221,2.8221,2.8221,2.8221,2.8221,2.8221,2.8221,2.8221,2.8221,2.8221,2.8221,2.8283,2.8591,2.8885,2.9179,2.9486,2.9766,2.9913,2.9913,2.9913,2.9913,2.9913,2.9913,2.9913,2.9913,2.9913,2.9913,2.9913,2.9913,2.9913,2.9913,2.9913,2.9913,3.0093,3.1997,3.269,3.2955,0.0,0.0,0.0,0.0,0.0,2.6386,2.6386,2.6386,2.6386,0.0,0.0,0.0,2.6386,2.6386,2.6386,2.6386,2.6386,2.6386,2.6386,2.6386,2.6386,2.6386,2.6386,2.6386,2.6386,2.6306,2.6306,2.6386,2.6306,2.6306,2.6386,2.6386,2.6386,2.6386,2.6306,2.6226,2.6119,2.5692,2.5518,2.5531,2.5745,2.5838,2.5852,2.6066,2.6146,2.6172,2.6386,2.6453,2.6493,2.6707,2.644,2.5919,2.5277,2.5024,2.4917,2.4703,2.4636,2.4636,2.4636,0.0,0.0,0.0,0.0,0.0,2.6039,2.6533,2.7001,2.7228,2.7562,2.7883,2.8181,2.8221,2.8221,2.8221,2.8221,2.8221,2.8221,2.8221,2.8221,2.8221,2.8221,2.8221,2.8221,2.8221,2.8221,2.8221,2.8221,2.8221,2.8221,2.8221,2.8283,2.8591,2.8885,2.9179,2.9486,2.9766,2.9913,2.9913,2.9913,2.9913,2.9913,2.9913,2.9913,2.9913,2.9913,2.9913,2.9913,2.9913,2.9913,2.9913,2.9913,2.9913,3.0093,3.1997,3.269,3.3131,0.0,0.0,0.0,0.0,0.0,2.676,2.676,2.676,2.676,0.0,0.0,0.0,2.676,2.664,2.6573,2.6573,2.6453,2.6386,2.6386,2.6386,2.6386,2.6386,2.6386,2.6386,2.6386,2.6266,2.6266,2.6386,2.6266,2.6266,2.6386,2.6386,2.6386,2.6386,2.6386,2.6386,2.6373,2.6026,2.5945,2.6066,2.6119,2.6213,2.6333,2.6507,2.6573,2.6613,2.6907,2.7001,2.7028,2.7201,2.6947,2.6413,2.5531,2.5344,2.5384,2.509,2.4997,2.4997,2.4997,2.513,2.5291,2.5411,0.0,0.0,2.6106,2.6493,2.6907,2.7201,2.7402,2.7615,2.7896,2.7856,2.7899,2.7936,2.7963,2.8003,2.8207,2.8221,2.8221,2.8221,2.8221,2.8221,2.8221,2.8221,2.8221,2.8221,2.8221,2.8221,2.8221,2.8221,2.8337,2.8778,2.8951,2.9245,2.9659,2.9833,2.9913,2.9913,2.9913,2.9913,2.9913,2.9913,2.9913,2.9913,2.9913,2.9913,2.9913,2.9913,3.0348,3.1048,3.1048,3.1568,3.244,3.436,3.5043,3.5478,0.0,0.0,2.7268,2.7268,2.7268,2.7268,2.7268,2.7268,2.7268,0.0,2.7268,2.7268,2.7268,2.7028,2.6867,2.6867,2.66,2.644,2.644,2.6413,2.6386,2.6386,2.6386,2.6386,2.6386,2.6132,2.6132,2.6386,2.6132,2.6132,2.6386,2.6386,2.6386,2.6386,2.6386,2.6386,2.6386,2.6386,2.656,2.68,2.6573,2.6667,2.6921,2.6961,2.6974,2.7001,2.7268,2.7362,2.7348,2.7281,2.7108,2.6774,2.5892,2.5798,2.5945,2.5651,2.5545,2.5518,2.5518,2.5545,2.5625,2.597,2.5985,0.0,2.6333,2.6587,2.6854,2.7161,2.7215,2.7308,2.7602,2.7442,2.7348,2.7602,2.7682,2.7802,2.8181,2.8221,2.8221,2.8221,2.8221,2.8221,2.8221,2.8221,2.8221,2.8221,2.8221,2.8221,2.8221,2.8221,2.8417,2.9018,2.9045,2.9325,2.9913,2.9913,2.9913,2.9913,2.9913,2.9913,2.9913,2.9913,2.9913,2.9913,2.9913,2.9913,2.9913,3.0093,3.1048,3.2425,3.2602,3.3731,3.5407,3.7327,3.8118,3.8546,0.0,2.7228,2.7268,2.7268,2.7268,2.7268,2.7268,2.7268,2.7268,2.7268,2.7268,2.7268,2.7268,2.7215,2.7175,2.7175,2.6907,2.6734,2.6734,2.652,2.6386,2.6386,2.6386,2.6386,2.6386,2.6333,2.6333,2.6386,2.6333,2.6333,2.6386,2.6386,2.6386,2.6386,2.6386,2.6386,2.6386,2.6386,2.656,2.6841,2.7014,2.7268,2.7549,2.7789,2.7966,2.798,2.8033,2.806,2.798,2.7428,2.7388,2.7375,2.6493,2.6253,2.6253,2.5959,2.5705,2.5518,2.5518,2.5692,2.5879,2.5945,2.6132,0.0,2.6373,2.6426,2.656,2.6854,2.6907,2.7001,2.7295,2.7308,2.7281,2.7348,2.7549,2.7802,2.8181,2.8221,2.8221,2.8221,2.8221,2.8221,2.8221,2.8221,2.8221,2.8221,2.8221,2.8221,2.8221,2.8221,2.8417,2.9018,2.9045,2.9325,2.9913,2.9913,2.9913,2.9913,2.9913,2.9913,2.9913,2.9913,2.9913,2.9913,2.9913,2.9913,3.0003,3.1568,3.1479,3.0616,3.2086,3.2955,3.3468,3.5304,3.6983,3.8375,2.7482,2.7602,2.7792,2.7792,2.7792,2.7792,2.7792,2.7792,2.7792,2.7792,2.7792,2.7792,2.7792,2.7575,2.7482,2.7482,2.7215,2.6987,2.6827,2.668,2.6547,2.64,2.6386,2.6386,2.6386,2.6386,2.6386,2.6386,2.6386,2.6386,2.6386,2.6386,2.6386,2.6386,2.6386,2.6386,2.64,2.6547,2.6774,2.7041,2.7041,2.7215,2.7509,2.7816,2.7923,2.7936,2.8181,2.8221,2.8167,2.7629,2.7682,2.7789,2.7054,2.6827,2.6774,2.648,2.6186,2.5945,2.5945,2.6052,2.6172,2.6172,2.6279,0.0,0.0,2.6386,2.6466,2.676,2.6587,2.652,2.6961,2.6814,2.6707,2.7001,2.7161,2.7362,2.7669,2.8047,2.8221,2.8221,2.8221,2.8221,2.8221,2.8221,2.8221,2.8221,2.8221,2.8221,2.8221,2.8283,2.8577,2.9032,2.9179,2.9472,2.9913,2.9913,2.9913,2.9913,2.9913,2.9913,2.9913,2.9913,2.9913,2.9913,2.9913,2.9913,3.0003,3.0959,3.0781,3.0258,3.401,3.6086,3.695,3.7912,3.8887,3.9671,2.7789,2.7976,2.8221,2.8221,2.8221,2.8221,2.8221,2.8221,2.8221,2.8221,2.8221,2.8221,2.8221,2.7923,2.7789,2.7789,2.7522,2.7255,2.7001,2.6881,2.672,2.648,2.6413,2.6386,2.6386,2.6386,2.6386,2.6386,2.6386,2.6386,2.6386,2.6386,2.6386,2.6386,2.6386,2.6426,2.6493,2.672,2.6987,2.7255,2.7068,2.7161,2.7455,2.7696,2.7789,2.7816,2.814,2.8221,2.8181,2.7802,2.7896,2.814,2.7522,2.7348,2.7295,2.7054,2.6787,2.656,2.656,2.652,2.6466,2.6466,2.6426,2.6386,0.0,0.0,0.0,2.6694,2.6373,2.6186,2.6653,2.636,2.6159,2.652,2.6707,2.6867,2.7001,2.7575,2.806,2.806,2.806,2.8087,2.814,2.8194,2.8221,2.8221,2.8221,2.8221,2.8221,2.8444,2.8738,2.9032,2.9325,2.9619,2.9913,2.9913,2.9913,2.9913,2.9913,2.9913,2.9913,2.9913,2.9913,2.9913,2.9913,2.9913,2.9913,3.0258,3.0437,3.087,3.5407,3.8186,3.9483,3.9483,3.9738,4.001,2.8181,2.8207,2.8221,2.8221,2.8221,2.8221,2.8221,2.8221,2.8221,2.8221,2.8221,2.8221,2.8221,2.8194,2.8181,2.8181,2.7816,2.7629,2.7602,2.7108,2.6814,2.6774,2.6533,2.6386,2.6386,2.6386,2.6386,2.6386,2.6386,2.6386,2.6386,2.6386,2.6386,2.6386,2.6386,2.6533,2.6774,2.6814,2.6987,2.7281,2.7509,2.7776,2.8127,2.8167,2.8181,2.8181,2.8221,2.8221,2.8181,2.7802,2.7896,2.8167,2.7749,2.7642,2.7642,2.7602,2.7388,2.7161,2.7161,2.6974,2.6774,2.6774,2.6587,2.6386,2.6386,0.0,2.64,2.6426,0.0,2.636,2.6426,0.0,0.0,2.5732,2.6319,2.6653,2.6172,2.6827,2.7362,2.7362,2.7362,2.7468,2.7722,2.8073,2.8221,2.8221,2.8221,2.8221,2.8221,2.8444,2.8738,2.9032,2.9325,2.9619,2.9913,2.9913,2.9913,2.9913,2.9913,2.9913,2.9913,2.9913,2.9913,2.9913,2.9913,2.9913,3.0003,3.1745,3.2337,3.2425,3.3131,3.3468,3.3644,3.3644,3.4694,3.6102,2.8221,2.8221,2.8221,2.8221,2.8221,2.8221,2.8221,2.8221,2.8221,2.8221,2.8221,2.8221,2.8221,2.8221,2.8221,2.8221,2.8114,2.7883,2.7709,2.7468,2.7255,2.7094,2.68,2.664,2.664,2.648,2.6386,2.6386,2.6386,2.6386,2.6386,2.6386,2.6386,2.64,2.656,2.6707,2.6841,2.7188,2.7308,2.7308,2.7762,2.7923,2.7896,2.8167,2.8221,2.8221,2.8221,2.8221,2.8207,2.8003,2.8043,2.8207,2.7989,2.7843,2.7696,2.7696,2.7495,2.7268,2.7268,2.7175,2.7041,2.6867,2.6734,2.66,2.6426,2.6386,2.6386,2.6386,0.0,0.0,0.0,0.0,0.0,0.0,2.6333,2.6493,2.6239,2.652,2.6881,2.7228,2.7268,2.7375,2.7669,2.7816,2.7963,2.8207,2.8221,2.8221,2.8221,2.8604,2.8911,2.9032,2.9486,2.9793,2.9913,2.9913,2.9913,2.9913,2.9913,2.9913,2.9913,2.9913,2.9913,2.9913,2.9913,2.9913,3.0003,3.0781,3.1048,3.1212,3.2248,3.338,3.4432,3.5581,3.6448,3.7327,2.8221,2.8221,2.8221,2.8221,2.8221,2.8221,2.8221,2.8221,2.8221,2.8221,2.8221,2.8221,2.8221,2.8221,2.8221,2.8221,2.8221,2.814,2.7829,2.7749,2.7602,2.7388,2.7108,2.6907,2.6827,2.6613,2.6466,2.6386,2.6386,2.6386,2.6386,2.6386,2.6386,2.64,2.6694,2.6867,2.6974,2.7482,2.7629,2.7549,2.806,2.8016,2.7843,2.814,2.8221,2.8221,2.8221,2.8221,2.8221,2.8221,2.8221,2.8221,2.8221,2.7989,2.7816,2.7816,2.7669,2.7591,2.7591,2.7442,2.7335,2.7121,2.6947,2.6774,2.656,2.6507,2.6507,2.6507,2.6333,0.0,0.0,0.0,2.6092,2.6146,0.0,2.6333,2.6172,2.6293,2.6547,2.6974,2.7094,2.7228,2.7442,2.7602,2.7789,2.8003,2.8181,2.8221,2.8221,2.8711,2.9045,2.9045,2.9606,2.9913,2.9913,2.9913,2.9913,2.9913,2.9913,2.9913,2.9913,2.9913,2.9913,2.9913,2.9913,2.9913,2.9913,2.9913,3.0169,3.0781,3.2174,3.3819,3.5668,3.7052,3.75,3.7757,2.8221,2.8221,2.8221,2.8221,2.8221,2.8221,2.8221,2.8221,2.8221,2.8221,2.8221,2.8221,2.8221,2.8221,2.8221,2.8221,2.8221,2.8221,2.8207,2.7856,2.7696,2.7682,2.7402,2.7121,2.6827,2.6814,2.6667,2.6386,2.6386,2.6386,2.6386,2.6386,2.6386,2.64,2.6694,2.6987,2.7268,2.7575,2.7856,2.8207,2.8221,2.8221,2.8207,2.8221,2.8221,2.8221,2.8221,2.8221,2.8221,2.8221,2.8221,2.8221,2.8221,2.8221,2.8207,2.8207,2.8207,2.8194,2.8194,2.7896,2.7682,2.7669,2.7241,2.6814,2.6814,2.6814,2.6814,2.6814,2.68,2.68,2.6814,2.6573,2.6186,0.0,2.6012,0.0,0.0,2.6026,2.64,2.6413,2.6667,2.6841,2.6854,2.7362,2.7696,2.7709,2.7976,2.8221,2.8221,2.8711,2.9045,2.9045,2.9606,2.9913,2.9913,2.9913,2.9913,2.9913,2.9913,2.9913,2.9913,2.9913,2.9913,2.9913,2.9913,2.9913,2.9913,2.9913,3.0959,3.2602,3.269,3.3819,3.5494,3.5581,3.5581,3.5842,2.8221,2.8221,2.8221,2.8221,2.8221,2.8221,2.8221,2.8221,2.8221,2.8221,2.8221,2.8221,2.8221,2.8221,2.8221,2.8221,2.8221,2.8221,2.8221,2.8043,2.7989,2.7989,2.7709,2.7509,2.7402,2.7014,2.6774,2.668,2.648,2.6386,2.6386,2.6587,2.668,2.6694,2.7188,2.7455,2.7575,2.7869,2.7936,2.7856,2.7856,2.7963,2.8221,2.8221,2.8221,2.8221,2.8221,2.8221,2.8221,2.8221,2.8221,2.8221,2.8221,2.8221,2.8221,2.8221,2.8221,2.8221,2.8221,2.8154,2.7949,2.7749,2.7402,2.7068,2.6867,2.6827,2.6827,2.6827,2.6974,2.7108,2.7108,2.6881,0.0,0.0,0.0,0.0,0.0,2.6266,2.6386,2.6386,2.648,2.6613,2.68,2.7001,2.7281,2.7669,2.7789,2.7936,2.8221,2.8524,2.8845,2.9032,2.9419,2.9726,2.9913,2.9913,3.0526,3.1731,3.0526,3.0526,3.1731,3.0437,2.9913,2.9913,2.9913,3.0602,3.1731,3.1731,3.2867,3.4694,3.5928,3.6794,3.7327,3.7327,3.7327,3.7586,2.8221,2.8221,2.8221,2.8221,2.8221,2.8221,2.8221,2.8221,2.8221,2.8221,2.8221,2.8221,2.8221,2.8221,2.8221,2.8221,2.8221,2.8221,2.8221,2.8221,2.8221,2.8221,2.7963,2.7802,2.7696,2.7321,2.7081,2.6987,2.6787,2.6694,2.6707,2.6894,2.6987,2.7001,2.7482,2.7696,2.7722,2.81,2.8114,2.7856,2.7856,2.803,2.831,2.831,2.831,2.8323,2.843,2.8457,2.8457,2.8457,2.8457,2.8444,2.8337,2.831,2.8283,2.8261,2.8221,2.8221,2.8221,2.8221,2.8181,2.7909,2.7642,2.7375,2.7175,2.7134,2.7134,2.7134,2.7281,2.7415,2.7415,2.7175,2.6947,0.0,0.0,0.0,0.0,2.6319,2.6346,2.6253,2.6333,2.6466,2.6653,2.676,2.7028,2.7509,2.7642,2.7829,2.8207,2.8444,2.8738,2.9032,2.9325,2.9619,2.9913,2.9913,3.0526,3.1642,3.0526,3.0526,3.1642,3.0437,3.0258,3.087,3.087,3.1997,3.3731,3.3731,3.4781,3.6621,3.7843,3.8716,3.9331,3.9331,3.9331,3.9501,2.8221,2.8221,2.8221,2.8221,2.8221,2.8221,2.8221,2.8221,2.8221,2.8221,2.8221,2.8221,2.8221,2.8221,2.8221,2.8221,2.8221,2.8221,2.8221,2.8221,2.8221,2.8221,2.8221,2.8003,2.7722,2.7709,2.7562,2.7281,2.7268,2.7268,2.7268,2.7281,2.7281,2.7295,2.7589,2.7722,2.7736,2.803,2.8234,2.8248,2.8261,2.8364,2.8631,2.8644,2.8644,2.8684,2.8951,2.9045,2.9045,2.9045,2.9045,2.8991,2.8711,2.8631,2.8577,2.827,2.8274,2.8274,2.8274,2.8261,2.8248,2.8248,2.7936,2.7696,2.7696,2.7696,2.7696,2.7696,2.7709,2.7722,2.7696,2.7455,2.7175,0.0,0.0,0.0,0.0,2.6213,2.6293,2.609,2.6226,2.6386,2.6386,2.664,2.6934,2.7241,2.7509,2.7802,2.8207,2.8417,2.8711,2.9032,2.9312,2.9606,2.9913,2.9913,3.0003,3.0182,3.0003,3.0003,3.0182,3.0093,3.1048,3.269,3.2778,3.3907,3.5668,3.5668,3.6707,3.846,3.846,3.9501,4.106,4.106,4.106,4.106,2.8221,2.8221,2.8221,2.8221,2.8221,2.8221,2.8221,2.8221,2.8221,2.8221,2.8221,2.8221,2.8221,2.8221,2.8221,2.8221,2.8221,2.8221,2.8221,2.8221,2.8221,2.8221,2.8221,2.8194,2.803,2.7816,2.7669,2.7589,2.7375,2.7268,2.7268,2.7482,2.7589,2.7602,2.7896,2.8114,2.8114,2.8194,2.8355,2.8511,2.8724,2.8858,2.8951,2.9179,2.9259,2.9245,2.9085,2.9045,2.9045,2.9045,2.9045,2.9032,2.8951,2.8925,2.8911,2.8831,2.8804,2.8804,2.8804,2.8657,2.8484,2.8484,2.8083,2.7696,2.7696,2.7696,2.7696,2.7696,2.7883,2.7963,2.7736,2.7455,2.7175,0.0,0.0,0.0,2.6306,2.6346,2.636,2.6293,2.6346,2.6386,2.6386,2.6453,2.6707,2.7228,2.7134,2.7362,2.8181,2.8016,2.827,2.9018,2.9112,2.9392,2.9913,2.9913,3.1315,3.401,3.1226,3.1404,3.401,3.2602,3.2248,3.2778,3.417,3.5842,3.7586,3.7586,3.8716,4.0367,4.0367,4.0705,4.106,4.106,4.106,4.106,2.8221,2.8221,2.8221,2.8221,2.8221,2.8221,2.8221,2.8221,2.8221,2.8221,2.8257,2.835,2.835,2.8457,2.8537,2.8537,2.8537,2.8537,2.8537,2.8537,2.8537,2.8537,2.8417,2.835,2.835,2.8043,2.7896,2.7896,2.7736,2.7655,2.7738,2.7816,0.0,2.7709,2.8003,2.8154,2.7963,2.823,2.8444,2.8631,2.8925,2.9112,0.0,2.9419,2.9566,2.9646,2.9486,2.9419,2.9419,2.9419,2.9419,2.9406,2.9272,2.9232,2.9205,2.9072,2.9045,2.9045,2.9045,2.8925,2.8791,2.8791,2.8537,2.8283,2.8283,2.8283,2.8243,2.8123,2.823,2.8257,2.7949,2.7655,2.7321,2.6894,0.0,2.6346,2.6213,2.6306,2.6293,2.6039,2.6226,2.6333,2.6213,2.6319,2.6533,2.6854,2.6961,2.7295,2.7909,2.7909,2.819,2.8831,2.8978,2.9192,2.9526,3.0568,3.1674,3.2851,3.2558,3.3058,3.4257,3.3994,3.4345,3.5233,3.6275,3.7757,3.9501,3.9501,4.0198,4.106,4.106,4.106,4.106,4.106,4.106,4.106,2.8221,2.8221,2.8248,2.8274,2.8261,2.8248,2.8328,2.823,2.8288,2.8288,2.847,2.8671,2.8671,2.8885,2.9045,2.9045,2.9045,2.9045,2.9045,2.9045,2.9045,2.9045,2.8804,2.8671,2.8671,2.8404,2.8328,2.8288,2.8288,2.8261,2.8221,0.0,0.0,2.7762,2.8114,2.803,2.7856,2.8417,2.8684,2.8751,2.9032,2.9312,2.9539,2.9539,2.97,2.9913,2.9913,2.9913,2.9913,2.9913,2.9913,2.9873,2.9619,2.9539,2.9486,2.9232,2.9152,2.9152,2.9152,2.9125,2.9098,2.9098,2.9072,2.9045,2.9045,2.9045,2.8965,2.8711,2.8671,2.8564,2.8288,2.7869,2.7482,0.0,2.664,2.6373,2.6238,2.6542,2.6475,2.5692,2.6381,0.0,2.597,2.6172,2.64,2.644,2.6881,2.7308,2.7682,2.7909,2.8203,2.8591,2.8885,2.9058,2.9098,3.1447,3.178,2.9968,3.3698,3.4607,3.3131,3.5043,3.6794,3.8289,3.8546,3.9586,4.106,4.106,4.106,4.106,4.106,4.106,4.106,4.106,4.106,4.106,2.8221,2.8221,2.8315,2.8484,2.831,2.831,2.8804,2.8684,2.8524,2.8524,2.8778,2.8965,2.8965,2.9005,2.9045,2.9045,2.9045,2.9045,2.9045,2.9045,2.9045,2.9045,2.8991,2.8965,2.8965,2.8911,2.8764,2.8524,2.8524,2.839,2.8221,2.8221,0.0,2.8154,2.8207,2.8257,2.847,2.8818,2.9098,2.9352,2.9646,2.9793,2.9847,2.9847,2.9873,2.9913,2.9913,2.9913,2.9913,2.9913,2.9913,2.9913,2.986,2.9847,2.9833,2.978,2.9766,2.9766,2.9766,2.9593,2.9406,2.9406,2.9219,2.9045,2.9045,2.9045,2.9032,2.8978,2.8965,2.8791,2.8328,2.7792,2.7308,2.7201,2.6934,2.6814,2.7014,2.8137,2.8267,2.6437,2.8011,2.8267,2.5509,2.5932,2.6493,2.6734,2.6627,2.6881,2.7655,2.7522,2.7789,0.0,2.8885,2.9152,0.0,3.1635,3.2484,3.2176,3.4417,3.5304,3.5043,3.6983,3.8032,3.8375,3.9925,4.0807,4.106,4.106,4.106,4.106,4.106,4.106,4.106,4.106,4.106,4.106,2.8221,2.8221,2.8274,2.8337,2.8377,2.8484,2.8764,2.8951,2.9005,2.8858,2.9085,2.9272,2.9272,2.9406,2.9499,2.9499,2.9499,2.9499,2.9499,2.9499,2.9499,2.9499,2.9352,2.9272,2.9272,2.9112,2.8898,2.8604,2.8604,2.8444,2.8221,2.7989,2.7909,2.7923,2.8154,2.831,2.8631,2.9085,2.9352,2.9513,2.9806,2.9913,2.9913,2.9913,2.9913,2.994,3.0087,3.014,3.0127,2.9967,2.9913,2.9913,2.9913,2.9913,2.9913,2.9913,2.9913,2.9913,2.9913,2.982,2.9713,2.9713,2.9606,2.9499,2.9499,2.9499,2.9459,2.9299,2.9272,2.9085,2.8497,2.8016,2.8,2.8727,2.861,2.8456,2.861,2.9304,2.8927,2.6879,2.8584,2.8841,2.6007,2.713,2.7495,2.6238,2.6293,2.6707,2.7428,0.0,2.7829,0.0,0.0,0.0,3.0377,0.0,3.4957,3.3665,3.687,3.7929,3.7069,3.8887,3.9756,3.9756,4.0705,4.106,4.106,4.106,4.106,4.106,4.106,4.106,4.106,4.106,4.106,4.106,2.8323,2.8283,2.8257,2.8323,2.8484,2.8644,2.8778,2.9232,2.9472,2.9179,2.9392,2.9579,2.9579,2.978,2.9913,2.9913,2.9913,2.9913,2.9913,2.9913,2.9913,2.9913,2.97,2.9579,2.9579,2.9339,2.9085,2.8791,2.8724,2.8511,2.8221,0.0,0.0,2.7896,2.8136,2.8444,2.8818,2.9285,2.9526,2.9606,2.9887,3.0007,3.002,3.0074,3.01,3.0127,3.0368,3.0448,3.0421,3.0181,3.01,3.0087,3.0034,3.0007,2.9993,2.994,2.9913,2.9913,2.9913,2.9913,2.9913,2.9913,2.9913,2.9913,2.9913,2.9913,2.9847,2.9619,2.9526,2.9339,2.8871,2.8537,2.8737,2.9741,3.0001,3.0108,3.0108,3.0695,3.0195,2.774,2.9501,2.9704,2.6596,2.8004,2.8117,2.5711,2.6364,2.7039,2.7323,0.0,0.0,0.0,3.0553,3.1534,3.1359,0.0,3.696,3.4684,3.9032,4.0113,3.8375,4.0282,4.106,4.106,4.106,4.106,4.106,4.106,4.106,4.106,4.106,4.106,4.106,4.106,4.106,4.106,2.8898,2.8751,2.8644,2.8911,2.8764,2.8791,2.9325,2.9673,2.9766,2.9486,2.97,2.9873,2.9873,2.99,2.9913,2.9913,2.9913,2.9913,2.9913,2.9913,2.9913,2.9913,2.9887,2.9873,2.9873,2.9847,2.9686,2.9406,2.9125,2.8711,2.8221,0.0,0.0,2.8524,2.8551,2.8871,2.9406,2.9459,2.9633,2.99,3.0194,3.0314,3.0354,3.0608,3.0715,3.0715,3.0742,3.0755,3.0755,3.0715,3.0715,3.0662,3.0408,3.0314,3.0261,2.9993,2.9913,2.9913,2.9913,2.9913,2.9913,2.9913,2.9913,2.9913,2.9913,2.9913,2.9913,2.9887,2.9673,2.9459,2.9406,2.9152,2.8858,2.8821,2.9845,3.07,3.07,3.3274,3.3736,3.0049,3.2427,3.2123,2.6612,2.7219,2.725,2.5594,2.7502,2.8281,2.731,2.872,0.0,2.8248,3.0226,3.1432,3.1766,3.573,3.6943,3.5485,3.9278,4.0113,3.8375,4.0282,4.106,4.106,4.106,4.106,4.106,4.106,4.106,4.106,4.106,4.106,4.106,4.106,4.106,4.106,2.8978,2.8951,2.8898,2.9018,2.9232,2.9472,2.9713,3.014,3.0408,3.0287,3.0368,3.0448,3.0448,3.0448,3.0448,3.0448,3.0448,3.0368,3.0194,3.0181,3.01,2.9927,2.9913,2.9913,2.9913,2.9913,2.978,2.9486,2.9179,2.8911,2.8671,2.831,2.831,2.8617,2.8978,2.9366,2.9753,2.994,3.0181,3.0448,3.0568,3.0621,3.0635,3.0755,3.0795,3.0808,3.0996,3.1049,3.1076,3.1263,3.1089,3.0768,3.0662,3.0621,3.0595,3.0474,3.0448,3.0408,3.0234,3.0181,3.014,2.9967,2.9913,2.9913,2.9913,2.9913,2.9913,2.9913,2.982,2.974,2.974,2.9499,2.9555,3.0351,3.0951,3.1227,3.0846,3.314,3.3784,3.0795,3.3468,3.4087,3.0529,3.0129,2.9485,2.8246,2.7353,2.6809,2.6787,2.8906,3.0146,3.0127,0.0,3.4987,3.5342,3.8059,3.9073,3.8539,4.0259,4.0705,4.0028,4.0789,4.106,4.106,4.106,4.106,4.106,4.106,4.106,4.106,4.106,4.106,4.106,4.106,4.106,4.106,2.9486,2.9486,2.9432,2.9432,2.9766,3.0047,3.0047,3.0541,3.0915,3.0915,3.0996,3.0982,3.0808,3.0795,3.0795,3.0795,3.0795,3.0702,3.0501,3.0488,3.0394,3.0181,3.0181,3.0181,3.0181,3.0087,2.994,2.974,2.9352,2.9125,2.9032,2.8524,2.8537,2.9005,2.9432,2.982,3.0181,3.0394,3.0608,3.0795,3.0889,3.0915,3.0929,3.1022,3.1049,3.1076,3.1289,3.1356,3.1383,3.1597,3.1396,3.1036,3.0942,3.0915,3.0902,3.0822,3.0795,3.0755,3.0541,3.0488,3.0434,3.0221,3.0114,3.0047,3.0047,2.998,2.9913,2.9913,2.9913,2.9913,2.9913,3.0185,3.0807,3.1685,3.2315,3.2419,3.1843,3.3228,3.3473,3.0978,3.3143,3.4111,3.2279,3.1715,3.126,3.0589,2.8773,2.7636,2.7533,2.9756,3.1338,3.2001,0.0,0.0,3.7535,3.9425,4.04,4.0639,4.0932,4.106,4.106,4.106,4.106,4.106,4.106,4.106,4.106,4.106,4.106,4.106,4.106,4.106,4.106,4.106,4.106,4.106,3.0662,3.0541,3.0341,3.0341,3.0354,3.0354,3.0354,3.0849,3.1223,3.1223,3.1476,3.1436,3.0862,3.0795,3.0795,3.0795,3.0795,3.0795,3.0795,3.0795,3.0782,3.0782,3.0782,3.0782,3.0782,3.0501,3.0354,3.0354,2.9766,2.9325,2.9032,2.8738,2.9072,2.99,2.9913,3.0234,3.0782,3.0782,3.0795,3.0822,3.1102,3.1223,3.1249,3.1543,3.1664,3.1664,3.1664,3.1664,3.1664,3.1664,3.1664,3.161,3.1316,3.1223,3.1169,3.0875,3.0795,3.0795,3.0795,3.0795,3.0782,3.0782,3.0568,3.0354,3.0354,3.0127,2.9913,2.9913,2.9913,2.9913,2.9913,3.139,3.2573,3.2353,3.3766,3.463,3.4084,3.4123,3.3296,3.0586,3.145,3.1649,3.0078,3.0871,3.1674,3.2058,3.2378,3.1917,3.0343,3.1595,3.2698,3.3381,3.5106,0.0,3.7207,3.8912,4.0235,4.106,4.106,4.106,4.106,4.106,4.106,4.106,4.106,4.106,4.106,4.106,4.106,4.106,4.106,4.106,4.106,4.106,4.106,4.106,3.0715,3.0715,3.0662,3.0662,3.0822,3.0955,3.0955,3.1276,3.153,3.153,3.161,3.1597,3.141,3.1396,3.1396,3.1396,3.1396,3.1303,3.1102,3.1089,3.0996,3.0795,3.0795,3.0795,3.0795,3.0702,3.0662,3.0662,3.0274,3.0034,2.994,3.0047,3.0247,3.0515,3.0515,3.0728,3.1089,3.1089,3.1209,3.1396,3.149,3.153,3.1543,3.1637,3.1664,3.1664,3.1664,3.1664,3.1664,3.1664,3.1664,3.165,3.1557,3.153,3.1517,3.1423,3.1396,3.1343,3.1142,3.1089,3.1036,3.0849,3.0728,3.0662,3.0662,3.0434,3.0167,2.9953,2.9913,2.9913,2.9913,3.0348,3.1114,3.2092,3.2922,3.3614,3.4282,3.567,3.6191,3.5096,3.6187,3.6874,3.6731,3.5259,3.403,3.3194,3.3114,3.2746,3.1964,3.4146,3.5618,3.6089,3.8047,0.0,3.9886,4.0151,4.0529,4.106,4.106,4.106,4.106,4.106,4.106,4.106,4.106,4.106,4.106,4.106,4.106,4.106,4.106,4.106,4.106,4.106,4.106,4.106,3.1062,3.1116,3.1116,3.1116,3.1276,3.1396,3.1396,3.1557,3.1664,3.1664,3.1664,3.1664,3.1664,3.1664,3.1664,3.1664,3.1664,3.1597,3.1396,3.1396,3.1316,3.1129,3.1116,3.1116,3.1116,3.1009,3.0955,3.0955,3.0662,3.0528,3.0528,3.0702,3.0849,3.0955,3.0955,3.1116,3.1396,3.1396,3.1503,3.1664,3.1664,3.1664,3.1664,3.1664,3.1664,3.1664,3.1664,3.1664,3.1664,3.1664,3.1664,3.1664,3.1664,3.1664,3.1664,3.1664,3.1664,3.1623,3.1436,3.1396,3.1343,3.1169,3.1036,3.0929,3.0822,3.0568,3.0314,3.0114,2.9993,2.9913,2.9913,3.0526,3.1245,3.2252,3.3173,3.3986,3.463,3.5962,3.6642,3.6175,3.6933,3.7836,3.8679,3.7252,3.6264,3.5998,3.5811,3.5723,3.5621,3.6354,3.7257,3.83,3.9576,4.0437,4.084,4.0602,4.0675,4.106,4.106,4.106,4.106,4.106,4.106,4.106,4.106,4.106,4.106,4.106,4.106,4.106,4.106,4.106,4.106,4.106,4.106,4.106,3.161,3.1664,3.1664,3.1664,3.1664,3.1664,3.1664,3.1664,3.1664,3.1664,3.1664,3.1664,3.1664,3.1664,3.1664,3.1664,3.1664,3.1664,3.1664,3.1664,3.1664,3.1664,3.1664,3.1664,3.1664,3.1396,3.1249,3.1249,3.0982,3.0849,3.0849,3.0849,3.0996,3.1249,3.1249,3.141,3.1664,3.1664,3.1664,3.1664,3.1664,3.1664,3.1664,3.1664,3.1664,3.1664,3.1664,3.1664,3.1664,3.1664,3.1664,3.1664,3.1664,3.1664,3.1664,3.1664,3.1664,3.1664,3.1664,3.1664,3.1664,3.1664,3.1463,3.1183,3.1074,3.0883,3.0681,3.0836,3.0592,3.0299,3.0299,3.176,3.2867,3.2867,3.4345,3.5454,3.5189,3.5499,3.544,3.4712,3.4874,3.5541,3.6977,3.7435,3.8206,3.9586,3.9887,4.0052,4.0198,3.823,3.7953,3.9905,4.0005,4.0189,4.051,4.051,4.0694,4.106,4.106,4.106,4.106,4.106,4.106,4.106,4.106,4.106,4.106,4.106,4.106,4.106,4.106,4.106,4.106,4.106,4.106,4.106,3.165,3.1664,3.1664,3.1664,3.1664,3.1664,3.1664,3.1664,3.1664,3.1664,3.1664,3.1664,3.1664,3.1664,3.1664,3.1664,3.1664,3.1664,3.1664,3.1664,3.1664,3.1664,3.1664,3.1664,3.1664,3.1597,3.157,3.157,3.1503,3.1463,3.1463,3.1463,3.1503,3.157,3.157,3.1597,3.1664,3.1664,3.1664,3.1664,3.1664,3.1664,3.1664,3.1664,3.1664,3.1664,3.1664,3.1664,3.1664,3.1664,3.1664,3.1664,3.1664,3.1664,3.1664,3.1664,3.1664,3.1664,3.1664,3.1664,3.1664,3.1664,3.1623,3.1854,3.3108,3.3349,3.3678,3.4954,3.4886,3.4641,3.4641,3.4705,3.4869,3.4869,3.5217,3.5886,3.6895,3.7098,3.7656,3.8855,3.9075,3.9384,4.0,4.0192,3.9557,3.8105,3.9736,3.9884,3.7807,3.9205,4.0323,4.0767,4.0851,4.0822,4.0914,4.0914,4.0969,4.106,4.106,4.106,4.106,4.106,4.106,4.106,4.106,4.106,4.106,4.106,4.106,4.106,4.106,4.106,4.106,4.106,4.106,4.106,3.1664,3.1664,3.1664,3.1664,3.1664,3.1664,3.1664,3.1664,3.1664,3.1664,3.1664,3.1664,3.1664,3.1664,3.1664,3.1664,3.1664,3.1664,3.1664,3.1664,3.1664,3.1664,3.1664,3.1664,3.1664,3.1664,3.1664,3.1664,3.1664,3.1664,3.1664,3.1664,3.1664,3.1664,3.1664,3.1664,3.1664,3.1664,3.1664,3.1664,3.1664,3.1664,3.1664,3.1664,3.1664,3.1664,3.1664,3.1664,3.1664,3.1664,3.1664,3.1664,3.1664,3.1664,3.1664,3.1664,3.1664,3.1664,3.1664,3.1664,3.1664,3.1664,3.1664,3.1908,3.2845,3.2971,3.3372,3.5182,3.5239,3.5215,3.593,3.5931,3.5669,3.551,3.6043,3.6823,3.7555,3.8481,3.9336,4.039,4.0639,4.0822,4.1042,4.106,4.0523,3.9217,4.0203,4.0232,3.8814,4.0094,4.0785,4.0785,4.0969,4.106,4.106,4.106,4.106,4.106,4.106,4.106,4.106,4.106,4.106,4.106,4.106,4.106,4.106,4.106,4.106,4.106,4.106,4.106,4.106,4.106,4.106,4.106,3.1664,3.1664,3.1664,3.1664,3.1664,3.1664,3.1664,3.1664,3.1664,3.1664,3.1664,3.1664,3.1664,3.1664,3.1664,3.1664,3.1664,3.1664,3.1664,3.1664,3.1664,3.1664,3.1664,3.1664,3.1664,3.1664,3.1664,3.1664,3.1664,3.1664,3.1664,3.1664,3.1664,3.1664,3.1664,3.1664,3.1664,3.1664,3.1664,3.1664,3.1664,3.1664,3.1664,3.1664,3.1664,3.1664,3.1664,3.1664,3.1664,3.1664,3.1664,3.1758,3.2043,3.2138,3.2232,3.2502,3.2408,3.2043,3.1758,3.1664,3.1664,3.1664,3.1664,3.1758,3.2043,3.1934,3.2384,3.4673,3.4863,3.5164,3.6829,3.7084,3.6834,3.608,3.6958,3.7758,3.7638,3.905,4.0206,4.0473,4.0822,4.106,4.106,4.106,4.106,4.106,4.0749,4.0675,4.095,4.0712,4.0529,4.0473,4.0859,4.106,4.106,4.106,4.106,4.106,4.106,4.106,4.106,4.106,4.106,4.106,4.106,4.106,4.106,4.106,4.106,4.106,4.106,4.106,4.106,4.106,4.106,4.106,3.1664,3.1664,3.1664,3.1664,3.1664,3.1664,3.1664,3.1664,3.1664,3.1664,3.1664,3.1664,3.1664,3.1664,3.1664,3.1664,3.1664,3.1664,3.1664,3.1664,3.1664,3.1664,3.1664,3.1664,3.1664,3.1664,3.1664,3.1664,3.1664,3.1664,3.1664,3.1664,3.1664,3.1664,3.1664,3.1664,3.1664,3.1664,3.1664,3.1664,3.1664,3.1664,3.1664,3.1664,3.1664,3.1664,3.1664,3.1664,3.1664,3.1664,3.1664,3.1948,3.3605,3.4154,3.4435,3.6189,3.5461,3.3793,3.2138,3.1664,3.1664,3.1664,3.1664,3.2138,3.3793,3.4125,3.5093,3.8778,3.9221,3.9563,4.1496,4.1596,4.0609,3.822,3.8066,3.7981,3.733,3.777,3.8733,4.0289,4.0822,4.106,4.106,4.106,4.106,4.106,4.1005,4.0859,4.0584,4.0822,4.0822,4.0473,4.0859,4.106,4.106,4.106,4.106,4.106,4.106,4.106,4.106,4.106,4.106,4.106,4.106,4.106,4.106,4.106,4.106,4.106,4.106,4.106,4.106,4.106,4.106,4.106,3.1664,3.1664,3.1664,3.1664,3.1664,3.1664,3.1664,3.1664,3.1664,3.1664,3.1664,3.1664,3.1664,3.1664,3.1664,3.1664,3.1664,3.1664,3.1664,3.1664,3.1664,3.1664,3.1664,3.1664,3.1664,3.1664,3.1664,3.1664,3.1664,3.1664,3.1664,3.1664,3.1664,3.1664,3.1664,3.1664,3.1664,3.1664,3.1664,3.1664,3.1664,3.1664,3.1664,3.1664,3.1664,3.1664,3.1664,3.1664,3.1853,3.2866,3.3243,3.3605,3.5539,3.6189,3.6375,3.7299,3.6189,3.4154,3.2219,3.2502,3.3243,3.3243,3.4075,3.4809,3.4622,3.5461,3.6467,3.7207,3.8911,4.0459,4.116,4.199,4.2065,4.0389,3.9983,3.956,3.8992,3.9063,3.9521,4.039,4.0822,4.106,4.106,4.106,4.106,4.106,4.106,4.0987,4.0804,4.0969,4.0969,4.0785,4.0969,4.106,4.106,4.106,4.106,4.106,4.106,4.106,4.106,4.106,4.106,4.106,4.106,4.106,4.106,4.106,4.106,4.106,4.106,4.106,4.106,4.106,4.106,4.106,3.1664,3.1664,3.1664,3.1664,3.1664,3.1664,3.1664,3.1664,3.1664,3.1664,3.1664,3.1664,3.1664,3.1664,3.1664,3.1664,3.1664,3.1664,3.1664,3.1664,3.1664,3.1664,3.1664,3.1664,3.1664,3.1664,3.1664,3.1664,3.1664,3.1664,3.1664,3.1664,3.1664,3.1664,3.1664,3.1664,3.1664,3.1664,3.1664,3.1664,3.1664,3.1664,3.1664,3.1664,3.1664,3.1664,3.1664,3.1664,3.2043,3.3981,3.4622,3.4995,3.7483,3.8219,3.8418,3.8876,3.7575,3.5446,3.3055,3.3793,3.5275,3.5275,3.6467,3.7207,3.5647,3.6467,3.7299,3.6189,3.8402,4.052,4.0676,4.1995,4.2747,4.1959,0.0,4.117,4.0675,4.0602,4.0602,4.0602,4.0877,4.106,4.106,4.106,4.106,4.106,4.106,4.106,4.106,4.106,4.106,4.106,4.106,4.106,4.106,4.106,4.106,4.106,4.106,4.106,4.106,4.106,4.106,4.106,4.106,4.106,4.106,4.106,4.106,4.106,4.106,4.106,4.106,4.106,4.106,4.106,3.1664,3.1664,3.1664,3.1664,3.1664,3.1664,3.1664,3.1664,3.1664,3.1664,3.1664,3.1664,3.1664,3.1664,3.1664,3.1664,3.1664,3.1664,3.1664,3.1664,3.1664,3.1664,3.1664,3.1664,3.1664,3.1664,3.1664,3.1664,3.1664,3.1664,3.1664,3.1664,3.1664,3.1664,3.1664,3.1664,3.1664,3.1664,3.1664,3.1664,3.1664,3.1664,3.1664,3.1664,3.1664,3.1664,3.1664,3.1664,3.2043,3.3981,3.4622,3.5275,3.9043,4.026,4.0623,4.2479,4.1634,3.9225,3.5446,3.5818,3.7391,3.7391,3.7483,3.7575,3.7391,3.7483,3.8035,3.9698,4.0334,4.1075,4.2891,4.3355,4.3188,4.2362,0.0,0.0,4.1134,4.1108,4.1108,4.1108,4.1042,4.106,4.106,4.106,4.106,4.106,4.106,4.106,4.106,4.106,4.106,4.106,4.106,4.106,4.106,4.106,4.106,4.106,4.106,4.106,4.106,4.106,4.106,4.106,4.106,4.106,4.106,4.106,4.106,4.106,4.106,4.106,4.106,4.106,4.106,4.106,3.1664,3.1664,3.1664,3.1664,3.1664,3.1664,3.1664,3.1664,3.1664,3.1664,3.1664,3.1664,3.1664,3.1664,3.1664,3.1664,3.1664,3.1664,3.1664,3.1664,3.1664,3.1664,3.1664,3.1664,3.1664,3.1664,3.1664,3.1664,3.1664,3.1664,3.1664,3.1664,3.1664,3.1664,3.1664,3.1664,3.1664,3.1664,3.1664,3.1664,3.1664,3.1664,3.1664,3.1664,3.1664,3.1664,3.1664,3.1664,3.2219,3.5368,3.6467,3.7115,4.1075,4.2371,4.2281,4.1814,4.2012,4.1742,3.9043,3.8768,3.9424,3.9424,4.0351,4.0912,3.9698,4.0351,4.0804,3.9059,4.0623,4.2192,4.1724,4.2658,4.3298,4.2729,0.0,4.2454,4.1886,4.161,4.1445,4.1445,4.1225,4.106,4.106,4.106,4.106,4.106,4.106,4.106,4.106,4.106,4.106,4.106,4.106,4.106,4.106,4.106,4.106,4.106,4.106,4.106,4.106,4.106,4.106,4.106,4.106,4.106,4.106,4.106,4.106,4.106,4.106,4.106,4.106,4.106,4.1294,4.1462,3.1664,3.1664,3.1664,3.1664,3.1664,3.1664,3.1664,3.1664,3.1664,3.1664,3.1664,3.1664,3.1664,3.1664,3.1664,3.1664,3.1664,3.1664,3.1664,3.1664,3.1664,3.1664,3.1664,3.1664,3.1664,3.1664,3.1664,3.1664,3.1664,3.1664,3.1664,3.1664,3.1664,3.1664,3.1664,3.1664,3.1664,3.1664,3.1664,3.1664,3.1664,3.1664,3.1664,3.1664,3.1664,3.1664,3.1664,3.1664,3.2313,3.6298,3.7575,3.8327,4.2281,4.3499,4.3213,4.1832,4.2389,4.3213,4.1832,4.1454,4.1454,4.1454,4.2479,4.3124,4.1742,4.2479,4.2748,3.9987,4.1634,4.3124,4.1724,4.2568,4.3408,4.3114,4.3059,4.2931,4.2509,4.2234,4.2014,4.1886,4.15,4.1262,4.1262,4.1134,4.106,4.106,4.106,4.106,4.106,4.106,4.106,4.106,4.106,4.106,4.106,4.106,4.106,4.106,4.106,4.106,4.106,4.121,4.1229,4.1145,4.121,4.1229,4.1145,4.1229,4.1294,4.1294,4.1481,4.1481,4.1481,4.1481,4.1714,4.1882,3.1664,3.1664,3.1664,3.1664,3.1664,3.1664,3.1664,3.1664,3.1664,3.1664,3.1664,3.1664,3.1664,3.1664,3.1664,3.1664,3.1664,3.1664,3.1664,3.1664,3.1664,3.1664,3.1664,3.1664,3.1664,3.1664,3.1664,3.1664,3.1664,3.1664,3.1664,3.1664,3.1664,3.1664,3.1664,3.1664,3.1664,3.1664,3.1664,3.1664,3.1664,3.1664,3.1664,3.1664,3.1677,3.1758,3.1758,3.1758,3.2313,3.6298,3.7575,3.8327,4.2299,4.3499,4.3499,4.3499,4.3499,4.3499,4.3499,4.3499,4.3499,4.3499,4.3499,4.3499,4.3499,4.3499,4.3499,4.3499,4.3499,4.3499,4.3499,4.3499,4.3499,4.3499,4.3499,4.3353,4.2931,4.2858,4.2729,4.2326,4.1941,4.1702,4.1684,4.1317,4.106,4.106,4.106,4.106,4.106,4.106,4.106,4.106,4.106,4.106,4.106,4.106,4.106,4.106,4.106,4.106,4.1145,4.1546,4.1462,4.1145,4.1546,4.1462,4.1145,4.1546,4.1695,4.1779,4.2235,4.2402,4.2402,4.2402,4.2402,4.2402,3.1664,3.1664,3.1664,3.1664,3.1664,3.1664,3.1664,3.1664,3.1664,3.1664,3.1664,3.1664,3.1664,3.1664,3.1664,3.1664,3.1664,3.1664,3.1664,3.1664,3.1664,3.1664,3.1664,3.1664,3.1664,3.1664,3.1664,3.1664,3.1664,3.1664,3.1664,3.1664,3.1664,3.1664,3.1664,3.1664,3.1664,3.1664,3.1664,3.1664,3.1664,3.1664,3.1664,3.1664,3.2597,3.3699,3.3699,3.4622,3.6189,3.8768,3.9606,4.0061,4.2658,4.3499,4.3499,4.3499,4.3499,4.3499,4.3499,4.3499,4.3499,4.3499,4.3499,4.3499,4.3499,4.3499,4.3499,4.3499,4.3499,4.3499,4.3499,4.3499,4.3499,4.3499,4.3499,4.3444,4.3334,4.3059,4.2821,4.2711,4.2344,4.1996,4.1721,4.1574,4.1372,4.1079,4.106,4.106,4.106,4.106,4.106,4.106,4.106,4.106,4.106,4.106,4.106,4.106,4.106,4.106,4.1145,4.1546,4.1612,4.1546,4.1965,4.2151,4.1984,4.2151,4.2235,4.2235,4.2318,4.2402,4.2402,4.2402,4.2569,4.2818,3.1664,3.1664,3.1664,3.1664,3.1664,3.1664,3.1664,3.1664,3.1664,3.1664,3.1664,3.1664,3.1664,3.1664,3.1664,3.1664,3.1664,3.1664,3.1664,3.1664,3.1664,3.1664,3.1664,3.1664,3.1664,3.1664,3.1664,3.1664,3.1664,3.1664,3.1664,3.1664,3.1664,3.1664,3.1664,3.1664,3.1664,3.1664,3.1664,3.1664,3.1664,3.2124,3.2866,3.2866,3.4075,3.5833,3.5833,3.656,3.7851,3.988,4.0985,4.1922,4.3124,4.3499,4.3499,4.3499,4.3499,4.3499,4.3499,4.3499,4.3499,4.3499,4.3499,4.3499,4.3499,4.3499,4.3499,4.3499,4.3499,4.3499,4.3499,4.3499,4.3499,4.3499,4.3499,4.3499,4.3499,4.3279,4.3114,4.3114,4.2747,4.2417,4.2179,4.2039,4.1756,4.1331,4.1294,4.1313,4.1145,4.106,4.1145,4.1294,4.1229,4.1145,4.1294,4.1145,4.106,4.106,4.106,4.106,4.1145,4.1546,4.1695,4.1695,4.1965,4.2132,4.2132,4.2318,4.2402,4.2402,4.2818,4.2882,4.2882,4.2882,4.3048,4.3297,3.1948,3.1853,3.1664,3.1664,3.1664,3.1664,3.1664,3.1664,3.1664,3.1664,3.1664,3.1664,3.1664,3.1664,3.1664,3.1664,3.1664,3.1664,3.1664,3.1664,3.1664,3.1664,3.1664,3.1664,3.1664,3.1664,3.1664,3.1664,3.1664,3.1664,3.1664,3.1664,3.1664,3.1664,3.1664,3.1664,3.1664,3.1664,3.1664,3.1758,3.1853,3.3055,3.4622,3.4809,3.6097,3.7851,3.7851,3.7943,3.8418,4.0152,4.2012,4.3499,4.3499,4.3499,4.3499,4.3499,4.3499,4.3499,4.3499,4.3499,4.3499,4.3499,4.3499,4.3499,4.3499,4.3499,4.3499,4.3499,4.3499,4.3499,4.3499,4.3499,4.3499,4.3499,4.3499,4.3499,4.3499,4.3499,4.3499,4.3499,4.3151,4.2913,4.2876,4.2592,4.2217,4.1789,4.1751,4.1667,4.1229,4.1229,4.1378,4.1779,4.1378,4.1378,4.1779,4.1397,4.1145,4.106,4.106,4.106,4.1145,4.1546,4.1695,4.1695,4.1779,4.1779,4.1798,4.2299,4.2485,4.2569,4.3297,4.3711,4.3711,4.3628,4.3711,4.3711,3.3981,3.2786,3.1664,3.1664,3.1664,3.1664,3.1664,3.1664,3.1664,3.1664,3.1664,3.1664,3.1664,3.1664,3.1664,3.1664,3.1664,3.1664,3.1664,3.1664,3.1664,3.1664,3.1664,3.1664,3.1664,3.1664,3.1664,3.1664,3.1664,3.1664,3.1664,3.1664,3.1664,3.1664,3.1664,3.1664,3.1664,3.1664,3.1664,3.1853,3.3337,3.4248,3.4809,3.6375,3.8127,3.988,3.988,4.0894,4.2281,4.2748,4.3124,4.3499,4.3499,4.3499,4.3499,4.3499,4.3499,4.3499,4.3499,4.3499,4.3499,4.3499,4.3499,4.3499,4.3499,4.3499,4.3499,4.3499,4.3499,4.3499,4.3499,4.3499,4.3499,4.3499,4.3499,4.3499,4.3499,4.3499,4.3499,4.3499,4.3408,4.3224,4.2894,4.2852,4.2646,4.2236,4.2537,4.2574,4.217,4.2151,4.2151,4.2235,4.2151,4.2151,4.2235,4.2151,4.1816,4.106,4.106,4.106,4.1145,4.1546,4.1695,4.1695,4.2466,4.2569,4.2318,4.3131,4.3214,4.2985,4.3151,4.338,4.3628,4.3399,4.3463,4.3711,3.4809,3.3793,3.2772,3.1853,3.1664,3.1664,3.1664,3.1664,3.1664,3.1664,3.1664,3.1664,3.1664,3.1664,3.1664,3.1664,3.1664,3.1664,3.1664,3.1664,3.1664,3.1664,3.1664,3.1664,3.1664,3.1664,3.1664,3.1664,3.1664,3.1664,3.1664,3.1664,3.1664,3.1664,3.1664,3.1664,3.1758,3.2691,3.3055,3.3243,3.5275,3.656,3.7575,3.8585,4.026,4.1922,4.1922,4.2568,4.3499,4.3499,4.3499,4.3499,4.3499,4.3499,4.3499,4.3499,4.3499,4.3499,4.3499,4.3499,4.3499,4.3499,4.3499,4.3499,4.3499,4.3499,4.3499,4.3499,4.3499,4.3499,4.3499,4.3499,4.3499,4.3499,4.3499,4.3499,4.3499,4.3499,4.3499,4.3499,4.3499,4.3423,4.3176,4.3199,4.3161,4.2903,4.2952,4.2913,4.2705,4.2515,4.2485,4.2735,4.2485,4.2485,4.2735,4.2485,4.2151,4.1733,4.1733,4.1733,4.1733,4.1965,4.2132,4.2383,4.2652,4.2735,4.2735,4.3234,4.3297,4.3151,4.3297,4.3546,4.3711,4.3463,4.3546,4.3711,3.5911,3.5368,3.4528,3.2502,3.2232,3.2043,3.1758,3.1664,3.1664,3.1664,3.1664,3.1664,3.1664,3.1664,3.1664,3.1664,3.1664,3.1664,3.1664,3.1664,3.1664,3.1664,3.1664,3.1664,3.1664,3.1664,3.1664,3.1664,3.1664,3.1664,3.1664,3.1664,3.1853,3.2232,3.2232,3.2408,3.2786,3.4435,3.5089,3.5275,3.7299,3.9043,4.0532,4.0894,4.2012,4.3499,4.3499,4.3499,4.3499,4.3499,4.3499,4.3499,4.3499,4.3499,4.3499,4.3499,4.3499,4.3499,4.3499,4.3499,4.3499,4.3589,4.3589,4.3499,4.3589,4.3589,4.3499,4.3499,4.3589,4.3589,4.3589,4.3678,4.3748,4.3748,4.3748,4.3748,4.3748,4.3748,4.3748,4.3748,4.3748,4.3708,4.3708,4.3777,4.3853,4.3851,4.3595,4.3452,4.3376,4.2995,4.2933,4.335,4.2857,4.2818,4.3234,4.2818,4.2652,4.2652,4.2652,4.2569,4.2402,4.2402,4.2569,4.2985,4.2652,4.2652,4.2985,4.3151,4.3151,4.3151,4.3463,4.3628,4.3711,4.3711,4.3711,4.3711,3.9789,3.831,3.656,3.4528,3.4262,3.3605,3.1948,3.1664,3.1664,3.1664,3.1664,3.1664,3.1664,3.1664,3.1664,3.1664,3.1664,3.1664,3.1664,3.1664,3.1664,3.1664,3.1664,3.1664,3.1664,3.1664,3.1664,3.1664,3.1664,3.1664,3.1664,3.1664,3.2597,3.4262,3.4262,3.5182,3.6837,3.7115,3.7207,3.7391,3.9333,4.026,4.0713,4.2461,4.3213,4.3499,4.3499,4.3499,4.3499,4.3499,4.3499,4.3499,4.3499,4.3499,4.3499,4.3499,4.3499,4.3499,4.3499,4.3499,4.3589,4.4015,4.3767,4.3589,4.4015,4.3748,4.3499,4.3499,4.3856,4.4104,4.4104,4.4459,4.4725,4.4725,4.4725,4.4725,4.4725,4.4725,4.4725,4.4725,4.4725,4.4706,4.4738,4.5071,4.5163,4.4828,4.5096,4.5161,4.4791,4.4363,4.4149,4.4213,4.376,4.3546,4.3628,4.3546,4.3546,4.3546,4.3546,4.3131,4.2402,4.2402,4.2402,4.2485,4.2818,4.2818,4.2569,4.3297,4.338,4.3068,4.3151,4.338,4.3711,4.3711,4.3711,4.3711,4.0713,3.9789,3.8585,3.6653,3.6282,3.5647,3.3605,3.3337,3.296,3.1853,3.1664,3.1664,3.1664,3.1664,3.1664,3.1664,3.1664,3.1664,3.1664,3.1664,3.1664,3.1664,3.1664,3.2219,3.3337,3.3337,3.3887,3.4995,3.2786,3.2219,3.3337,3.3337,3.4341,3.6282,3.6282,3.6745,3.7667,3.8768,3.9242,3.9424,4.1363,4.2192,4.2281,4.3124,4.3499,4.3499,4.3499,4.3499,4.3499,4.3499,4.3499,4.3499,4.3499,4.3499,4.3499,4.3499,4.3499,4.3499,4.3499,4.3499,4.3589,4.3767,4.3678,4.3589,4.3767,4.3678,4.3589,4.3856,4.4015,4.4282,4.4548,4.4725,4.4902,4.4902,4.4902,4.4902,4.4902,4.4902,4.4902,4.4902,4.4902,4.4902,4.4902,4.5078,4.5266,4.5337,4.528,4.5327,4.5391,4.498,4.4648,4.4414,4.4199,4.3965,4.3711,4.3711,4.3711,4.3711,4.3711,4.3546,4.3131,4.3131,4.3131,4.3131,4.338,4.3297,4.3131,4.3546,4.3628,4.3463,4.3463,4.3546,4.3711,4.3711,4.3711,4.3711]}]]